Wetterdaten: Montag, 15.08.2016
Datum Zeit Temp. A. Temp. A. max Feuchte A. Luftdruck Regen Wind Richtung Richtung Sonnenschein ET UV Solar Taupunkt Windben
15.08.2016 00:00 16,0 C 16,1 C 91 % 1020,1 hPa 0,0 mm 0,0 km/h (0 Bft) S-SO 151 0 min 0,000 mm 0,0 UV-I 0 W/m 14,5 C 0,0 km/h (0 Bft)
15.08.2016 00:01 15,9 C 16,0 C 91 % 1020,1 hPa 0,0 mm 0,0 km/h (0 Bft) S-SO 151 0 min 0,000 mm 0,0 UV-I 0 W/m 14,4 C 0,0 km/h (0 Bft)
15.08.2016 00:02 15,9 C 15,9 C 91 % 1020,1 hPa 0,0 mm 0,0 km/h (0 Bft) S-SO 151 0 min 0,000 mm 0,0 UV-I 0 W/m 14,4 C 0,0 km/h (0 Bft)
15.08.2016 00:03 15,9 C 15,9 C 92 % 1020,2 hPa 0,0 mm 0,0 km/h (0 Bft) S-SO 151 0 min 0,000 mm 0,0 UV-I 0 W/m 14,6 C 0,0 km/h (0 Bft)
15.08.2016 00:04 16,0 C 16,0 C 92 % 1020,3 hPa 0,0 mm 0,0 km/h (0 Bft) S-SO 151 0 min 0,000 mm 0,0 UV-I 0 W/m 14,7 C 0,0 km/h (0 Bft)
15.08.2016 00:05 16,1 C 16,1 C 92 % 1020,3 hPa 0,0 mm 0,0 km/h (0 Bft) S-SO 151 0 min 0,000 mm 0,0 UV-I 0 W/m 14,8 C 0,0 km/h (0 Bft)
15.08.2016 00:06 16,1 C 16,1 C 92 % 1020,3 hPa 0,0 mm 0,0 km/h (0 Bft) S-SO 151 0 min 0,000 mm 0,0 UV-I 0 W/m 14,8 C 0,0 km/h (0 Bft)
15.08.2016 00:07 16,1 C 16,1 C 92 % 1020,3 hPa 0,0 mm 0,0 km/h (0 Bft) S-SO 151 0 min 0,000 mm 0,0 UV-I 0 W/m 14,8 C 0,0 km/h (0 Bft)
15.08.2016 00:08 16,1 C 16,1 C 92 % 1020,3 hPa 0,0 mm 0,0 km/h (0 Bft) S-SO 151 0 min 0,000 mm 0,0 UV-I 0 W/m 14,8 C 0,0 km/h (0 Bft)
15.08.2016 00:09 15,9 C 16,1 C 91 % 1020,4 hPa 0,0 mm 0,0 km/h (0 Bft) S-SO 151 0 min 0,000 mm 0,0 UV-I 0 W/m 14,4 C 0,0 km/h (0 Bft)
15.08.2016 00:10 15,9 C 15,9 C 91 % 1020,3 hPa 0,0 mm 0,0 km/h (0 Bft) S-SO 151 0 min 0,000 mm 0,0 UV-I 0 W/m 14,4 C 0,0 km/h (0 Bft)
15.08.2016 00:11 15,8 C 15,9 C 91 % 1020,3 hPa 0,0 mm 0,0 km/h (0 Bft) S-SO 151 0 min 0,000 mm 0,0 UV-I 0 W/m 14,3 C 0,0 km/h (0 Bft)
15.08.2016 00:12 15,8 C 15,8 C 90 % 1020,3 hPa 0,0 mm 0,0 km/h (0 Bft) S-SO 151 0 min 0,000 mm 0,0 UV-I 0 W/m 14,2 C 0,0 km/h (0 Bft)
15.08.2016 00:13 15,7 C 15,8 C 91 % 1020,3 hPa 0,0 mm 0,0 km/h (0 Bft) S-SO 151 0 min 0,000 mm 0,0 UV-I 0 W/m 14,2 C 0,0 km/h (0 Bft)
15.08.2016 00:14 15,6 C 15,7 C 91 % 1020,3 hPa 0,0 mm 0,0 km/h (0 Bft) S-SO 151 0 min 0,000 mm 0,0 UV-I 0 W/m 14,1 C 0,0 km/h (0 Bft)
15.08.2016 00:15 15,5 C 15,6 C 91 % 1020,3 hPa 0,0 mm 0,0 km/h (0 Bft) S-SO 151 0 min 0,000 mm 0,0 UV-I 0 W/m 14,0 C 0,0 km/h (0 Bft)
15.08.2016 00:16 15,4 C 15,5 C 92 % 1020,3 hPa 0,0 mm 0,0 km/h (0 Bft) S-SO 151 0 min 0,000 mm 0,0 UV-I 0 W/m 14,1 C 0,0 km/h (0 Bft)
15.08.2016 00:17 15,4 C 15,4 C 92 % 1020,3 hPa 0,0 mm 0,0 km/h (0 Bft) S-SO 151 0 min 0,000 mm 0,0 UV-I 0 W/m 14,1 C 0,0 km/h (0 Bft)
15.08.2016 00:18 15,4 C 15,4 C 92 % 1020,3 hPa 0,0 mm 0,0 km/h (0 Bft) S-SO 151 0 min 0,000 mm 0,0 UV-I 0 W/m 14,1 C 0,0 km/h (0 Bft)
15.08.2016 00:19 15,3 C 15,4 C 92 % 1020,2 hPa 0,0 mm 0,0 km/h (0 Bft) S-SO 151 0 min 0,000 mm 0,0 UV-I 0 W/m 14,0 C 0,0 km/h (0 Bft)
15.08.2016 00:20 15,3 C 15,3 C 92 % 1020,2 hPa 0,0 mm 0,0 km/h (0 Bft) S-SO 151 0 min 0,000 mm 0,0 UV-I 0 W/m 14,0 C 0,0 km/h (0 Bft)
15.08.2016 00:21 15,3 C 15,3 C 93 % 1020,2 hPa 0,0 mm 0,0 km/h (0 Bft) S-SO 151 0 min 0,000 mm 0,0 UV-I 0 W/m 14,2 C 0,0 km/h (0 Bft)
15.08.2016 00:22 15,3 C 15,3 C 92 % 1020,3 hPa 0,0 mm 0,0 km/h (0 Bft) S-SO 151 0 min 0,000 mm 0,0 UV-I 0 W/m 14,0 C 0,0 km/h (0 Bft)
15.08.2016 00:23 15,2 C 15,3 C 92 % 1020,3 hPa 0,0 mm 0,0 km/h (0 Bft) S-SO 151 0 min 0,000 mm 0,0 UV-I 0 W/m 13,9 C 0,0 km/h (0 Bft)
15.08.2016 00:24 15,2 C 15,2 C 92 % 1020,2 hPa 0,0 mm 0,0 km/h (0 Bft) S-SO 151 0 min 0,000 mm 0,0 UV-I 0 W/m 13,9 C 0,0 km/h (0 Bft)
15.08.2016 00:25 15,2 C 15,2 C 92 % 1020,2 hPa 0,0 mm 0,0 km/h (0 Bft) S-SO 151 0 min 0,000 mm 0,0 UV-I 0 W/m 13,9 C 0,0 km/h (0 Bft)
15.08.2016 00:26 15,2 C 15,2 C 93 % 1020,2 hPa 0,0 mm 0,0 km/h (0 Bft) S-SO 151 0 min 0,000 mm 0,0 UV-I 0 W/m 14,1 C 0,0 km/h (0 Bft)
15.08.2016 00:27 15,2 C 15,2 C 92 % 1020,2 hPa 0,0 mm 0,0 km/h (0 Bft) S-SO 151 0 min 0,000 mm 0,0 UV-I 0 W/m 13,9 C 0,0 km/h (0 Bft)
15.08.2016 00:28 15,2 C 15,2 C 92 % 1020,2 hPa 0,0 mm 0,0 km/h (0 Bft) S-SO 151 0 min 0,000 mm 0,0 UV-I 0 W/m 13,9 C 0,0 km/h (0 Bft)
15.08.2016 00:29 15,2 C 15,2 C 92 % 1020,2 hPa 0,0 mm 0,0 km/h (0 Bft) S-SO 151 0 min 0,000 mm 0,0 UV-I 0 W/m 13,9 C 0,0 km/h (0 Bft)
15.08.2016 00:30 15,2 C 15,2 C 93 % 1020,2 hPa 0,0 mm 0,0 km/h (0 Bft) S-SO 151 0 min 0,000 mm 0,0 UV-I 0 W/m 14,1 C 0,0 km/h (0 Bft)
15.08.2016 00:31 15,2 C 15,2 C 93 % 1020,2 hPa 0,0 mm 0,0 km/h (0 Bft) S-SO 151 0 min 0,000 mm 0,0 UV-I 0 W/m 14,1 C 0,0 km/h (0 Bft)
15.08.2016 00:32 15,2 C 15,2 C 93 % 1020,3 hPa 0,0 mm 0,0 km/h (0 Bft) S-SO 151 0 min 0,000 mm 0,0 UV-I 0 W/m 14,1 C 0,0 km/h (0 Bft)
15.08.2016 00:33 15,1 C 15,2 C 93 % 1020,3 hPa 0,0 mm 0,0 km/h (0 Bft) S-SO 151 0 min 0,000 mm 0,0 UV-I 0 W/m 14,0 C 0,0 km/h (0 Bft)
15.08.2016 00:34 15,1 C 15,1 C 93 % 1020,3 hPa 0,0 mm 0,0 km/h (0 Bft) S-SO 151 0 min 0,000 mm 0,0 UV-I 0 W/m 14,0 C 0,0 km/h (0 Bft)
15.08.2016 00:35 15,2 C 15,2 C 93 % 1020,3 hPa 0,0 mm 0,0 km/h (0 Bft) S-SO 151 0 min 0,000 mm 0,0 UV-I 0 W/m 14,1 C 0,0 km/h (0 Bft)
15.08.2016 00:36 15,2 C 15,2 C 93 % 1020,3 hPa 0,0 mm 0,0 km/h (0 Bft) S-SO 151 0 min 0,000 mm 0,0 UV-I 0 W/m 14,1 C 0,0 km/h (0 Bft)
15.08.2016 00:37 15,2 C 15,2 C 92 % 1020,3 hPa 0,0 mm 0,0 km/h (0 Bft) S-SO 151 0 min 0,000 mm 0,0 UV-I 0 W/m 13,9 C 0,0 km/h (0 Bft)
15.08.2016 00:38 15,3 C 15,3 C 93 % 1020,3 hPa 0,0 mm 0,0 km/h (0 Bft) S-SO 151 0 min 0,000 mm 0,0 UV-I 0 W/m 14,2 C 0,0 km/h (0 Bft)
15.08.2016 00:39 15,3 C 15,3 C 92 % 1020,3 hPa 0,0 mm 0,0 km/h (0 Bft) S-SO 151 0 min 0,000 mm 0,0 UV-I 0 W/m 14,0 C 0,0 km/h (0 Bft)
15.08.2016 00:40 15,3 C 15,3 C 92 % 1020,3 hPa 0,0 mm 0,0 km/h (0 Bft) S-SO 151 0 min 0,000 mm 0,0 UV-I 0 W/m 14,0 C 0,0 km/h (0 Bft)
15.08.2016 00:41 15,3 C 15,4 C 92 % 1020,3 hPa 0,0 mm 0,0 km/h (0 Bft) S-SO 151 0 min 0,000 mm 0,0 UV-I 0 W/m 14,0 C 0,0 km/h (0 Bft)
15.08.2016 00:42 15,4 C 15,4 C 92 % 1020,3 hPa 0,0 mm 0,0 km/h (0 Bft) S-SO 151 0 min 0,000 mm 0,0 UV-I 0 W/m 14,1 C 0,0 km/h (0 Bft)
15.08.2016 00:43 15,4 C 15,4 C 92 % 1020,3 hPa 0,0 mm 0,0 km/h (0 Bft) S-SO 151 0 min 0,000 mm 0,0 UV-I 0 W/m 14,1 C 0,0 km/h (0 Bft)
15.08.2016 00:44 15,4 C 15,4 C 91 % 1020,4 hPa 0,0 mm 0,0 km/h (0 Bft) S 179 0 min 0,000 mm 0,0 UV-I 0 W/m 13,9 C 0,0 km/h (0 Bft)
15.08.2016 00:45 15,4 C 15,4 C 91 % 1020,4 hPa 0,0 mm 0,0 km/h (0 Bft) S 179 0 min 0,000 mm 0,0 UV-I 0 W/m 13,9 C 0,0 km/h (0 Bft)
15.08.2016 00:46 15,4 C 15,4 C 92 % 1020,3 hPa 0,0 mm 0,0 km/h (0 Bft) S 179 0 min 0,000 mm 0,0 UV-I 0 W/m 14,1 C 0,0 km/h (0 Bft)
15.08.2016 00:47 15,4 C 15,4 C 92 % 1020,3 hPa 0,0 mm 0,0 km/h (0 Bft) S 179 0 min 0,000 mm 0,0 UV-I 0 W/m 14,1 C 0,0 km/h (0 Bft)
15.08.2016 00:48 15,6 C 15,6 C 92 % 1020,3 hPa 0,0 mm 0,0 km/h (0 Bft) S 179 0 min 0,000 mm 0,0 UV-I 0 W/m 14,3 C 0,0 km/h (0 Bft)
15.08.2016 00:49 15,6 C 15,6 C 92 % 1020,3 hPa 0,0 mm 0,0 km/h (0 Bft) S 179 0 min 0,000 mm 0,0 UV-I 0 W/m 14,3 C 0,0 km/h (0 Bft)
15.08.2016 00:50 15,6 C 15,6 C 92 % 1020,3 hPa 0,0 mm 0,0 km/h (0 Bft) S 179 0 min 0,000 mm 0,0 UV-I 0 W/m 14,3 C 0,0 km/h (0 Bft)
15.08.2016 00:51 15,6 C 15,6 C 90 % 1020,3 hPa 0,0 mm 0,0 km/h (0 Bft) S 179 0 min 0,000 mm 0,0 UV-I 0 W/m 14,0 C 0,0 km/h (0 Bft)
15.08.2016 00:52 15,4 C 15,6 C 90 % 1020,2 hPa 0,0 mm 0,0 km/h (0 Bft) S 179 0 min 0,000 mm 0,0 UV-I 0 W/m 13,8 C 0,0 km/h (0 Bft)
15.08.2016 00:53 15,4 C 15,4 C 91 % 1020,2 hPa 0,0 mm 0,0 km/h (0 Bft) S 179 0 min 0,000 mm 0,0 UV-I 0 W/m 13,9 C 0,0 km/h (0 Bft)
15.08.2016 00:54 15,3 C 15,4 C 91 % 1020,1 hPa 0,0 mm 0,0 km/h (0 Bft) S 179 0 min 0,000 mm 0,0 UV-I 0 W/m 13,8 C 0,0 km/h (0 Bft)
15.08.2016 00:55 15,2 C 15,3 C 91 % 1020,1 hPa 0,0 mm 0,0 km/h (0 Bft) S 179 0 min 0,000 mm 0,0 UV-I 0 W/m 13,7 C 0,0 km/h (0 Bft)
15.08.2016 00:56 15,2 C 15,2 C 92 % 1020,1 hPa 0,0 mm 0,0 km/h (0 Bft) S 179 0 min 0,000 mm 0,0 UV-I 0 W/m 13,9 C 0,0 km/h (0 Bft)
15.08.2016 00:57 15,2 C 15,2 C 92 % 1020,1 hPa 0,0 mm 0,0 km/h (0 Bft) S 179 0 min 0,000 mm 0,0 UV-I 0 W/m 13,9 C 0,0 km/h (0 Bft)
15.08.2016 00:58 15,2 C 15,2 C 91 % 1020,1 hPa 0,0 mm 0,0 km/h (0 Bft) S 179 0 min 0,000 mm 0,0 UV-I 0 W/m 13,7 C 0,0 km/h (0 Bft)
15.08.2016 00:59 15,3 C 15,3 C 92 % 1020,1 hPa 0,0 mm 0,0 km/h (0 Bft) S 179 0 min 0,000 mm 0,0 UV-I 0 W/m 14,0 C 0,0 km/h (0 Bft)
15.08.2016 01:00 15,3 C 15,3 C 91 % 1020,1 hPa 0,0 mm 0,0 km/h (0 Bft) S 179 0 min 0,000 mm 0,0 UV-I 0 W/m 13,8 C 0,0 km/h (0 Bft)
15.08.2016 01:01 15,2 C 15,3 C 91 % 1020,1 hPa 0,0 mm 0,0 km/h (0 Bft) S 179 0 min 0,000 mm 0,0 UV-I 0 W/m 13,7 C 0,0 km/h (0 Bft)
15.08.2016 01:02 15,1 C 15,2 C 91 % 1020,1 hPa 0,0 mm 0,0 km/h (0 Bft) S 179 0 min 0,000 mm 0,0 UV-I 0 W/m 13,6 C 0,0 km/h (0 Bft)
15.08.2016 01:03 15,1 C 15,1 C 91 % 1020,1 hPa 0,0 mm 0,0 km/h (0 Bft) S 179 0 min 0,000 mm 0,0 UV-I 0 W/m 13,6 C 0,0 km/h (0 Bft)
15.08.2016 01:04 15,0 C 15,1 C 92 % 1020,1 hPa 0,0 mm 0,0 km/h (0 Bft) S 179 0 min 0,000 mm 0,0 UV-I 0 W/m 13,7 C 0,0 km/h (0 Bft)
15.08.2016 01:05 15,1 C 15,1 C 93 % 1020,1 hPa 0,0 mm 0,0 km/h (0 Bft) S 179 0 min 0,000 mm 0,0 UV-I 0 W/m 14,0 C 0,0 km/h (0 Bft)
15.08.2016 01:06 15,1 C 15,1 C 93 % 1020,1 hPa 0,0 mm 0,0 km/h (0 Bft) S 179 0 min 0,000 mm 0,0 UV-I 0 W/m 14,0 C 0,0 km/h (0 Bft)
15.08.2016 01:07 15,1 C 15,1 C 93 % 1020,1 hPa 0,0 mm 0,0 km/h (0 Bft) S 179 0 min 0,000 mm 0,0 UV-I 0 W/m 14,0 C 0,0 km/h (0 Bft)
15.08.2016 01:08 15,1 C 15,1 C 92 % 1020,1 hPa 0,0 mm 0,0 km/h (0 Bft) S 179 0 min 0,000 mm 0,0 UV-I 0 W/m 13,8 C 0,0 km/h (0 Bft)
15.08.2016 01:09 15,1 C 15,1 C 91 % 1020,0 hPa 0,0 mm 0,0 km/h (0 Bft) S 179 0 min 0,000 mm 0,0 UV-I 0 W/m 13,6 C 0,0 km/h (0 Bft)
15.08.2016 01:10 15,1 C 15,1 C 92 % 1020,0 hPa 0,0 mm 0,0 km/h (0 Bft) S 179 0 min 0,000 mm 0,0 UV-I 0 W/m 13,8 C 0,0 km/h (0 Bft)
15.08.2016 01:11 15,1 C 15,1 C 92 % 1020,0 hPa 0,0 mm 0,0 km/h (0 Bft) S 179 0 min 0,000 mm 0,0 UV-I 0 W/m 13,8 C 0,0 km/h (0 Bft)
15.08.2016 01:12 15,1 C 15,1 C 92 % 1020,0 hPa 0,0 mm 0,0 km/h (0 Bft) S 179 0 min 0,000 mm 0,0 UV-I 0 W/m 13,8 C 0,0 km/h (0 Bft)
15.08.2016 01:13 15,1 C 15,1 C 91 % 1020,0 hPa 0,0 mm 0,0 km/h (0 Bft) S 179 0 min 0,000 mm 0,0 UV-I 0 W/m 13,6 C 0,0 km/h (0 Bft)
15.08.2016 01:14 15,1 C 15,1 C 91 % 1020,0 hPa 0,0 mm 0,0 km/h (0 Bft) S 179 0 min 0,000 mm 0,0 UV-I 0 W/m 13,6 C 0,0 km/h (0 Bft)
15.08.2016 01:15 15,1 C 15,1 C 92 % 1020,0 hPa 0,0 mm 0,0 km/h (0 Bft) S 179 0 min 0,000 mm 0,0 UV-I 0 W/m 13,8 C 0,0 km/h (0 Bft)
15.08.2016 01:16 15,0 C 15,1 C 92 % 1020,0 hPa 0,0 mm 0,0 km/h (0 Bft) S 179 0 min 0,000 mm 0,0 UV-I 0 W/m 13,7 C 0,0 km/h (0 Bft)
15.08.2016 01:17 14,9 C 15,0 C 92 % 1020,0 hPa 0,0 mm 0,0 km/h (0 Bft) S 179 0 min 0,000 mm 0,0 UV-I 0 W/m 13,6 C 0,0 km/h (0 Bft)
15.08.2016 01:18 14,9 C 14,9 C 92 % 1019,9 hPa 0,0 mm 0,0 km/h (0 Bft) S 179 0 min 0,000 mm 0,0 UV-I 0 W/m 13,6 C 0,0 km/h (0 Bft)
15.08.2016 01:19 14,9 C 14,9 C 92 % 1019,9 hPa 0,0 mm 0,0 km/h (0 Bft) S 179 0 min 0,000 mm 0,0 UV-I 0 W/m 13,6 C 0,0 km/h (0 Bft)
15.08.2016 01:20 14,9 C 14,9 C 93 % 1019,8 hPa 0,0 mm 0,0 km/h (0 Bft) S 179 0 min 0,000 mm 0,0 UV-I 0 W/m 13,8 C 0,0 km/h (0 Bft)
15.08.2016 01:21 15,0 C 15,0 C 93 % 1019,8 hPa 0,0 mm 0,0 km/h (0 Bft) S 179 0 min 0,000 mm 0,0 UV-I 0 W/m 13,9 C 0,0 km/h (0 Bft)
15.08.2016 01:22 15,0 C 15,1 C 92 % 1019,8 hPa 0,0 mm 1,8 km/h (1 Bft) S 179 0 min 0,000 mm 0,0 UV-I 0 W/m 13,7 C 3,2 km/h (1 Bft)
15.08.2016 01:23 15,1 C 15,1 C 91 % 1019,8 hPa 0,0 mm 2,6 km/h (1 Bft) S 179 0 min 0,000 mm 0,0 UV-I 0 W/m 13,6 C 3,2 km/h (1 Bft)
15.08.2016 01:24 15,1 C 15,1 C 92 % 1019,8 hPa 0,0 mm 2,6 km/h (1 Bft) S 179 0 min 0,000 mm 0,0 UV-I 0 W/m 13,8 C 4,8 km/h (1 Bft)
15.08.2016 01:25 15,2 C 15,2 C 92 % 1019,8 hPa 0,0 mm 2,5 km/h (1 Bft) S 179 0 min 0,000 mm 0,0 UV-I 0 W/m 13,9 C 3,2 km/h (1 Bft)
15.08.2016 01:26 15,2 C 15,2 C 91 % 1019,8 hPa 0,0 mm 1,1 km/h (1 Bft) S 179 0 min 0,000 mm 0,0 UV-I 0 W/m 13,7 C 3,2 km/h (1 Bft)
15.08.2016 01:27 15,3 C 15,3 C 91 % 1019,8 hPa 0,0 mm 0,3 km/h (0 Bft) S 179 0 min 0,000 mm 0,0 UV-I 0 W/m 13,8 C 1,6 km/h (1 Bft)
15.08.2016 01:28 15,4 C 15,4 C 90 % 1019,8 hPa 0,0 mm 1,8 km/h (1 Bft) S 179 0 min 0,000 mm 0,0 UV-I 0 W/m 13,8 C 3,2 km/h (1 Bft)
15.08.2016 01:29 15,4 C 15,4 C 91 % 1019,7 hPa 0,0 mm 0,9 km/h (0 Bft) S 179 0 min 0,000 mm 0,0 UV-I 0 W/m 13,9 C 3,2 km/h (1 Bft)
15.08.2016 01:30 15,4 C 15,4 C 90 % 1019,8 hPa 0,0 mm 0,8 km/h (0 Bft) S 179 0 min 0,000 mm 0,0 UV-I 0 W/m 13,8 C 3,2 km/h (1 Bft)
15.08.2016 01:31 15,5 C 15,5 C 90 % 1019,8 hPa 0,0 mm 2,4 km/h (1 Bft) S 179 0 min 0,000 mm 0,0 UV-I 0 W/m 13,9 C 4,8 km/h (1 Bft)
15.08.2016 01:32 15,5 C 15,5 C 90 % 1019,7 hPa 0,0 mm 4,4 km/h (1 Bft) S-SW 194 0 min 0,000 mm 0,0 UV-I 0 W/m 13,9 C 8,0 km/h (2 Bft)
15.08.2016 01:33 15,5 C 15,5 C 90 % 1019,7 hPa 0,0 mm 4,9 km/h (1 Bft) S 181 0 min 0,000 mm 0,0 UV-I 0 W/m 13,9 C 6,4 km/h (2 Bft)
15.08.2016 01:34 15,4 C 15,5 C 90 % 1019,7 hPa 0,0 mm 3,2 km/h (1 Bft) S 180 0 min 0,000 mm 0,0 UV-I 0 W/m 13,8 C 4,8 km/h (1 Bft)
15.08.2016 01:35 15,4 C 15,4 C 90 % 1019,8 hPa 0,0 mm 5,8 km/h (2 Bft) S-SW 197 0 min 0,000 mm 0,0 UV-I 0 W/m 13,8 C 8,0 km/h (2 Bft)
15.08.2016 01:36 15,4 C 15,4 C 90 % 1019,8 hPa 0,0 mm 4,1 km/h (1 Bft) S-SO 166 0 min 0,000 mm 0,0 UV-I 0 W/m 13,8 C 6,4 km/h (2 Bft)
15.08.2016 01:37 15,3 C 15,4 C 90 % 1019,7 hPa 0,0 mm 4,6 km/h (1 Bft) S-SO 166 0 min 0,000 mm 0,0 UV-I 0 W/m 13,7 C 6,4 km/h (2 Bft)
15.08.2016 01:38 15,3 C 15,3 C 91 % 1019,7 hPa 0,0 mm 2,4 km/h (1 Bft) S-SO 166 0 min 0,000 mm 0,0 UV-I 0 W/m 13,8 C 4,8 km/h (1 Bft)
15.08.2016 01:39 15,3 C 15,4 C 91 % 1019,7 hPa 0,0 mm 2,3 km/h (1 Bft) S-SO 166 0 min 0,000 mm 0,0 UV-I 0 W/m 13,8 C 4,8 km/h (1 Bft)
15.08.2016 01:40 15,4 C 15,4 C 91 % 1019,7 hPa 0,0 mm 3,9 km/h (1 Bft) S-SO 166 0 min 0,000 mm 0,0 UV-I 0 W/m 13,9 C 4,8 km/h (1 Bft)
15.08.2016 01:41 15,4 C 15,4 C 91 % 1019,7 hPa 0,0 mm 3,3 km/h (1 Bft) S-SO 166 0 min 0,000 mm 0,0 UV-I 0 W/m 13,9 C 4,8 km/h (1 Bft)
15.08.2016 01:42 15,5 C 15,5 C 91 % 1019,8 hPa 0,0 mm 1,9 km/h (1 Bft) S-SO 166 0 min 0,000 mm 0,0 UV-I 0 W/m 14,0 C 4,8 km/h (1 Bft)
15.08.2016 01:43 15,6 C 15,6 C 91 % 1019,7 hPa 0,0 mm 2,7 km/h (1 Bft) S-SO 166 0 min 0,000 mm 0,0 UV-I 0 W/m 14,1 C 4,8 km/h (1 Bft)
15.08.2016 01:44 15,7 C 15,7 C 90 % 1019,8 hPa 0,0 mm 2,4 km/h (1 Bft) S-SO 166 0 min 0,000 mm 0,0 UV-I 0 W/m 14,1 C 4,8 km/h (1 Bft)
15.08.2016 01:45 15,7 C 15,7 C 90 % 1019,8 hPa 0,0 mm 3,0 km/h (1 Bft) S-SO 166 0 min 0,000 mm 0,0 UV-I 0 W/m 14,1 C 4,8 km/h (1 Bft)
15.08.2016 01:46 15,7 C 15,7 C 89 % 1019,8 hPa 0,0 mm 3,2 km/h (1 Bft) S-SO 166 0 min 0,000 mm 0,0 UV-I 0 W/m 13,9 C 6,4 km/h (2 Bft)
15.08.2016 01:47 15,6 C 15,7 C 89 % 1019,8 hPa 0,0 mm 1,5 km/h (1 Bft) S-SO 166 0 min 0,000 mm 0,0 UV-I 0 W/m 13,8 C 4,8 km/h (1 Bft)
15.08.2016 01:48 15,6 C 15,6 C 89 % 1019,8 hPa 0,0 mm 1,7 km/h (1 Bft) S-SO 166 0 min 0,000 mm 0,0 UV-I 0 W/m 13,8 C 4,8 km/h (1 Bft)
15.08.2016 01:49 15,5 C 15,6 C 90 % 1019,7 hPa 0,0 mm 1,6 km/h (1 Bft) S-SO 166 0 min 0,000 mm 0,0 UV-I 0 W/m 13,9 C 1,6 km/h (1 Bft)
15.08.2016 01:50 15,4 C 15,5 C 90 % 1019,7 hPa 0,0 mm 1,3 km/h (1 Bft) S-SO 166 0 min 0,000 mm 0,0 UV-I 0 W/m 13,8 C 4,8 km/h (1 Bft)
15.08.2016 01:51 15,4 C 15,4 C 90 % 1019,7 hPa 0,0 mm 1,9 km/h (1 Bft) S-SO 166 0 min 0,000 mm 0,0 UV-I 0 W/m 13,8 C 4,8 km/h (1 Bft)
15.08.2016 01:52 15,5 C 15,5 C 91 % 1019,7 hPa 0,0 mm 2,3 km/h (1 Bft) S-SO 166 0 min 0,000 mm 0,0 UV-I 0 W/m 14,0 C 4,8 km/h (1 Bft)
15.08.2016 01:53 15,6 C 15,6 C 91 % 1019,7 hPa 0,0 mm 2,5 km/h (1 Bft) S-SO 166 0 min 0,000 mm 0,0 UV-I 0 W/m 14,1 C 4,8 km/h (1 Bft)
15.08.2016 01:54 15,6 C 15,6 C 91 % 1019,7 hPa 0,0 mm 3,5 km/h (1 Bft) S-SO 166 0 min 0,000 mm 0,0 UV-I 0 W/m 14,1 C 4,8 km/h (1 Bft)
15.08.2016 01:55 15,6 C 15,6 C 91 % 1019,7 hPa 0,0 mm 3,5 km/h (1 Bft) S-SO 165 0 min 0,000 mm 0,0 UV-I 0 W/m 14,1 C 4,8 km/h (1 Bft)
15.08.2016 01:56 15,6 C 15,6 C 90 % 1019,7 hPa 0,0 mm 2,7 km/h (1 Bft) S-SO 165 0 min 0,000 mm 0,0 UV-I 0 W/m 14,0 C 3,2 km/h (1 Bft)
15.08.2016 01:57 15,6 C 15,6 C 90 % 1019,6 hPa 0,0 mm 2,4 km/h (1 Bft) S-SO 165 0 min 0,000 mm 0,0 UV-I 0 W/m 14,0 C 3,2 km/h (1 Bft)
15.08.2016 01:58 15,7 C 15,7 C 90 % 1019,6 hPa 0,0 mm 2,0 km/h (1 Bft) S-SO 165 0 min 0,000 mm 0,0 UV-I 0 W/m 14,1 C 3,2 km/h (1 Bft)
15.08.2016 01:59 15,7 C 15,7 C 90 % 1019,6 hPa 0,0 mm 1,6 km/h (1 Bft) S-SO 165 0 min 0,000 mm 0,0 UV-I 0 W/m 14,1 C 1,6 km/h (1 Bft)
15.08.2016 02:00 15,7 C 15,7 C 90 % 1019,6 hPa 0,0 mm 1,7 km/h (1 Bft) S-SO 165 0 min 0,000 mm 0,0 UV-I 0 W/m 14,1 C 3,2 km/h (1 Bft)
15.08.2016 02:01 15,6 C 15,7 C 90 % 1019,6 hPa 0,0 mm 1,5 km/h (1 Bft) S-SO 165 0 min 0,000 mm 0,0 UV-I 0 W/m 14,0 C 3,2 km/h (1 Bft)
15.08.2016 02:02 15,6 C 15,7 C 90 % 1019,6 hPa 0,0 mm 1,7 km/h (1 Bft) S-SO 165 0 min 0,000 mm 0,0 UV-I 0 W/m 14,0 C 3,2 km/h (1 Bft)
15.08.2016 02:03 15,6 C 15,7 C 90 % 1019,6 hPa 0,0 mm 1,5 km/h (1 Bft) S-SO 165 0 min 0,000 mm 0,0 UV-I 0 W/m 14,0 C 3,2 km/h (1 Bft)
15.08.2016 02:04 15,6 C 15,6 C 90 % 1019,5 hPa 0,0 mm 0,9 km/h (0 Bft) S-SO 165 0 min 0,000 mm 0,0 UV-I 0 W/m 14,0 C 1,6 km/h (1 Bft)
15.08.2016 02:05 15,6 C 15,6 C 90 % 1019,5 hPa 0,0 mm 0,5 km/h (0 Bft) S-SO 165 0 min 0,000 mm 0,0 UV-I 0 W/m 14,0 C 1,6 km/h (1 Bft)
15.08.2016 02:06 15,6 C 15,6 C 90 % 1019,5 hPa 0,0 mm 1,0 km/h (0 Bft) S-SO 165 0 min 0,000 mm 0,0 UV-I 0 W/m 14,0 C 1,6 km/h (1 Bft)
15.08.2016 02:07 15,6 C 15,6 C 90 % 1019,5 hPa 0,0 mm 0,1 km/h (0 Bft) S-SO 165 0 min 0,000 mm 0,0 UV-I 0 W/m 14,0 C 1,6 km/h (1 Bft)
15.08.2016 02:08 15,5 C 15,6 C 90 % 1019,5 hPa 0,0 mm 0,2 km/h (0 Bft) S-SO 165 0 min 0,000 mm 0,0 UV-I 0 W/m 13,9 C 1,6 km/h (1 Bft)
15.08.2016 02:09 15,4 C 15,5 C 90 % 1019,5 hPa 0,0 mm 0,2 km/h (0 Bft) S-SO 165 0 min 0,000 mm 0,0 UV-I 0 W/m 13,8 C 1,6 km/h (1 Bft)
15.08.2016 02:10 15,3 C 15,4 C 90 % 1019,5 hPa 0,0 mm 0,1 km/h (0 Bft) S-SO 165 0 min 0,000 mm 0,0 UV-I 0 W/m 13,7 C 1,6 km/h (1 Bft)
15.08.2016 02:11 15,3 C 15,3 C 90 % 1019,5 hPa 0,0 mm 0,0 km/h (0 Bft) S-SO 165 0 min 0,000 mm 0,0 UV-I 0 W/m 13,7 C 0,0 km/h (0 Bft)
15.08.2016 02:12 15,3 C 15,3 C 91 % 1019,5 hPa 0,0 mm 0,0 km/h (0 Bft) S-SO 165 0 min 0,000 mm 0,0 UV-I 0 W/m 13,8 C 0,0 km/h (0 Bft)
15.08.2016 02:13 15,2 C 15,3 C 91 % 1019,5 hPa 0,0 mm 0,0 km/h (0 Bft) S-SO 165 0 min 0,000 mm 0,0 UV-I 0 W/m 13,7 C 0,0 km/h (0 Bft)
15.08.2016 02:14 15,2 C 15,2 C 91 % 1019,5 hPa 0,0 mm 0,0 km/h (0 Bft) S-SO 165 0 min 0,000 mm 0,0 UV-I 0 W/m 13,7 C 0,0 km/h (0 Bft)
15.08.2016 02:15 15,1 C 15,2 C 90 % 1019,6 hPa 0,0 mm 0,8 km/h (0 Bft) S-SO 165 0 min 0,000 mm 0,0 UV-I 0 W/m 13,5 C 1,6 km/h (1 Bft)
15.08.2016 02:16 14,9 C 15,1 C 90 % 1019,5 hPa 0,0 mm 0,3 km/h (0 Bft) S-SO 165 0 min 0,000 mm 0,0 UV-I 0 W/m 13,3 C 1,6 km/h (1 Bft)
15.08.2016 02:17 14,9 C 14,9 C 91 % 1019,5 hPa 0,0 mm 0,5 km/h (0 Bft) S-SO 165 0 min 0,000 mm 0,0 UV-I 0 W/m 13,4 C 1,6 km/h (1 Bft)
15.08.2016 02:18 14,9 C 14,9 C 92 % 1019,6 hPa 0,0 mm 0,7 km/h (0 Bft) S-SO 165 0 min 0,000 mm 0,0 UV-I 0 W/m 13,6 C 1,6 km/h (1 Bft)
15.08.2016 02:19 14,8 C 14,9 C 92 % 1019,6 hPa 0,0 mm 1,6 km/h (1 Bft) S-SO 165 0 min 0,000 mm 0,0 UV-I 0 W/m 13,5 C 1,6 km/h (1 Bft)
15.08.2016 02:20 14,9 C 14,9 C 92 % 1019,5 hPa 0,0 mm 1,4 km/h (1 Bft) S-SO 165 0 min 0,000 mm 0,0 UV-I 0 W/m 13,6 C 3,2 km/h (1 Bft)
15.08.2016 02:21 14,9 C 14,9 C 93 % 1019,6 hPa 0,0 mm 1,0 km/h (0 Bft) S-SO 165 0 min 0,000 mm 0,0 UV-I 0 W/m 13,8 C 1,6 km/h (1 Bft)
15.08.2016 02:22 14,9 C 14,9 C 92 % 1019,6 hPa 0,0 mm 1,3 km/h (1 Bft) S-SO 165 0 min 0,000 mm 0,0 UV-I 0 W/m 13,6 C 1,6 km/h (1 Bft)
15.08.2016 02:23 14,9 C 14,9 C 93 % 1019,6 hPa 0,0 mm 1,3 km/h (1 Bft) S-SO 165 0 min 0,000 mm 0,0 UV-I 0 W/m 13,8 C 1,6 km/h (1 Bft)
15.08.2016 02:24 14,9 C 14,9 C 93 % 1019,6 hPa 0,0 mm 1,2 km/h (1 Bft) S-SO 165 0 min 0,000 mm 0,0 UV-I 0 W/m 13,8 C 1,6 km/h (1 Bft)
15.08.2016 02:25 14,9 C 15,0 C 93 % 1019,6 hPa 0,0 mm 0,9 km/h (0 Bft) S-SO 165 0 min 0,000 mm 0,0 UV-I 0 W/m 13,8 C 1,6 km/h (1 Bft)
15.08.2016 02:26 14,9 C 15,0 C 92 % 1019,5 hPa 0,0 mm 0,6 km/h (0 Bft) S-SO 165 0 min 0,000 mm 0,0 UV-I 0 W/m 13,6 C 1,6 km/h (1 Bft)
15.08.2016 02:27 14,9 C 14,9 C 92 % 1019,5 hPa 0,0 mm 0,9 km/h (0 Bft) S-SO 165 0 min 0,000 mm 0,0 UV-I 0 W/m 13,6 C 1,6 km/h (1 Bft)
15.08.2016 02:28 14,8 C 14,9 C 91 % 1019,5 hPa 0,0 mm 0,7 km/h (0 Bft) S-SO 166 0 min 0,000 mm 0,0 UV-I 0 W/m 13,3 C 1,6 km/h (1 Bft)
15.08.2016 02:29 14,7 C 14,8 C 91 % 1019,5 hPa 0,0 mm 0,5 km/h (0 Bft) S-SO 166 0 min 0,000 mm 0,0 UV-I 0 W/m 13,2 C 1,6 km/h (1 Bft)
15.08.2016 02:30 14,7 C 14,7 C 92 % 1019,5 hPa 0,0 mm 2,1 km/h (1 Bft) S-SO 166 0 min 0,000 mm 0,0 UV-I 0 W/m 13,4 C 4,8 km/h (1 Bft)
15.08.2016 02:31 14,7 C 14,7 C 92 % 1019,5 hPa 0,0 mm 0,3 km/h (0 Bft) S-SO 166 0 min 0,000 mm 0,0 UV-I 0 W/m 13,4 C 1,6 km/h (1 Bft)
15.08.2016 02:32 14,7 C 14,7 C 92 % 1019,5 hPa 0,0 mm 0,1 km/h (0 Bft) S-SO 166 0 min 0,000 mm 0,0 UV-I 0 W/m 13,4 C 1,6 km/h (1 Bft)
15.08.2016 02:33 14,6 C 14,7 C 92 % 1019,5 hPa 0,0 mm 0,0 km/h (0 Bft) S-SO 166 0 min 0,000 mm 0,0 UV-I 0 W/m 13,3 C 0,0 km/h (0 Bft)
15.08.2016 02:34 14,6 C 14,6 C 92 % 1019,5 hPa 0,0 mm 0,0 km/h (0 Bft) S-SO 166 0 min 0,000 mm 0,0 UV-I 0 W/m 13,3 C 0,0 km/h (0 Bft)
15.08.2016 02:35 14,6 C 14,6 C 92 % 1019,5 hPa 0,0 mm 0,2 km/h (0 Bft) S-SO 166 0 min 0,000 mm 0,0 UV-I 0 W/m 13,3 C 1,6 km/h (1 Bft)
15.08.2016 02:36 14,5 C 14,6 C 92 % 1019,5 hPa 0,0 mm 2,3 km/h (1 Bft) S-SO 166 0 min 0,000 mm 0,0 UV-I 0 W/m 13,2 C 4,8 km/h (1 Bft)
15.08.2016 02:37 14,4 C 14,5 C 92 % 1019,5 hPa 0,0 mm 1,6 km/h (1 Bft) S-SO 166 0 min 0,000 mm 0,0 UV-I 0 W/m 13,1 C 4,8 km/h (1 Bft)
15.08.2016 02:38 14,4 C 14,4 C 91 % 1019,4 hPa 0,0 mm 0,0 km/h (0 Bft) S-SO 166 0 min 0,000 mm 0,0 UV-I 0 W/m 12,9 C 0,0 km/h (0 Bft)
15.08.2016 02:39 14,3 C 14,4 C 92 % 1019,4 hPa 0,0 mm 0,1 km/h (0 Bft) S-SO 166 0 min 0,000 mm 0,0 UV-I 0 W/m 13,0 C 1,6 km/h (1 Bft)
15.08.2016 02:40 14,3 C 14,3 C 92 % 1019,5 hPa 0,0 mm 0,0 km/h (0 Bft) S-SO 166 0 min 0,000 mm 0,0 UV-I 0 W/m 13,0 C 0,0 km/h (0 Bft)
15.08.2016 02:41 14,3 C 14,3 C 93 % 1019,5 hPa 0,0 mm 0,0 km/h (0 Bft) S-SO 166 0 min 0,000 mm 0,0 UV-I 0 W/m 13,2 C 0,0 km/h (0 Bft)
15.08.2016 02:42 14,3 C 14,3 C 93 % 1019,5 hPa 0,0 mm 0,3 km/h (0 Bft) S-SO 166 0 min 0,000 mm 0,0 UV-I 0 W/m 13,2 C 1,6 km/h (1 Bft)
15.08.2016 02:43 14,3 C 14,3 C 93 % 1019,5 hPa 0,0 mm 0,0 km/h (0 Bft) S-SO 166 0 min 0,000 mm 0,0 UV-I 0 W/m 13,2 C 0,0 km/h (0 Bft)
15.08.2016 02:44 14,3 C 14,3 C 94 % 1019,5 hPa 0,0 mm 0,0 km/h (0 Bft) S-SO 166 0 min 0,000 mm 0,0 UV-I 0 W/m 13,3 C 0,0 km/h (0 Bft)
15.08.2016 02:45 14,4 C 14,4 C 94 % 1019,4 hPa 0,0 mm 0,0 km/h (0 Bft) S-SO 166 0 min 0,000 mm 0,0 UV-I 0 W/m 13,4 C 0,0 km/h (0 Bft)
15.08.2016 02:46 14,3 C 14,4 C 93 % 1019,4 hPa 0,0 mm 0,0 km/h (0 Bft) S-SO 166 0 min 0,000 mm 0,0 UV-I 0 W/m 13,2 C 0,0 km/h (0 Bft)
15.08.2016 02:47 14,3 C 14,3 C 93 % 1019,4 hPa 0,0 mm 0,0 km/h (0 Bft) S-SO 166 0 min 0,000 mm 0,0 UV-I 0 W/m 13,2 C 0,0 km/h (0 Bft)
15.08.2016 02:48 14,3 C 14,4 C 94 % 1019,4 hPa 0,0 mm 0,0 km/h (0 Bft) S-SO 166 0 min 0,000 mm 0,0 UV-I 0 W/m 13,3 C 0,0 km/h (0 Bft)
15.08.2016 02:49 14,3 C 14,4 C 93 % 1019,4 hPa 0,0 mm 0,0 km/h (0 Bft) S-SO 166 0 min 0,000 mm 0,0 UV-I 0 W/m 13,2 C 0,0 km/h (0 Bft)
15.08.2016 02:50 14,3 C 14,3 C 93 % 1019,4 hPa 0,0 mm 0,0 km/h (0 Bft) S-SO 166 0 min 0,000 mm 0,0 UV-I 0 W/m 13,2 C 0,0 km/h (0 Bft)
15.08.2016 02:51 14,2 C 14,3 C 93 % 1019,4 hPa 0,0 mm 0,0 km/h (0 Bft) S-SO 166 0 min 0,000 mm 0,0 UV-I 0 W/m 13,1 C 0,0 km/h (0 Bft)
15.08.2016 02:52 14,2 C 14,2 C 93 % 1019,4 hPa 0,0 mm 0,0 km/h (0 Bft) S-SO 166 0 min 0,000 mm 0,0 UV-I 0 W/m 13,1 C 0,0 km/h (0 Bft)
15.08.2016 02:53 14,2 C 14,2 C 94 % 1019,4 hPa 0,0 mm 0,0 km/h (0 Bft) S-SO 166 0 min 0,000 mm 0,0 UV-I 0 W/m 13,2 C 0,0 km/h (0 Bft)
15.08.2016 02:54 14,2 C 14,2 C 94 % 1019,4 hPa 0,0 mm 0,0 km/h (0 Bft) S-SO 166 0 min 0,000 mm 0,0 UV-I 0 W/m 13,2 C 0,0 km/h (0 Bft)
15.08.2016 02:55 14,2 C 14,2 C 94 % 1019,4 hPa 0,0 mm 0,0 km/h (0 Bft) S-SO 166 0 min 0,000 mm 0,0 UV-I 0 W/m 13,2 C 0,0 km/h (0 Bft)
15.08.2016 02:56 14,1 C 14,2 C 94 % 1019,4 hPa 0,0 mm 0,0 km/h (0 Bft) S-SO 166 0 min 0,000 mm 0,0 UV-I 0 W/m 13,1 C 0,0 km/h (0 Bft)
15.08.2016 02:57 14,1 C 14,1 C 94 % 1019,4 hPa 0,0 mm 0,0 km/h (0 Bft) S-SO 166 0 min 0,000 mm 0,0 UV-I 0 W/m 13,1 C 0,0 km/h (0 Bft)
15.08.2016 02:58 14,1 C 14,1 C 94 % 1019,4 hPa 0,0 mm 0,0 km/h (0 Bft) S-SO 166 0 min 0,000 mm 0,0 UV-I 0 W/m 13,1 C 0,0 km/h (0 Bft)
15.08.2016 02:59 14,1 C 14,1 C 94 % 1019,4 hPa 0,0 mm 0,0 km/h (0 Bft) S-SO 166 0 min 0,000 mm 0,0 UV-I 0 W/m 13,1 C 0,0 km/h (0 Bft)
15.08.2016 03:00 14,0 C 14,1 C 94 % 1019,4 hPa 0,0 mm 0,0 km/h (0 Bft) S-SO 166 0 min 0,000 mm 0,0 UV-I 0 W/m 13,0 C 0,0 km/h (0 Bft)
15.08.2016 03:01 14,0 C 14,1 C 94 % 1019,4 hPa 0,0 mm 0,1 km/h (0 Bft) S-SO 166 0 min 0,000 mm 0,0 UV-I 0 W/m 13,0 C 1,6 km/h (1 Bft)
15.08.2016 03:02 14,0 C 14,0 C 94 % 1019,4 hPa 0,0 mm 0,5 km/h (0 Bft) S-SO 166 0 min 0,000 mm 0,0 UV-I 0 W/m 13,0 C 1,6 km/h (1 Bft)
15.08.2016 03:03 13,9 C 14,0 C 94 % 1019,4 hPa 0,0 mm 0,0 km/h (0 Bft) S-SO 166 0 min 0,000 mm 0,0 UV-I 0 W/m 12,9 C 0,0 km/h (0 Bft)
15.08.2016 03:04 13,9 C 13,9 C 94 % 1019,4 hPa 0,0 mm 0,1 km/h (0 Bft) S-SO 166 0 min 0,000 mm 0,0 UV-I 0 W/m 12,9 C 1,6 km/h (1 Bft)
15.08.2016 03:05 14,1 C 14,1 C 94 % 1019,4 hPa 0,0 mm 0,7 km/h (0 Bft) S-SO 166 0 min 0,000 mm 0,0 UV-I 0 W/m 13,1 C 1,6 km/h (1 Bft)
15.08.2016 03:06 14,1 C 14,1 C 95 % 1019,4 hPa 0,0 mm 0,0 km/h (0 Bft) S-SO 166 0 min 0,000 mm 0,0 UV-I 0 W/m 13,3 C 0,0 km/h (0 Bft)
15.08.2016 03:07 13,9 C 14,1 C 94 % 1019,4 hPa 0,0 mm 0,1 km/h (0 Bft) S-SO 166 0 min 0,000 mm 0,0 UV-I 0 W/m 12,9 C 1,6 km/h (1 Bft)
15.08.2016 03:08 13,8 C 13,9 C 94 % 1019,4 hPa 0,0 mm 0,1 km/h (0 Bft) S-SO 166 0 min 0,000 mm 0,0 UV-I 0 W/m 12,9 C 1,6 km/h (1 Bft)
15.08.2016 03:09 13,8 C 13,8 C 94 % 1019,5 hPa 0,0 mm 0,0 km/h (0 Bft) S-SO 166 0 min 0,000 mm 0,0 UV-I 0 W/m 12,9 C 0,0 km/h (0 Bft)
15.08.2016 03:10 13,7 C 13,8 C 94 % 1019,5 hPa 0,0 mm 0,0 km/h (0 Bft) S-SO 166 0 min 0,000 mm 0,0 UV-I 0 W/m 12,8 C 0,0 km/h (0 Bft)
15.08.2016 03:11 13,7 C 13,7 C 94 % 1019,4 hPa 0,0 mm 0,0 km/h (0 Bft) S-SO 166 0 min 0,000 mm 0,0 UV-I 0 W/m 12,8 C 0,0 km/h (0 Bft)
15.08.2016 03:12 13,7 C 13,7 C 94 % 1019,4 hPa 0,0 mm 0,0 km/h (0 Bft) S-SO 166 0 min 0,000 mm 0,0 UV-I 0 W/m 12,8 C 0,0 km/h (0 Bft)
15.08.2016 03:13 13,6 C 13,7 C 93 % 1019,4 hPa 0,0 mm 0,0 km/h (0 Bft) S-SO 166 0 min 0,000 mm 0,0 UV-I 0 W/m 12,5 C 0,0 km/h (0 Bft)
15.08.2016 03:14 13,6 C 13,6 C 94 % 1019,4 hPa 0,0 mm 0,0 km/h (0 Bft) S-SO 166 0 min 0,000 mm 0,0 UV-I 0 W/m 12,7 C 0,0 km/h (0 Bft)
15.08.2016 03:15 13,6 C 13,6 C 94 % 1019,4 hPa 0,0 mm 0,0 km/h (0 Bft) S-SO 166 0 min 0,000 mm 0,0 UV-I 0 W/m 12,7 C 0,0 km/h (0 Bft)
15.08.2016 03:16 13,6 C 13,6 C 94 % 1019,4 hPa 0,0 mm 0,0 km/h (0 Bft) S-SO 166 0 min 0,000 mm 0,0 UV-I 0 W/m 12,7 C 0,0 km/h (0 Bft)
15.08.2016 03:17 13,6 C 13,6 C 94 % 1019,4 hPa 0,0 mm 0,9 km/h (0 Bft) S-SO 166 0 min 0,000 mm 0,0 UV-I 0 W/m 12,7 C 1,6 km/h (1 Bft)
15.08.2016 03:18 13,6 C 13,6 C 95 % 1019,4 hPa 0,0 mm 2,4 km/h (1 Bft) S-SO 166 0 min 0,000 mm 0,0 UV-I 0 W/m 12,8 C 4,8 km/h (1 Bft)
15.08.2016 03:19 13,6 C 13,6 C 95 % 1019,4 hPa 0,0 mm 0,8 km/h (0 Bft) S-SO 166 0 min 0,000 mm 0,0 UV-I 0 W/m 12,8 C 1,6 km/h (1 Bft)
15.08.2016 03:20 13,6 C 13,6 C 95 % 1019,4 hPa 0,0 mm 0,3 km/h (0 Bft) S-SO 166 0 min 0,000 mm 0,0 UV-I 0 W/m 12,8 C 1,6 km/h (1 Bft)
15.08.2016 03:21 13,7 C 13,7 C 95 % 1019,4 hPa 0,0 mm 0,5 km/h (0 Bft) S-SO 166 0 min 0,000 mm 0,0 UV-I 0 W/m 12,9 C 1,6 km/h (1 Bft)
15.08.2016 03:22 13,7 C 13,7 C 95 % 1019,4 hPa 0,0 mm 0,0 km/h (0 Bft) S-SO 166 0 min 0,000 mm 0,0 UV-I 0 W/m 12,9 C 0,0 km/h (0 Bft)
15.08.2016 03:23 13,8 C 13,8 C 95 % 1019,4 hPa 0,0 mm 0,0 km/h (0 Bft) S-SO 166 0 min 0,000 mm 0,0 UV-I 0 W/m 13,0 C 0,0 km/h (0 Bft)
15.08.2016 03:24 13,7 C 13,8 C 95 % 1019,4 hPa 0,0 mm 0,0 km/h (0 Bft) S-SO 166 0 min 0,000 mm 0,0 UV-I 0 W/m 12,9 C 0,0 km/h (0 Bft)
15.08.2016 03:25 13,7 C 13,7 C 94 % 1019,4 hPa 0,0 mm 0,0 km/h (0 Bft) S-SO 166 0 min 0,000 mm 0,0 UV-I 0 W/m 12,8 C 0,0 km/h (0 Bft)
15.08.2016 03:26 13,7 C 13,7 C 94 % 1019,4 hPa 0,0 mm 0,0 km/h (0 Bft) S-SO 166 0 min 0,000 mm 0,0 UV-I 0 W/m 12,8 C 0,0 km/h (0 Bft)
15.08.2016 03:27 13,7 C 13,7 C 94 % 1019,4 hPa 0,0 mm 0,0 km/h (0 Bft) S-SO 166 0 min 0,000 mm 0,0 UV-I 0 W/m 12,8 C 0,0 km/h (0 Bft)
15.08.2016 03:28 13,7 C 13,7 C 94 % 1019,4 hPa 0,0 mm 0,4 km/h (0 Bft) S-SO 166 0 min 0,000 mm 0,0 UV-I 0 W/m 12,8 C 1,6 km/h (1 Bft)
15.08.2016 03:29 13,7 C 13,7 C 94 % 1019,4 hPa 0,0 mm 0,0 km/h (0 Bft) S-SO 166 0 min 0,000 mm 0,0 UV-I 0 W/m 12,8 C 0,0 km/h (0 Bft)
15.08.2016 03:30 13,6 C 13,7 C 94 % 1019,4 hPa 0,0 mm 0,0 km/h (0 Bft) S-SO 166 0 min 0,000 mm 0,0 UV-I 0 W/m 12,7 C 0,0 km/h (0 Bft)
15.08.2016 03:31 13,5 C 13,6 C 94 % 1019,4 hPa 0,0 mm 0,0 km/h (0 Bft) S-SO 166 0 min 0,000 mm 0,0 UV-I 0 W/m 12,6 C 0,0 km/h (0 Bft)
15.08.2016 03:32 13,5 C 13,5 C 94 % 1019,4 hPa 0,0 mm 0,1 km/h (0 Bft) S-SO 166 0 min 0,000 mm 0,0 UV-I 0 W/m 12,6 C 1,6 km/h (1 Bft)
15.08.2016 03:33 13,6 C 13,6 C 95 % 1019,3 hPa 0,0 mm 0,9 km/h (0 Bft) S-SO 166 0 min 0,000 mm 0,0 UV-I 0 W/m 12,8 C 1,6 km/h (1 Bft)
15.08.2016 03:34 13,6 C 13,6 C 95 % 1019,4 hPa 0,0 mm 0,5 km/h (0 Bft) S-SO 166 0 min 0,000 mm 0,0 UV-I 0 W/m 12,8 C 1,6 km/h (1 Bft)
15.08.2016 03:35 13,6 C 13,6 C 95 % 1019,4 hPa 0,0 mm 0,0 km/h (0 Bft) S-SO 166 0 min 0,000 mm 0,0 UV-I 0 W/m 12,8 C 0,0 km/h (0 Bft)
15.08.2016 03:36 13,6 C 13,7 C 94 % 1019,4 hPa 0,0 mm 0,0 km/h (0 Bft) S-SO 166 0 min 0,000 mm 0,0 UV-I 0 W/m 12,7 C 0,0 km/h (0 Bft)
15.08.2016 03:37 13,5 C 13,6 C 94 % 1019,4 hPa 0,0 mm 0,0 km/h (0 Bft) S-SO 166 0 min 0,000 mm 0,0 UV-I 0 W/m 12,6 C 0,0 km/h (0 Bft)
15.08.2016 03:38 13,4 C 13,5 C 93 % 1019,4 hPa 0,0 mm 0,0 km/h (0 Bft) S-SO 166 0 min 0,000 mm 0,0 UV-I 0 W/m 12,3 C 0,0 km/h (0 Bft)
15.08.2016 03:39 13,4 C 13,4 C 94 % 1019,4 hPa 0,0 mm 0,0 km/h (0 Bft) S-SO 166 0 min 0,000 mm 0,0 UV-I 0 W/m 12,5 C 0,0 km/h (0 Bft)
15.08.2016 03:40 13,2 C 13,4 C 93 % 1019,4 hPa 0,0 mm 0,0 km/h (0 Bft) S-SO 166 0 min 0,000 mm 0,0 UV-I 0 W/m 12,1 C 0,0 km/h (0 Bft)
15.08.2016 03:41 13,2 C 13,3 C 93 % 1019,4 hPa 0,0 mm 0,0 km/h (0 Bft) S-SO 166 0 min 0,000 mm 0,0 UV-I 0 W/m 12,1 C 0,0 km/h (0 Bft)
15.08.2016 03:42 13,1 C 13,2 C 93 % 1019,3 hPa 0,0 mm 0,0 km/h (0 Bft) S-SO 166 0 min 0,000 mm 0,0 UV-I 0 W/m 12,0 C 0,0 km/h (0 Bft)
15.08.2016 03:43 13,1 C 13,1 C 94 % 1019,3 hPa 0,0 mm 0,0 km/h (0 Bft) S-SO 166 0 min 0,000 mm 0,0 UV-I 0 W/m 12,2 C 0,0 km/h (0 Bft)
15.08.2016 03:44 13,1 C 13,1 C 94 % 1019,3 hPa 0,0 mm 0,0 km/h (0 Bft) S-SO 166 0 min 0,000 mm 0,0 UV-I 0 W/m 12,2 C 0,0 km/h (0 Bft)
15.08.2016 03:45 13,2 C 13,2 C 94 % 1019,3 hPa 0,0 mm 0,0 km/h (0 Bft) S-SO 166 0 min 0,000 mm 0,0 UV-I 0 W/m 12,3 C 0,0 km/h (0 Bft)
15.08.2016 03:46 13,2 C 13,2 C 95 % 1019,4 hPa 0,0 mm 0,0 km/h (0 Bft) S-SO 166 0 min 0,000 mm 0,0 UV-I 0 W/m 12,4 C 0,0 km/h (0 Bft)
15.08.2016 03:47 13,1 C 13,2 C 94 % 1019,4 hPa 0,0 mm 0,0 km/h (0 Bft) S-SO 166 0 min 0,000 mm 0,0 UV-I 0 W/m 12,2 C 0,0 km/h (0 Bft)
15.08.2016 03:48 13,1 C 13,2 C 94 % 1019,4 hPa 0,0 mm 0,0 km/h (0 Bft) S-SO 166 0 min 0,000 mm 0,0 UV-I 0 W/m 12,2 C 0,0 km/h (0 Bft)
15.08.2016 03:49 13,1 C 13,1 C 94 % 1019,4 hPa 0,0 mm 0,0 km/h (0 Bft) S-SO 166 0 min 0,000 mm 0,0 UV-I 0 W/m 12,2 C 0,0 km/h (0 Bft)
15.08.2016 03:50 13,1 C 13,1 C 94 % 1019,4 hPa 0,0 mm 0,0 km/h (0 Bft) S-SO 166 0 min 0,000 mm 0,0 UV-I 0 W/m 12,2 C 0,0 km/h (0 Bft)
15.08.2016 03:51 13,1 C 13,1 C 94 % 1019,4 hPa 0,0 mm 0,0 km/h (0 Bft) S-SO 166 0 min 0,000 mm 0,0 UV-I 0 W/m 12,2 C 0,0 km/h (0 Bft)
15.08.2016 03:52 13,1 C 13,1 C 94 % 1019,4 hPa 0,0 mm 0,3 km/h (0 Bft) S-SO 166 0 min 0,000 mm 0,0 UV-I 0 W/m 12,2 C 1,6 km/h (1 Bft)
15.08.2016 03:53 13,0 C 13,1 C 94 % 1019,4 hPa 0,0 mm 1,7 km/h (1 Bft) S-SO 166 0 min 0,000 mm 0,0 UV-I 0 W/m 12,1 C 4,8 km/h (1 Bft)
15.08.2016 03:54 12,9 C 13,0 C 94 % 1019,4 hPa 0,0 mm 4,3 km/h (1 Bft) S-SO 166 0 min 0,000 mm 0,0 UV-I 0 W/m 12,0 C 4,8 km/h (1 Bft)
15.08.2016 03:55 12,9 C 12,9 C 94 % 1019,4 hPa 0,0 mm 2,7 km/h (1 Bft) S-SO 166 0 min 0,000 mm 0,0 UV-I 0 W/m 12,0 C 4,8 km/h (1 Bft)
15.08.2016 03:56 12,9 C 12,9 C 94 % 1019,4 hPa 0,0 mm 2,7 km/h (1 Bft) S-SO 166 0 min 0,000 mm 0,0 UV-I 0 W/m 12,0 C 4,8 km/h (1 Bft)
15.08.2016 03:57 13,1 C 13,1 C 95 % 1019,4 hPa 0,0 mm 2,2 km/h (1 Bft) S-SO 166 0 min 0,000 mm 0,0 UV-I 0 W/m 12,3 C 4,8 km/h (1 Bft)
15.08.2016 03:58 13,2 C 13,2 C 95 % 1019,3 hPa 0,0 mm 1,7 km/h (1 Bft) S-SO 166 0 min 0,000 mm 0,0 UV-I 0 W/m 12,4 C 4,8 km/h (1 Bft)
15.08.2016 03:59 13,3 C 13,3 C 95 % 1019,4 hPa 0,0 mm 0,9 km/h (0 Bft) S-SO 166 0 min 0,000 mm 0,0 UV-I 0 W/m 12,5 C 1,6 km/h (1 Bft)
15.08.2016 04:00 13,4 C 13,4 C 95 % 1019,4 hPa 0,0 mm 1,2 km/h (1 Bft) S-SO 166 0 min 0,000 mm 0,0 UV-I 0 W/m 12,6 C 1,6 km/h (1 Bft)
15.08.2016 04:01 13,4 C 13,4 C 95 % 1019,4 hPa 0,0 mm 1,3 km/h (1 Bft) S-SO 166 0 min 0,000 mm 0,0 UV-I 0 W/m 12,6 C 1,6 km/h (1 Bft)
15.08.2016 04:02 13,4 C 13,4 C 95 % 1019,4 hPa 0,0 mm 0,5 km/h (0 Bft) S-SO 166 0 min 0,000 mm 0,0 UV-I 0 W/m 12,6 C 1,6 km/h (1 Bft)
15.08.2016 04:03 13,4 C 13,4 C 94 % 1019,4 hPa 0,0 mm 0,0 km/h (0 Bft) S-SO 166 0 min 0,000 mm 0,0 UV-I 0 W/m 12,5 C 0,0 km/h (0 Bft)
15.08.2016 04:04 13,3 C 13,4 C 94 % 1019,5 hPa 0,0 mm 0,0 km/h (0 Bft) S-SO 166 0 min 0,000 mm 0,0 UV-I 0 W/m 12,4 C 0,0 km/h (0 Bft)
15.08.2016 04:05 13,3 C 13,3 C 94 % 1019,4 hPa 0,0 mm 0,0 km/h (0 Bft) S-SO 166 0 min 0,000 mm 0,0 UV-I 0 W/m 12,4 C 0,0 km/h (0 Bft)
15.08.2016 04:06 13,3 C 13,3 C 93 % 1019,4 hPa 0,0 mm 0,1 km/h (0 Bft) S-SO 166 0 min 0,000 mm 0,0 UV-I 0 W/m 12,2 C 1,6 km/h (1 Bft)
15.08.2016 04:07 13,2 C 13,3 C 94 % 1019,5 hPa 0,0 mm 0,0 km/h (0 Bft) S-SO 166 0 min 0,000 mm 0,0 UV-I 0 W/m 12,3 C 0,0 km/h (0 Bft)
15.08.2016 04:08 13,2 C 13,2 C 94 % 1019,5 hPa 0,0 mm 0,0 km/h (0 Bft) S-SO 166 0 min 0,000 mm 0,0 UV-I 0 W/m 12,3 C 0,0 km/h (0 Bft)
15.08.2016 04:09 13,2 C 13,2 C 94 % 1019,4 hPa 0,0 mm 0,0 km/h (0 Bft) S-SO 166 0 min 0,000 mm 0,0 UV-I 0 W/m 12,3 C 0,0 km/h (0 Bft)
15.08.2016 04:10 13,2 C 13,2 C 94 % 1019,4 hPa 0,0 mm 0,0 km/h (0 Bft) S-SO 166 0 min 0,000 mm 0,0 UV-I 0 W/m 12,3 C 0,0 km/h (0 Bft)
15.08.2016 04:11 13,3 C 13,3 C 94 % 1019,4 hPa 0,0 mm 0,2 km/h (0 Bft) S-SO 166 0 min 0,000 mm 0,0 UV-I 0 W/m 12,4 C 1,6 km/h (1 Bft)
15.08.2016 04:12 13,3 C 13,3 C 95 % 1019,4 hPa 0,0 mm 1,8 km/h (1 Bft) S-SO 166 0 min 0,000 mm 0,0 UV-I 0 W/m 12,5 C 4,8 km/h (1 Bft)
15.08.2016 04:13 13,4 C 13,4 C 95 % 1019,4 hPa 0,0 mm 1,9 km/h (1 Bft) S-SO 166 0 min 0,000 mm 0,0 UV-I 0 W/m 12,6 C 4,8 km/h (1 Bft)
15.08.2016 04:14 13,4 C 13,4 C 95 % 1019,4 hPa 0,0 mm 2,3 km/h (1 Bft) S-SO 166 0 min 0,000 mm 0,0 UV-I 0 W/m 12,6 C 4,8 km/h (1 Bft)
15.08.2016 04:15 13,4 C 13,4 C 95 % 1019,4 hPa 0,0 mm 3,0 km/h (1 Bft) S-SO 166 0 min 0,000 mm 0,0 UV-I 0 W/m 12,6 C 4,8 km/h (1 Bft)
15.08.2016 04:16 13,4 C 13,4 C 95 % 1019,4 hPa 0,0 mm 2,1 km/h (1 Bft) S-SO 166 0 min 0,000 mm 0,0 UV-I 0 W/m 12,6 C 4,8 km/h (1 Bft)
15.08.2016 04:17 13,5 C 13,5 C 95 % 1019,4 hPa 0,0 mm 2,7 km/h (1 Bft) S-SO 166 0 min 0,000 mm 0,0 UV-I 0 W/m 12,7 C 4,8 km/h (1 Bft)
15.08.2016 04:18 13,6 C 13,6 C 95 % 1019,3 hPa 0,0 mm 0,7 km/h (0 Bft) S-SO 166 0 min 0,000 mm 0,0 UV-I 0 W/m 12,8 C 1,6 km/h (1 Bft)
15.08.2016 04:19 13,6 C 13,6 C 95 % 1019,3 hPa 0,0 mm 0,0 km/h (0 Bft) S-SO 166 0 min 0,000 mm 0,0 UV-I 0 W/m 12,8 C 0,0 km/h (0 Bft)
15.08.2016 04:20 13,6 C 13,6 C 94 % 1019,3 hPa 0,0 mm 0,0 km/h (0 Bft) S-SO 166 0 min 0,000 mm 0,0 UV-I 0 W/m 12,7 C 0,0 km/h (0 Bft)
15.08.2016 04:21 13,5 C 13,6 C 93 % 1019,4 hPa 0,0 mm 0,0 km/h (0 Bft) S-SO 166 0 min 0,000 mm 0,0 UV-I 0 W/m 12,4 C 0,0 km/h (0 Bft)
15.08.2016 04:22 13,4 C 13,5 C 93 % 1019,4 hPa 0,0 mm 0,0 km/h (0 Bft) S-SO 166 0 min 0,000 mm 0,0 UV-I 0 W/m 12,3 C 0,0 km/h (0 Bft)
15.08.2016 04:23 13,4 C 13,4 C 93 % 1019,4 hPa 0,0 mm 0,0 km/h (0 Bft) S-SO 166 0 min 0,000 mm 0,0 UV-I 0 W/m 12,3 C 0,0 km/h (0 Bft)
15.08.2016 04:24 13,3 C 13,4 C 93 % 1019,3 hPa 0,0 mm 0,0 km/h (0 Bft) S-SO 166 0 min 0,000 mm 0,0 UV-I 0 W/m 12,2 C 0,0 km/h (0 Bft)
15.08.2016 04:25 13,2 C 13,3 C 93 % 1019,4 hPa 0,0 mm 0,0 km/h (0 Bft) S-SO 166 0 min 0,000 mm 0,0 UV-I 0 W/m 12,1 C 0,0 km/h (0 Bft)
15.08.2016 04:26 13,2 C 13,2 C 93 % 1019,4 hPa 0,0 mm 0,0 km/h (0 Bft) S-SO 166 0 min 0,000 mm 0,0 UV-I 0 W/m 12,1 C 0,0 km/h (0 Bft)
15.08.2016 04:27 13,1 C 13,2 C 93 % 1019,3 hPa 0,0 mm 0,0 km/h (0 Bft) S-SO 166 0 min 0,000 mm 0,0 UV-I 0 W/m 12,0 C 0,0 km/h (0 Bft)
15.08.2016 04:28 13,1 C 13,1 C 94 % 1019,3 hPa 0,0 mm 0,0 km/h (0 Bft) S-SO 166 0 min 0,000 mm 0,0 UV-I 0 W/m 12,2 C 0,0 km/h (0 Bft)
15.08.2016 04:29 13,1 C 13,1 C 94 % 1019,3 hPa 0,0 mm 0,0 km/h (0 Bft) S-SO 166 0 min 0,000 mm 0,0 UV-I 0 W/m 12,2 C 0,0 km/h (0 Bft)
15.08.2016 04:30 13,2 C 13,2 C 95 % 1019,3 hPa 0,0 mm 0,0 km/h (0 Bft) S-SO 166 0 min 0,000 mm 0,0 UV-I 0 W/m 12,4 C 0,0 km/h (0 Bft)
15.08.2016 04:31 13,2 C 13,2 C 94 % 1019,4 hPa 0,0 mm 0,7 km/h (0 Bft) S-SO 166 0 min 0,000 mm 0,0 UV-I 0 W/m 12,3 C 1,6 km/h (1 Bft)
15.08.2016 04:32 13,3 C 13,3 C 94 % 1019,3 hPa 0,0 mm 2,0 km/h (1 Bft) S-SO 166 0 min 0,000 mm 0,0 UV-I 0 W/m 12,4 C 4,8 km/h (1 Bft)
15.08.2016 04:33 13,3 C 13,3 C 94 % 1019,3 hPa 0,0 mm 2,3 km/h (1 Bft) S-SO 166 0 min 0,000 mm 0,0 UV-I 0 W/m 12,4 C 4,8 km/h (1 Bft)
15.08.2016 04:34 13,3 C 13,3 C 94 % 1019,3 hPa 0,0 mm 0,8 km/h (0 Bft) S-SO 166 0 min 0,000 mm 0,0 UV-I 0 W/m 12,4 C 4,8 km/h (1 Bft)
15.08.2016 04:35 13,3 C 13,3 C 94 % 1019,3 hPa 0,0 mm 0,0 km/h (0 Bft) S-SO 166 0 min 0,000 mm 0,0 UV-I 0 W/m 12,4 C 0,0 km/h (0 Bft)
15.08.2016 04:36 13,2 C 13,3 C 94 % 1019,3 hPa 0,0 mm 0,0 km/h (0 Bft) S-SO 166 0 min 0,000 mm 0,0 UV-I 0 W/m 12,3 C 0,0 km/h (0 Bft)
15.08.2016 04:37 13,2 C 13,2 C 93 % 1019,3 hPa 0,0 mm 0,0 km/h (0 Bft) S-SO 166 0 min 0,000 mm 0,0 UV-I 0 W/m 12,1 C 0,0 km/h (0 Bft)
15.08.2016 04:38 13,2 C 13,2 C 93 % 1019,3 hPa 0,0 mm 0,2 km/h (0 Bft) S-SO 166 0 min 0,000 mm 0,0 UV-I 0 W/m 12,1 C 1,6 km/h (1 Bft)
15.08.2016 04:39 13,2 C 13,2 C 94 % 1019,3 hPa 0,0 mm 0,0 km/h (0 Bft) S-SO 166 0 min 0,000 mm 0,0 UV-I 0 W/m 12,3 C 0,0 km/h (0 Bft)
15.08.2016 04:40 13,3 C 13,3 C 95 % 1019,3 hPa 0,0 mm 0,0 km/h (0 Bft) S-SO 166 0 min 0,000 mm 0,0 UV-I 0 W/m 12,5 C 0,0 km/h (0 Bft)
15.08.2016 04:41 13,4 C 13,4 C 94 % 1019,3 hPa 0,0 mm 0,0 km/h (0 Bft) S-SO 166 0 min 0,000 mm 0,0 UV-I 0 W/m 12,5 C 0,0 km/h (0 Bft)
15.08.2016 04:42 13,3 C 13,4 C 94 % 1019,3 hPa 0,0 mm 0,0 km/h (0 Bft) S-SO 166 0 min 0,000 mm 0,0 UV-I 0 W/m 12,4 C 0,0 km/h (0 Bft)
15.08.2016 04:43 13,2 C 13,3 C 93 % 1019,3 hPa 0,0 mm 0,0 km/h (0 Bft) S-SO 166 0 min 0,000 mm 0,0 UV-I 0 W/m 12,1 C 0,0 km/h (0 Bft)
15.08.2016 04:44 13,2 C 13,2 C 93 % 1019,3 hPa 0,0 mm 0,2 km/h (0 Bft) S-SO 166 0 min 0,000 mm 0,0 UV-I 0 W/m 12,1 C 1,6 km/h (1 Bft)
15.08.2016 04:45 13,1 C 13,2 C 93 % 1019,2 hPa 0,0 mm 0,0 km/h (0 Bft) S-SO 166 0 min 0,000 mm 0,0 UV-I 0 W/m 12,0 C 0,0 km/h (0 Bft)
15.08.2016 04:46 13,1 C 13,1 C 93 % 1019,2 hPa 0,0 mm 0,0 km/h (0 Bft) S-SO 166 0 min 0,000 mm 0,0 UV-I 0 W/m 12,0 C 0,0 km/h (0 Bft)
15.08.2016 04:47 13,1 C 13,1 C 94 % 1019,3 hPa 0,0 mm 0,0 km/h (0 Bft) S-SO 166 0 min 0,000 mm 0,0 UV-I 0 W/m 12,2 C 0,0 km/h (0 Bft)
15.08.2016 04:48 13,0 C 13,1 C 93 % 1019,2 hPa 0,0 mm 0,0 km/h (0 Bft) S-SO 166 0 min 0,000 mm 0,0 UV-I 0 W/m 11,9 C 0,0 km/h (0 Bft)
15.08.2016 04:49 12,9 C 13,0 C 92 % 1019,2 hPa 0,0 mm 0,2 km/h (0 Bft) S-SO 166 0 min 0,000 mm 0,0 UV-I 0 W/m 11,6 C 1,6 km/h (1 Bft)
15.08.2016 04:50 12,9 C 12,9 C 93 % 1019,2 hPa 0,0 mm 0,7 km/h (0 Bft) S-SO 166 0 min 0,000 mm 0,0 UV-I 0 W/m 11,8 C 1,6 km/h (1 Bft)
15.08.2016 04:51 12,9 C 12,9 C 94 % 1019,3 hPa 0,0 mm 1,1 km/h (1 Bft) S-SO 166 0 min 0,000 mm 0,0 UV-I 0 W/m 12,0 C 1,6 km/h (1 Bft)
15.08.2016 04:52 12,9 C 12,9 C 94 % 1019,2 hPa 0,0 mm 0,8 km/h (0 Bft) S-SO 166 0 min 0,000 mm 0,0 UV-I 0 W/m 12,0 C 1,6 km/h (1 Bft)
15.08.2016 04:53 13,1 C 13,1 C 95 % 1019,2 hPa 0,0 mm 0,9 km/h (0 Bft) S-SO 166 0 min 0,000 mm 0,0 UV-I 0 W/m 12,3 C 1,6 km/h (1 Bft)
15.08.2016 04:54 13,1 C 13,1 C 95 % 1019,1 hPa 0,0 mm 0,6 km/h (0 Bft) S-SO 166 0 min 0,000 mm 0,0 UV-I 0 W/m 12,3 C 4,8 km/h (1 Bft)
15.08.2016 04:55 13,2 C 13,2 C 95 % 1019,1 hPa 0,0 mm 0,7 km/h (0 Bft) S-SO 166 0 min 0,000 mm 0,0 UV-I 0 W/m 12,4 C 1,6 km/h (1 Bft)
15.08.2016 04:56 13,2 C 13,2 C 95 % 1019,1 hPa 0,0 mm 0,0 km/h (0 Bft) S-SO 166 0 min 0,000 mm 0,0 UV-I 0 W/m 12,4 C 0,0 km/h (0 Bft)
15.08.2016 04:57 13,2 C 13,3 C 94 % 1019,2 hPa 0,0 mm 0,0 km/h (0 Bft) S-SO 166 0 min 0,000 mm 0,0 UV-I 0 W/m 12,3 C 0,0 km/h (0 Bft)
15.08.2016 04:58 13,2 C 13,2 C 94 % 1019,2 hPa 0,0 mm 0,0 km/h (0 Bft) S-SO 166 0 min 0,000 mm 0,0 UV-I 0 W/m 12,3 C 0,0 km/h (0 Bft)
15.08.2016 04:59 13,1 C 13,2 C 93 % 1019,1 hPa 0,0 mm 0,0 km/h (0 Bft) S-SO 166 0 min 0,000 mm 0,0 UV-I 0 W/m 12,0 C 0,0 km/h (0 Bft)
15.08.2016 05:00 13,1 C 13,1 C 93 % 1019,2 hPa 0,0 mm 0,0 km/h (0 Bft) S-SO 166 0 min 0,000 mm 0,0 UV-I 0 W/m 12,0 C 0,0 km/h (0 Bft)
15.08.2016 05:01 13,0 C 13,1 C 93 % 1019,2 hPa 0,0 mm 0,0 km/h (0 Bft) S-SO 166 0 min 0,000 mm 0,0 UV-I 0 W/m 11,9 C 0,0 km/h (0 Bft)
15.08.2016 05:02 13,0 C 13,1 C 93 % 1019,2 hPa 0,0 mm 0,0 km/h (0 Bft) S-SO 166 0 min 0,000 mm 0,0 UV-I 0 W/m 11,9 C 0,0 km/h (0 Bft)
15.08.2016 05:03 12,9 C 13,0 C 94 % 1019,2 hPa 0,0 mm 0,0 km/h (0 Bft) S-SO 166 0 min 0,000 mm 0,0 UV-I 0 W/m 12,0 C 0,0 km/h (0 Bft)
15.08.2016 05:04 12,9 C 12,9 C 94 % 1019,1 hPa 0,0 mm 0,0 km/h (0 Bft) S-SO 166 0 min 0,000 mm 0,0 UV-I 0 W/m 12,0 C 0,0 km/h (0 Bft)
15.08.2016 05:05 12,9 C 13,0 C 94 % 1019,1 hPa 0,0 mm 0,1 km/h (0 Bft) S-SO 166 0 min 0,000 mm 0,0 UV-I 0 W/m 12,0 C 1,6 km/h (1 Bft)
15.08.2016 05:06 13,0 C 13,0 C 94 % 1019,1 hPa 0,0 mm 0,0 km/h (0 Bft) S-SO 166 0 min 0,000 mm 0,0 UV-I 0 W/m 12,1 C 0,0 km/h (0 Bft)
15.08.2016 05:07 13,0 C 13,0 C 94 % 1019,1 hPa 0,0 mm 0,1 km/h (0 Bft) S-SO 166 0 min 0,000 mm 0,0 UV-I 0 W/m 12,1 C 1,6 km/h (1 Bft)
15.08.2016 05:08 13,1 C 13,1 C 94 % 1019,1 hPa 0,0 mm 0,0 km/h (0 Bft) S-SO 166 0 min 0,000 mm 0,0 UV-I 0 W/m 12,2 C 0,0 km/h (0 Bft)
15.08.2016 05:09 13,2 C 13,2 C 95 % 1019,1 hPa 0,0 mm 1,4 km/h (1 Bft) S-SO 166 0 min 0,000 mm 0,0 UV-I 0 W/m 12,4 C 4,8 km/h (1 Bft)
15.08.2016 05:10 13,2 C 13,2 C 95 % 1019,1 hPa 0,0 mm 1,1 km/h (1 Bft) S-SO 166 0 min 0,000 mm 0,0 UV-I 0 W/m 12,4 C 4,8 km/h (1 Bft)
15.08.2016 05:11 13,3 C 13,3 C 95 % 1019,1 hPa 0,0 mm 0,9 km/h (0 Bft) S-SO 166 0 min 0,000 mm 0,0 UV-I 0 W/m 12,5 C 1,6 km/h (1 Bft)
15.08.2016 05:12 13,2 C 13,3 C 95 % 1019,1 hPa 0,0 mm 0,0 km/h (0 Bft) S-SO 166 0 min 0,000 mm 0,0 UV-I 0 W/m 12,4 C 0,0 km/h (0 Bft)
15.08.2016 05:13 13,2 C 13,2 C 94 % 1019,1 hPa 0,0 mm 0,0 km/h (0 Bft) S-SO 166 0 min 0,000 mm 0,0 UV-I 0 W/m 12,3 C 0,0 km/h (0 Bft)
15.08.2016 05:14 13,2 C 13,2 C 93 % 1019,1 hPa 0,0 mm 0,1 km/h (0 Bft) S-SO 166 0 min 0,000 mm 0,0 UV-I 0 W/m 12,1 C 1,6 km/h (1 Bft)
15.08.2016 05:15 13,1 C 13,2 C 93 % 1019,1 hPa 0,0 mm 0,0 km/h (0 Bft) S-SO 166 0 min 0,000 mm 0,0 UV-I 0 W/m 12,0 C 0,0 km/h (0 Bft)
15.08.2016 05:16 12,9 C 13,1 C 93 % 1019,1 hPa 0,0 mm 0,0 km/h (0 Bft) S-SO 166 0 min 0,000 mm 0,0 UV-I 0 W/m 11,8 C 0,0 km/h (0 Bft)
15.08.2016 05:17 12,9 C 12,9 C 93 % 1019,1 hPa 0,0 mm 0,0 km/h (0 Bft) S-SO 166 0 min 0,000 mm 0,0 UV-I 0 W/m 11,8 C 0,0 km/h (0 Bft)
15.08.2016 05:18 12,8 C 12,9 C 93 % 1019,1 hPa 0,0 mm 0,0 km/h (0 Bft) S-SO 166 0 min 0,000 mm 0,0 UV-I 0 W/m 11,7 C 0,0 km/h (0 Bft)
15.08.2016 05:19 12,8 C 12,8 C 94 % 1019,2 hPa 0,0 mm 0,0 km/h (0 Bft) S-SO 166 0 min 0,000 mm 0,0 UV-I 0 W/m 11,9 C 0,0 km/h (0 Bft)
15.08.2016 05:20 12,8 C 12,8 C 94 % 1019,1 hPa 0,0 mm 0,0 km/h (0 Bft) S-SO 166 0 min 0,000 mm 0,0 UV-I 0 W/m 11,9 C 0,0 km/h (0 Bft)
15.08.2016 05:21 12,7 C 12,8 C 94 % 1019,1 hPa 0,0 mm 0,0 km/h (0 Bft) S-SO 166 0 min 0,000 mm 0,0 UV-I 0 W/m 11,8 C 0,0 km/h (0 Bft)
15.08.2016 05:22 12,7 C 12,7 C 94 % 1019,1 hPa 0,0 mm 0,0 km/h (0 Bft) S-SO 166 0 min 0,000 mm 0,0 UV-I 0 W/m 11,8 C 0,0 km/h (0 Bft)
15.08.2016 05:23 12,7 C 12,7 C 94 % 1019,2 hPa 0,0 mm 0,0 km/h (0 Bft) S-SO 166 0 min 0,000 mm 0,0 UV-I 0 W/m 11,8 C 0,0 km/h (0 Bft)
15.08.2016 05:24 12,7 C 12,7 C 94 % 1019,2 hPa 0,0 mm 0,1 km/h (0 Bft) S-SO 166 0 min 0,000 mm 0,0 UV-I 0 W/m 11,8 C 1,6 km/h (1 Bft)
15.08.2016 05:25 12,8 C 12,8 C 95 % 1019,1 hPa 0,0 mm 0,8 km/h (0 Bft) S-SO 166 0 min 0,000 mm 0,0 UV-I 0 W/m 12,0 C 1,6 km/h (1 Bft)
15.08.2016 05:26 12,9 C 12,9 C 95 % 1019,1 hPa 0,0 mm 1,0 km/h (0 Bft) S-SO 166 0 min 0,000 mm 0,0 UV-I 0 W/m 12,1 C 1,6 km/h (1 Bft)
15.08.2016 05:27 12,9 C 12,9 C 95 % 1019,1 hPa 0,0 mm 1,4 km/h (1 Bft) S-SO 166 0 min 0,000 mm 0,0 UV-I 0 W/m 12,1 C 1,6 km/h (1 Bft)
15.08.2016 05:28 13,1 C 13,1 C 96 % 1019,2 hPa 0,0 mm 0,5 km/h (0 Bft) S-SO 166 0 min 0,000 mm 0,0 UV-I 0 W/m 12,5 C 1,6 km/h (1 Bft)
15.08.2016 05:29 13,2 C 13,2 C 95 % 1019,2 hPa 0,0 mm 0,0 km/h (0 Bft) S-SO 166 0 min 0,000 mm 0,0 UV-I 0 W/m 12,4 C 0,0 km/h (0 Bft)
15.08.2016 05:30 13,1 C 13,2 C 95 % 1019,1 hPa 0,0 mm 0,0 km/h (0 Bft) S-SO 166 0 min 0,000 mm 0,0 UV-I 0 W/m 12,3 C 0,0 km/h (0 Bft)
15.08.2016 05:31 13,1 C 13,1 C 95 % 1019,2 hPa 0,0 mm 0,0 km/h (0 Bft) S-SO 166 0 min 0,000 mm 0,0 UV-I 0 W/m 12,3 C 0,0 km/h (0 Bft)
15.08.2016 05:32 13,1 C 13,1 C 95 % 1019,1 hPa 0,0 mm 0,0 km/h (0 Bft) S-SO 166 0 min 0,000 mm 0,0 UV-I 0 W/m 12,3 C 0,0 km/h (0 Bft)
15.08.2016 05:33 13,0 C 13,1 C 95 % 1019,1 hPa 0,0 mm 0,0 km/h (0 Bft) S-SO 166 0 min 0,000 mm 0,0 UV-I 0 W/m 12,2 C 0,0 km/h (0 Bft)
15.08.2016 05:34 13,1 C 13,1 C 95 % 1019,2 hPa 0,0 mm 0,0 km/h (0 Bft) S-SO 166 0 min 0,000 mm 0,0 UV-I 0 W/m 12,3 C 0,0 km/h (0 Bft)
15.08.2016 05:35 13,0 C 13,1 C 95 % 1019,2 hPa 0,0 mm 0,0 km/h (0 Bft) S-SO 166 0 min 0,000 mm 0,0 UV-I 0 W/m 12,2 C 0,0 km/h (0 Bft)
15.08.2016 05:36 13,0 C 13,0 C 95 % 1019,1 hPa 0,0 mm 0,0 km/h (0 Bft) S-SO 166 0 min 0,000 mm 0,0 UV-I 0 W/m 12,2 C 0,0 km/h (0 Bft)
15.08.2016 05:37 12,9 C 13,0 C 95 % 1019,2 hPa 0,0 mm 0,0 km/h (0 Bft) S-SO 166 0 min 0,000 mm 0,0 UV-I 0 W/m 12,1 C 0,0 km/h (0 Bft)
15.08.2016 05:38 12,9 C 13,0 C 95 % 1019,1 hPa 0,0 mm 0,0 km/h (0 Bft) S-SO 166 0 min 0,000 mm 0,0 UV-I 0 W/m 12,1 C 0,0 km/h (0 Bft)
15.08.2016 05:39 12,9 C 12,9 C 94 % 1019,2 hPa 0,0 mm 0,0 km/h (0 Bft) S-SO 166 0 min 0,000 mm 0,0 UV-I 0 W/m 12,0 C 0,0 km/h (0 Bft)
15.08.2016 05:40 12,8 C 12,9 C 94 % 1019,2 hPa 0,0 mm 0,0 km/h (0 Bft) S-SO 166 0 min 0,000 mm 0,0 UV-I 0 W/m 11,9 C 0,0 km/h (0 Bft)
15.08.2016 05:41 12,8 C 12,8 C 94 % 1019,2 hPa 0,0 mm 0,0 km/h (0 Bft) S-SO 166 0 min 0,000 mm 0,0 UV-I 0 W/m 11,9 C 0,0 km/h (0 Bft)
15.08.2016 05:42 12,7 C 12,8 C 94 % 1019,2 hPa 0,0 mm 0,0 km/h (0 Bft) S-SO 166 0 min 0,000 mm 0,0 UV-I 0 W/m 11,8 C 0,0 km/h (0 Bft)
15.08.2016 05:43 12,7 C 12,7 C 94 % 1019,2 hPa 0,0 mm 0,0 km/h (0 Bft) S-SO 166 0 min 0,000 mm 0,0 UV-I 0 W/m 11,8 C 0,0 km/h (0 Bft)
15.08.2016 05:44 12,7 C 12,7 C 94 % 1019,2 hPa 0,0 mm 0,0 km/h (0 Bft) S-SO 166 0 min 0,000 mm 0,0 UV-I 0 W/m 11,8 C 0,0 km/h (0 Bft)
15.08.2016 05:45 12,6 C 12,7 C 94 % 1019,2 hPa 0,0 mm 0,0 km/h (0 Bft) S-SO 166 0 min 0,000 mm 0,0 UV-I 0 W/m 11,7 C 0,0 km/h (0 Bft)
15.08.2016 05:46 12,6 C 12,6 C 95 % 1019,2 hPa 0,0 mm 0,0 km/h (0 Bft) S-SO 166 0 min 0,000 mm 0,0 UV-I 0 W/m 11,8 C 0,0 km/h (0 Bft)
15.08.2016 05:47 12,6 C 12,6 C 95 % 1019,2 hPa 0,0 mm 0,0 km/h (0 Bft) S-SO 166 0 min 0,000 mm 0,0 UV-I 0 W/m 11,8 C 0,0 km/h (0 Bft)
15.08.2016 05:48 12,6 C 12,6 C 95 % 1019,2 hPa 0,0 mm 0,0 km/h (0 Bft) S-SO 166 0 min 0,000 mm 0,0 UV-I 0 W/m 11,8 C 0,0 km/h (0 Bft)
15.08.2016 05:49 12,6 C 12,6 C 95 % 1019,2 hPa 0,0 mm 0,0 km/h (0 Bft) S-SO 166 0 min 0,000 mm 0,0 UV-I 0 W/m 11,8 C 0,0 km/h (0 Bft)
15.08.2016 05:50 12,6 C 12,6 C 95 % 1019,2 hPa 0,0 mm 0,0 km/h (0 Bft) S-SO 166 0 min 0,000 mm 0,0 UV-I 0 W/m 11,8 C 0,0 km/h (0 Bft)
15.08.2016 05:51 12,6 C 12,6 C 95 % 1019,2 hPa 0,0 mm 0,0 km/h (0 Bft) S-SO 166 0 min 0,000 mm 0,0 UV-I 0 W/m 11,8 C 0,0 km/h (0 Bft)
15.08.2016 05:52 12,6 C 12,6 C 95 % 1019,2 hPa 0,0 mm 0,0 km/h (0 Bft) S-SO 166 0 min 0,000 mm 0,0 UV-I 0 W/m 11,8 C 0,0 km/h (0 Bft)
15.08.2016 05:53 12,5 C 12,6 C 95 % 1019,2 hPa 0,0 mm 0,0 km/h (0 Bft) S-SO 166 0 min 0,000 mm 0,0 UV-I 0 W/m 11,7 C 0,0 km/h (0 Bft)
15.08.2016 05:54 12,6 C 12,6 C 95 % 1019,2 hPa 0,0 mm 0,0 km/h (0 Bft) S-SO 166 0 min 0,000 mm 0,0 UV-I 0 W/m 11,8 C 0,0 km/h (0 Bft)
15.08.2016 05:55 12,6 C 12,6 C 95 % 1019,2 hPa 0,0 mm 0,0 km/h (0 Bft) S-SO 166 0 min 0,000 mm 0,0 UV-I 0 W/m 11,8 C 0,0 km/h (0 Bft)
15.08.2016 05:56 12,6 C 12,6 C 95 % 1019,2 hPa 0,0 mm 0,0 km/h (0 Bft) S-SO 166 0 min 0,000 mm 0,0 UV-I 0 W/m 11,8 C 0,0 km/h (0 Bft)
15.08.2016 05:57 12,6 C 12,6 C 95 % 1019,2 hPa 0,0 mm 0,0 km/h (0 Bft) S-SO 166 0 min 0,000 mm 0,0 UV-I 0 W/m 11,8 C 0,0 km/h (0 Bft)
15.08.2016 05:58 12,6 C 12,6 C 96 % 1019,2 hPa 0,0 mm 0,0 km/h (0 Bft) S-SO 166 0 min 0,000 mm 0,0 UV-I 0 W/m 12,0 C 0,0 km/h (0 Bft)
15.08.2016 05:59 12,6 C 12,6 C 96 % 1019,3 hPa 0,0 mm 0,0 km/h (0 Bft) S-SO 166 0 min 0,000 mm 0,0 UV-I 0 W/m 12,0 C 0,0 km/h (0 Bft)
15.08.2016 06:00 12,7 C 12,7 C 96 % 1019,3 hPa 0,0 mm 0,0 km/h (0 Bft) S-SO 166 0 min 0,000 mm 0,0 UV-I 0 W/m 12,1 C 0,0 km/h (0 Bft)
15.08.2016 06:01 12,7 C 12,7 C 96 % 1019,3 hPa 0,0 mm 0,0 km/h (0 Bft) S-SO 166 0 min 0,000 mm 0,0 UV-I 0 W/m 12,1 C 0,0 km/h (0 Bft)
15.08.2016 06:02 12,6 C 12,7 C 95 % 1019,2 hPa 0,0 mm 0,0 km/h (0 Bft) S-SO 166 0 min 0,000 mm 0,0 UV-I 0 W/m 11,8 C 0,0 km/h (0 Bft)
15.08.2016 06:03 12,6 C 12,6 C 96 % 1019,3 hPa 0,0 mm 0,0 km/h (0 Bft) S-SO 166 0 min 0,000 mm 0,0 UV-I 0 W/m 12,0 C 0,0 km/h (0 Bft)
15.08.2016 06:04 12,6 C 12,6 C 96 % 1019,3 hPa 0,0 mm 0,0 km/h (0 Bft) S-SO 166 0 min 0,000 mm 0,0 UV-I 0 W/m 12,0 C 0,0 km/h (0 Bft)
15.08.2016 06:05 12,6 C 12,6 C 96 % 1019,3 hPa 0,0 mm 0,0 km/h (0 Bft) S-SO 166 0 min 0,000 mm 0,0 UV-I 0 W/m 12,0 C 0,0 km/h (0 Bft)
15.08.2016 06:06 12,6 C 12,6 C 96 % 1019,2 hPa 0,0 mm 0,0 km/h (0 Bft) S-SO 166 0 min 0,000 mm 0,0 UV-I 0 W/m 12,0 C 0,0 km/h (0 Bft)
15.08.2016 06:07 12,6 C 12,6 C 96 % 1019,2 hPa 0,0 mm 0,0 km/h (0 Bft) S-SO 166 0 min 0,000 mm 0,0 UV-I 0 W/m 12,0 C 0,0 km/h (0 Bft)
15.08.2016 06:08 12,6 C 12,6 C 96 % 1019,2 hPa 0,0 mm 0,0 km/h (0 Bft) S-SO 166 0 min 0,000 mm 0,0 UV-I 0 W/m 12,0 C 0,0 km/h (0 Bft)
15.08.2016 06:09 12,6 C 12,6 C 96 % 1019,2 hPa 0,0 mm 0,0 km/h (0 Bft) S-SO 166 0 min 0,000 mm 0,0 UV-I 0 W/m 12,0 C 0,0 km/h (0 Bft)
15.08.2016 06:10 12,7 C 12,7 C 96 % 1019,2 hPa 0,0 mm 0,0 km/h (0 Bft) S-SO 166 0 min 0,000 mm 0,0 UV-I 0 W/m 12,1 C 0,0 km/h (0 Bft)
15.08.2016 06:11 12,7 C 12,7 C 96 % 1019,2 hPa 0,0 mm 0,0 km/h (0 Bft) S-SO 166 0 min 0,000 mm 0,0 UV-I 0 W/m 12,1 C 0,0 km/h (0 Bft)
15.08.2016 06:12 12,7 C 12,8 C 96 % 1019,3 hPa 0,0 mm 0,0 km/h (0 Bft) S-SO 166 0 min 0,000 mm 0,0 UV-I 0 W/m 12,1 C 0,0 km/h (0 Bft)
15.08.2016 06:13 12,7 C 12,7 C 96 % 1019,3 hPa 0,0 mm 0,0 km/h (0 Bft) S-SO 166 0 min 0,000 mm 0,0 UV-I 0 W/m 12,1 C 0,0 km/h (0 Bft)
15.08.2016 06:14 12,8 C 12,8 C 96 % 1019,2 hPa 0,0 mm 0,0 km/h (0 Bft) S-SO 166 0 min 0,000 mm 0,0 UV-I 0 W/m 12,2 C 0,0 km/h (0 Bft)
15.08.2016 06:15 12,8 C 12,8 C 96 % 1019,2 hPa 0,0 mm 0,0 km/h (0 Bft) S-SO 166 0 min 0,000 mm 0,0 UV-I 0 W/m 12,2 C 0,0 km/h (0 Bft)
15.08.2016 06:16 12,7 C 12,8 C 96 % 1019,2 hPa 0,0 mm 0,0 km/h (0 Bft) S-SO 166 0 min 0,000 mm 0,0 UV-I 0 W/m 12,1 C 0,0 km/h (0 Bft)
15.08.2016 06:17 12,6 C 12,7 C 96 % 1019,3 hPa 0,0 mm 0,0 km/h (0 Bft) S-SO 166 0 min 0,000 mm 0,0 UV-I 0 W/m 12,0 C 0,0 km/h (0 Bft)
15.08.2016 06:18 12,6 C 12,6 C 96 % 1019,2 hPa 0,0 mm 0,0 km/h (0 Bft) S-SO 166 0 min 0,000 mm 0,0 UV-I 0 W/m 12,0 C 0,0 km/h (0 Bft)
15.08.2016 06:19 12,4 C 12,6 C 95 % 1019,2 hPa 0,0 mm 0,0 km/h (0 Bft) S-SO 166 0 min 0,000 mm 0,0 UV-I 5 W/m 11,6 C 0,0 km/h (0 Bft)
15.08.2016 06:20 12,4 C 12,4 C 95 % 1019,2 hPa 0,0 mm 0,0 km/h (0 Bft) S-SO 166 0 min 0,000 mm 0,0 UV-I 5 W/m 11,6 C 0,0 km/h (0 Bft)
15.08.2016 06:21 12,4 C 12,4 C 95 % 1019,2 hPa 0,0 mm 0,0 km/h (0 Bft) S-SO 166 0 min 0,000 mm 0,0 UV-I 5 W/m 11,6 C 0,0 km/h (0 Bft)
15.08.2016 06:22 12,4 C 12,4 C 95 % 1019,2 hPa 0,0 mm 0,0 km/h (0 Bft) S-SO 166 0 min 0,000 mm 0,0 UV-I 5 W/m 11,6 C 0,0 km/h (0 Bft)
15.08.2016 06:23 12,4 C 12,4 C 95 % 1019,2 hPa 0,0 mm 0,0 km/h (0 Bft) S-SO 166 0 min 0,000 mm 0,0 UV-I 5 W/m 11,6 C 0,0 km/h (0 Bft)
15.08.2016 06:24 12,4 C 12,4 C 95 % 1019,2 hPa 0,0 mm 0,0 km/h (0 Bft) S-SO 166 0 min 0,000 mm 0,0 UV-I 7 W/m 11,6 C 0,0 km/h (0 Bft)
15.08.2016 06:25 12,4 C 12,4 C 96 % 1019,2 hPa 0,0 mm 0,0 km/h (0 Bft) S-SO 166 0 min 0,000 mm 0,0 UV-I 7 W/m 11,8 C 0,0 km/h (0 Bft)
15.08.2016 06:26 12,4 C 12,4 C 95 % 1019,3 hPa 0,0 mm 0,0 km/h (0 Bft) S-SO 166 0 min 0,000 mm 0,0 UV-I 7 W/m 11,6 C 0,0 km/h (0 Bft)
15.08.2016 06:27 12,4 C 12,4 C 95 % 1019,3 hPa 0,0 mm 0,5 km/h (0 Bft) S-SO 166 0 min 0,000 mm 0,0 UV-I 7 W/m 11,6 C 1,6 km/h (1 Bft)
15.08.2016 06:28 12,3 C 12,4 C 95 % 1019,3 hPa 0,0 mm 0,5 km/h (0 Bft) S-SO 166 0 min 0,000 mm 0,0 UV-I 7 W/m 11,5 C 1,6 km/h (1 Bft)
15.08.2016 06:29 12,3 C 12,3 C 95 % 1019,2 hPa 0,0 mm 0,0 km/h (0 Bft) S-SO 166 0 min 0,000 mm 0,0 UV-I 7 W/m 11,5 C 0,0 km/h (0 Bft)
15.08.2016 06:30 12,2 C 12,3 C 95 % 1019,3 hPa 0,0 mm 0,0 km/h (0 Bft) S-SO 166 0 min 0,000 mm 0,0 UV-I 7 W/m 11,4 C 0,0 km/h (0 Bft)
15.08.2016 06:31 12,2 C 12,2 C 95 % 1019,3 hPa 0,0 mm 0,0 km/h (0 Bft) S-SO 166 0 min 0,000 mm 0,0 UV-I 7 W/m 11,4 C 0,0 km/h (0 Bft)
15.08.2016 06:32 12,2 C 12,2 C 95 % 1019,3 hPa 0,0 mm 0,5 km/h (0 Bft) S-SO 166 0 min 0,000 mm 0,0 UV-I 7 W/m 11,4 C 1,6 km/h (1 Bft)
15.08.2016 06:33 12,2 C 12,2 C 96 % 1019,3 hPa 0,0 mm 0,3 km/h (0 Bft) S-SO 166 0 min 0,000 mm 0,0 UV-I 7 W/m 11,6 C 1,6 km/h (1 Bft)
15.08.2016 06:34 12,2 C 12,2 C 96 % 1019,3 hPa 0,0 mm 0,0 km/h (0 Bft) S-SO 166 0 min 0,000 mm 0,0 UV-I 7 W/m 11,6 C 0,0 km/h (0 Bft)
15.08.2016 06:35 12,3 C 12,3 C 96 % 1019,3 hPa 0,0 mm 0,0 km/h (0 Bft) S-SO 166 0 min 0,000 mm 0,0 UV-I 7 W/m 11,7 C 0,0 km/h (0 Bft)
15.08.2016 06:36 12,2 C 12,3 C 96 % 1019,3 hPa 0,0 mm 0,0 km/h (0 Bft) S-SO 166 0 min 0,000 mm 0,0 UV-I 7 W/m 11,6 C 0,0 km/h (0 Bft)
15.08.2016 06:37 12,2 C 12,3 C 96 % 1019,2 hPa 0,0 mm 0,0 km/h (0 Bft) S-SO 166 0 min 0,000 mm 0,0 UV-I 7 W/m 11,6 C 0,0 km/h (0 Bft)
15.08.2016 06:38 12,2 C 12,2 C 95 % 1019,2 hPa 0,0 mm 0,0 km/h (0 Bft) S-SO 166 0 min 0,000 mm 0,0 UV-I 9 W/m 11,4 C 0,0 km/h (0 Bft)
15.08.2016 06:39 12,2 C 12,2 C 95 % 1019,2 hPa 0,0 mm 0,0 km/h (0 Bft) S-SO 166 0 min 0,000 mm 0,0 UV-I 9 W/m 11,4 C 0,0 km/h (0 Bft)
15.08.2016 06:40 12,2 C 12,2 C 96 % 1019,3 hPa 0,0 mm 0,0 km/h (0 Bft) S-SO 166 0 min 0,000 mm 0,0 UV-I 9 W/m 11,6 C 0,0 km/h (0 Bft)
15.08.2016 06:41 12,3 C 12,3 C 96 % 1019,2 hPa 0,0 mm 0,0 km/h (0 Bft) S-SO 166 0 min 0,000 mm 0,0 UV-I 9 W/m 11,7 C 0,0 km/h (0 Bft)
15.08.2016 06:42 12,3 C 12,3 C 96 % 1019,3 hPa 0,0 mm 0,0 km/h (0 Bft) S-SO 166 0 min 0,000 mm 0,0 UV-I 9 W/m 11,7 C 0,0 km/h (0 Bft)
15.08.2016 06:43 12,3 C 12,3 C 96 % 1019,2 hPa 0,0 mm 0,0 km/h (0 Bft) S-SO 166 0 min 0,000 mm 0,0 UV-I 9 W/m 11,7 C 0,0 km/h (0 Bft)
15.08.2016 06:44 12,3 C 12,3 C 96 % 1019,2 hPa 0,0 mm 0,0 km/h (0 Bft) S-SO 166 0 min 0,000 mm 0,0 UV-I 11 W/m 11,7 C 0,0 km/h (0 Bft)
15.08.2016 06:45 12,3 C 12,3 C 96 % 1019,2 hPa 0,0 mm 0,0 km/h (0 Bft) S-SO 166 0 min 0,000 mm 0,0 UV-I 11 W/m 11,7 C 0,0 km/h (0 Bft)
15.08.2016 06:46 12,3 C 12,3 C 96 % 1019,2 hPa 0,0 mm 0,0 km/h (0 Bft) S-SO 166 0 min 0,000 mm 0,0 UV-I 11 W/m 11,7 C 0,0 km/h (0 Bft)
15.08.2016 06:47 12,3 C 12,3 C 96 % 1019,1 hPa 0,0 mm 0,2 km/h (0 Bft) S-SO 166 0 min 0,000 mm 0,0 UV-I 12 W/m 11,7 C 1,6 km/h (1 Bft)
15.08.2016 06:48 12,3 C 12,3 C 96 % 1019,1 hPa 0,0 mm 0,2 km/h (0 Bft) S-SO 166 0 min 0,000 mm 0,0 UV-I 12 W/m 11,7 C 1,6 km/h (1 Bft)
15.08.2016 06:49 12,3 C 12,3 C 96 % 1019,1 hPa 0,0 mm 0,1 km/h (0 Bft) S-SO 166 0 min 0,000 mm 0,0 UV-I 12 W/m 11,7 C 1,6 km/h (1 Bft)
15.08.2016 06:50 12,3 C 12,3 C 96 % 1019,1 hPa 0,0 mm 0,0 km/h (0 Bft) S-SO 166 0 min 0,000 mm 0,0 UV-I 14 W/m 11,7 C 0,0 km/h (0 Bft)
15.08.2016 06:51 12,4 C 12,4 C 96 % 1019,1 hPa 0,0 mm 0,0 km/h (0 Bft) S-SO 166 0 min 0,000 mm 0,0 UV-I 14 W/m 11,8 C 0,0 km/h (0 Bft)
15.08.2016 06:52 12,4 C 12,4 C 96 % 1019,1 hPa 0,0 mm 0,0 km/h (0 Bft) S-SO 166 0 min 0,000 mm 0,0 UV-I 16 W/m 11,8 C 0,0 km/h (0 Bft)
15.08.2016 06:53 12,4 C 12,4 C 96 % 1019,1 hPa 0,0 mm 0,0 km/h (0 Bft) S-SO 166 0 min 0,000 mm 0,0 UV-I 16 W/m 11,8 C 0,0 km/h (0 Bft)
15.08.2016 06:54 12,4 C 12,4 C 96 % 1019,1 hPa 0,0 mm 0,0 km/h (0 Bft) S-SO 166 0 min 0,000 mm 0,0 UV-I 16 W/m 11,8 C 0,0 km/h (0 Bft)
15.08.2016 06:55 12,4 C 12,4 C 96 % 1019,1 hPa 0,0 mm 0,0 km/h (0 Bft) S-SO 166 0 min 0,000 mm 0,0 UV-I 18 W/m 11,8 C 0,0 km/h (0 Bft)
15.08.2016 06:56 12,4 C 12,4 C 96 % 1019,1 hPa 0,0 mm 0,0 km/h (0 Bft) S-SO 166 0 min 0,000 mm 0,0 UV-I 18 W/m 11,8 C 0,0 km/h (0 Bft)
15.08.2016 06:57 12,4 C 12,5 C 96 % 1019,1 hPa 0,0 mm 0,0 km/h (0 Bft) S-SO 166 0 min 0,000 mm 0,0 UV-I 19 W/m 11,8 C 0,0 km/h (0 Bft)
15.08.2016 06:58 12,4 C 12,4 C 95 % 1019,2 hPa 0,0 mm 0,0 km/h (0 Bft) S-SO 166 0 min 0,000 mm 0,0 UV-I 19 W/m 11,6 C 0,0 km/h (0 Bft)
15.08.2016 06:59 12,4 C 12,4 C 95 % 1019,2 hPa 0,0 mm 0,6 km/h (0 Bft) S-SO 166 0 min 0,000 mm 0,0 UV-I 19 W/m 11,6 C 1,6 km/h (1 Bft)
15.08.2016 07:00 12,3 C 12,4 C 95 % 1019,3 hPa 0,0 mm 0,5 km/h (0 Bft) S-SO 166 0 min 0,000 mm 0,0 UV-I 21 W/m 11,5 C 1,6 km/h (1 Bft)
15.08.2016 07:01 12,3 C 12,3 C 95 % 1019,2 hPa 0,0 mm 0,0 km/h (0 Bft) S-SO 166 0 min 0,000 mm 0,0 UV-I 21 W/m 11,5 C 0,0 km/h (0 Bft)
15.08.2016 07:02 12,3 C 12,3 C 95 % 1019,2 hPa 0,0 mm 0,0 km/h (0 Bft) S-SO 166 0 min 0,000 mm 0,0 UV-I 21 W/m 11,5 C 0,0 km/h (0 Bft)
15.08.2016 07:03 12,2 C 12,3 C 95 % 1019,2 hPa 0,0 mm 0,0 km/h (0 Bft) S-SO 166 0 min 0,000 mm 0,0 UV-I 23 W/m 11,4 C 0,0 km/h (0 Bft)
15.08.2016 07:04 12,2 C 12,2 C 95 % 1019,3 hPa 0,0 mm 0,0 km/h (0 Bft) S-SO 166 0 min 0,000 mm 0,0 UV-I 23 W/m 11,4 C 0,0 km/h (0 Bft)
15.08.2016 07:05 12,2 C 12,2 C 95 % 1019,3 hPa 0,0 mm 0,0 km/h (0 Bft) S-SO 166 0 min 0,000 mm 0,0 UV-I 23 W/m 11,4 C 0,0 km/h (0 Bft)
15.08.2016 07:06 12,2 C 12,2 C 96 % 1019,3 hPa 0,0 mm 0,0 km/h (0 Bft) S-SO 166 0 min 0,000 mm 0,0 UV-I 25 W/m 11,6 C 0,0 km/h (0 Bft)
15.08.2016 07:07 12,2 C 12,2 C 95 % 1019,3 hPa 0,0 mm 0,1 km/h (0 Bft) S-SO 166 0 min 0,000 mm 0,0 UV-I 25 W/m 11,4 C 1,6 km/h (1 Bft)
15.08.2016 07:08 12,2 C 12,3 C 96 % 1019,3 hPa 0,0 mm 0,0 km/h (0 Bft) S-SO 166 0 min 0,000 mm 0,0 UV-I 25 W/m 11,6 C 0,0 km/h (0 Bft)
15.08.2016 07:09 12,3 C 12,3 C 96 % 1019,2 hPa 0,0 mm 0,2 km/h (0 Bft) S-SO 166 0 min 0,000 mm 0,0 UV-I 26 W/m 11,7 C 1,6 km/h (1 Bft)
15.08.2016 07:10 12,4 C 12,4 C 96 % 1019,3 hPa 0,0 mm 0,0 km/h (0 Bft) S-SO 166 0 min 0,000 mm 0,0 UV-I 26 W/m 11,8 C 0,0 km/h (0 Bft)
15.08.2016 07:11 12,4 C 12,4 C 96 % 1019,2 hPa 0,0 mm 0,0 km/h (0 Bft) S-SO 166 0 min 0,000 mm 0,0 UV-I 26 W/m 11,8 C 0,0 km/h (0 Bft)
15.08.2016 07:12 12,3 C 12,4 C 96 % 1019,2 hPa 0,0 mm 0,0 km/h (0 Bft) S-SO 166 0 min 0,000 mm 0,0 UV-I 26 W/m 11,7 C 0,0 km/h (0 Bft)
15.08.2016 07:13 12,3 C 12,3 C 96 % 1019,3 hPa 0,0 mm 0,1 km/h (0 Bft) S-SO 166 0 min 0,000 mm 0,0 UV-I 28 W/m 11,7 C 1,6 km/h (1 Bft)
15.08.2016 07:14 12,3 C 12,4 C 96 % 1019,3 hPa 0,0 mm 0,0 km/h (0 Bft) S-SO 166 0 min 0,000 mm 0,0 UV-I 28 W/m 11,7 C 0,0 km/h (0 Bft)
15.08.2016 07:15 12,4 C 12,4 C 96 % 1019,2 hPa 0,0 mm 0,0 km/h (0 Bft) S-SO 166 0 min 0,000 mm 0,0 UV-I 30 W/m 11,8 C 0,0 km/h (0 Bft)
15.08.2016 07:16 12,4 C 12,4 C 96 % 1019,2 hPa 0,0 mm 0,0 km/h (0 Bft) S-SO 166 0 min 0,000 mm 0,0 UV-I 30 W/m 11,8 C 0,0 km/h (0 Bft)
15.08.2016 07:17 12,4 C 12,4 C 96 % 1019,2 hPa 0,0 mm 0,0 km/h (0 Bft) S-SO 166 0 min 0,000 mm 0,0 UV-I 32 W/m 11,8 C 0,0 km/h (0 Bft)
15.08.2016 07:18 12,4 C 12,4 C 96 % 1019,2 hPa 0,0 mm 0,0 km/h (0 Bft) S-SO 166 0 min 0,000 mm 0,0 UV-I 33 W/m 11,8 C 0,0 km/h (0 Bft)
15.08.2016 07:19 12,4 C 12,4 C 96 % 1019,2 hPa 0,0 mm 0,0 km/h (0 Bft) S-SO 166 0 min 0,000 mm 0,0 UV-I 33 W/m 11,8 C 0,0 km/h (0 Bft)
15.08.2016 07:20 12,4 C 12,5 C 96 % 1019,2 hPa 0,0 mm 0,0 km/h (0 Bft) S-SO 166 0 min 0,000 mm 0,0 UV-I 39 W/m 11,8 C 0,0 km/h (0 Bft)
15.08.2016 07:21 12,5 C 12,5 C 96 % 1019,2 hPa 0,0 mm 0,0 km/h (0 Bft) S-SO 166 0 min 0,000 mm 0,0 UV-I 40 W/m 11,9 C 0,0 km/h (0 Bft)
15.08.2016 07:22 12,6 C 12,6 C 96 % 1019,1 hPa 0,0 mm 0,0 km/h (0 Bft) S-SO 166 0 min 0,000 mm 0,0 UV-I 42 W/m 12,0 C 0,0 km/h (0 Bft)
15.08.2016 07:23 12,6 C 12,6 C 96 % 1019,2 hPa 0,0 mm 0,0 km/h (0 Bft) S-SO 166 0 min 0,000 mm 0,0 UV-I 44 W/m 12,0 C 0,0 km/h (0 Bft)
15.08.2016 07:24 12,7 C 12,7 C 96 % 1019,2 hPa 0,0 mm 0,1 km/h (0 Bft) S-SO 166 0 min 0,000 mm 0,0 UV-I 46 W/m 12,1 C 1,6 km/h (1 Bft)
15.08.2016 07:25 12,7 C 12,7 C 96 % 1019,2 hPa 0,0 mm 2,0 km/h (1 Bft) S-SO 166 0 min 0,000 mm 0,0 UV-I 47 W/m 12,1 C 4,8 km/h (1 Bft)
15.08.2016 07:26 12,8 C 12,8 C 96 % 1019,2 hPa 0,0 mm 2,5 km/h (1 Bft) S-SO 167 0 min 0,000 mm 0,0 UV-I 53 W/m 12,2 C 4,8 km/h (1 Bft)
15.08.2016 07:27 12,9 C 12,9 C 96 % 1019,2 hPa 0,0 mm 1,0 km/h (0 Bft) S-SO 167 0 min 0,000 mm 0,5 UV-I 56 W/m 12,3 C 4,8 km/h (1 Bft)
15.08.2016 07:28 13,0 C 13,0 C 96 % 1019,2 hPa 0,0 mm 2,4 km/h (1 Bft) S-SO 167 0 min 0,000 mm 0,5 UV-I 58 W/m 12,4 C 4,8 km/h (1 Bft)
15.08.2016 07:29 13,1 C 13,1 C 96 % 1019,1 hPa 0,0 mm 3,4 km/h (1 Bft) S-SO 167 0 min 0,000 mm 0,5 UV-I 62 W/m 12,5 C 4,8 km/h (1 Bft)
15.08.2016 07:30 13,3 C 13,3 C 96 % 1019,1 hPa 0,0 mm 2,6 km/h (1 Bft) S-SO 167 0 min 0,000 mm 0,5 UV-I 65 W/m 12,7 C 6,4 km/h (2 Bft)
15.08.2016 07:31 13,4 C 13,4 C 96 % 1019,1 hPa 0,0 mm 3,2 km/h (1 Bft) S-SO 167 0 min 0,000 mm 0,5 UV-I 81 W/m 12,8 C 4,8 km/h (1 Bft)
15.08.2016 07:32 13,5 C 13,5 C 96 % 1019,1 hPa 0,0 mm 1,7 km/h (1 Bft) S-SO 167 0 min 0,000 mm 0,5 UV-I 81 W/m 12,9 C 4,8 km/h (1 Bft)
15.08.2016 07:33 13,6 C 13,6 C 96 % 1019,0 hPa 0,0 mm 2,8 km/h (1 Bft) S-SO 167 0 min 0,000 mm 0,5 UV-I 83 W/m 13,0 C 4,8 km/h (1 Bft)
15.08.2016 07:34 13,7 C 13,7 C 96 % 1019,0 hPa 0,0 mm 0,1 km/h (0 Bft) S-SO 167 0 min 0,000 mm 0,6 UV-I 91 W/m 13,1 C 1,6 km/h (1 Bft)
15.08.2016 07:35 13,7 C 13,7 C 95 % 1019,0 hPa 0,0 mm 0,5 km/h (0 Bft) S-SO 167 0 min 0,000 mm 0,6 UV-I 91 W/m 12,9 C 1,6 km/h (1 Bft)
15.08.2016 07:36 13,8 C 13,8 C 94 % 1019,0 hPa 0,0 mm 0,2 km/h (0 Bft) S-SO 167 0 min 0,000 mm 0,6 UV-I 104 W/m 12,9 C 1,6 km/h (1 Bft)
15.08.2016 07:37 13,8 C 13,8 C 95 % 1019,0 hPa 0,0 mm 0,0 km/h (0 Bft) S-SO 167 0 min 0,000 mm 0,6 UV-I 98 W/m 13,0 C 0,0 km/h (0 Bft)
15.08.2016 07:38 13,9 C 13,9 C 95 % 1019,0 hPa 0,0 mm 0,0 km/h (0 Bft) S-SO 167 0 min 0,000 mm 0,6 UV-I 113 W/m 13,1 C 0,0 km/h (0 Bft)
15.08.2016 07:39 14,0 C 14,0 C 94 % 1019,0 hPa 0,0 mm 1,0 km/h (0 Bft) S-SO 167 1 min 0,000 mm 0,6 UV-I 163 W/m 13,0 C 1,6 km/h (1 Bft)
15.08.2016 07:40 13,8 C 14,0 C 94 % 1019,0 hPa 0,0 mm 1,6 km/h (1 Bft) S-SO 167 1 min 0,000 mm 0,7 UV-I 183 W/m 12,9 C 1,6 km/h (1 Bft)
15.08.2016 07:41 13,8 C 13,9 C 93 % 1019,0 hPa 0,0 mm 2,3 km/h (1 Bft) W 265 1 min 0,000 mm 0,7 UV-I 192 W/m 12,7 C 4,8 km/h (1 Bft)
15.08.2016 07:42 13,8 C 13,8 C 93 % 1019,1 hPa 0,0 mm 0,3 km/h (0 Bft) W 265 1 min 0,000 mm 0,7 UV-I 229 W/m 12,7 C 1,6 km/h (1 Bft)
15.08.2016 07:43 13,7 C 13,8 C 94 % 1019,0 hPa 0,0 mm 0,0 km/h (0 Bft) W 265 1 min 0,000 mm 0,7 UV-I 202 W/m 12,8 C 0,0 km/h (0 Bft)
15.08.2016 07:44 13,7 C 13,7 C 94 % 1019,0 hPa 0,0 mm 0,0 km/h (0 Bft) W 265 1 min 0,000 mm 0,7 UV-I 232 W/m 12,8 C 0,0 km/h (0 Bft)
15.08.2016 07:45 13,8 C 13,8 C 94 % 1019,0 hPa 0,0 mm 0,0 km/h (0 Bft) W 265 1 min 0,000 mm 0,7 UV-I 207 W/m 12,9 C 0,0 km/h (0 Bft)
15.08.2016 07:46 13,8 C 13,8 C 94 % 1019,0 hPa 0,0 mm 0,3 km/h (0 Bft) W 265 1 min 0,000 mm 0,7 UV-I 264 W/m 12,9 C 1,6 km/h (1 Bft)
15.08.2016 07:47 13,8 C 13,8 C 94 % 1019,0 hPa 0,0 mm 0,9 km/h (0 Bft) W 265 1 min 0,000 mm 0,7 UV-I 265 W/m 12,9 C 1,6 km/h (1 Bft)
15.08.2016 07:48 13,9 C 13,9 C 94 % 1019,0 hPa 0,0 mm 0,3 km/h (0 Bft) W 265 1 min 0,000 mm 0,7 UV-I 248 W/m 12,9 C 1,6 km/h (1 Bft)
15.08.2016 07:49 14,0 C 14,0 C 94 % 1019,0 hPa 0,0 mm 0,0 km/h (0 Bft) W 265 1 min 0,000 mm 0,7 UV-I 237 W/m 13,0 C 0,0 km/h (0 Bft)
15.08.2016 07:50 14,1 C 14,1 C 95 % 1019,0 hPa 0,0 mm 0,2 km/h (0 Bft) W 265 1 min 0,000 mm 0,7 UV-I 237 W/m 13,3 C 1,6 km/h (1 Bft)
15.08.2016 07:51 14,2 C 14,2 C 94 % 1019,0 hPa 0,0 mm 0,0 km/h (0 Bft) W 265 1 min 0,000 mm 0,7 UV-I 237 W/m 13,2 C 0,0 km/h (0 Bft)
15.08.2016 07:52 14,4 C 14,4 C 95 % 1019,0 hPa 0,0 mm 0,0 km/h (0 Bft) W 265 1 min 0,000 mm 0,8 UV-I 274 W/m 13,6 C 0,0 km/h (0 Bft)
15.08.2016 07:53 14,4 C 14,4 C 94 % 1018,9 hPa 0,0 mm 0,0 km/h (0 Bft) W 265 1 min 0,000 mm 0,8 UV-I 278 W/m 13,4 C 0,0 km/h (0 Bft)
15.08.2016 07:54 14,6 C 14,6 C 94 % 1019,0 hPa 0,0 mm 0,0 km/h (0 Bft) W 265 1 min 0,000 mm 0,8 UV-I 276 W/m 13,6 C 0,0 km/h (0 Bft)
15.08.2016 07:55 14,7 C 14,7 C 93 % 1018,9 hPa 0,0 mm 0,0 km/h (0 Bft) W 265 1 min 0,000 mm 0,7 UV-I 276 W/m 13,6 C 0,0 km/h (0 Bft)
15.08.2016 07:56 14,8 C 14,8 C 93 % 1018,9 hPa 0,0 mm 0,0 km/h (0 Bft) W 265 1 min 0,000 mm 0,8 UV-I 251 W/m 13,7 C 0,0 km/h (0 Bft)
15.08.2016 07:57 15,0 C 15,0 C 93 % 1019,0 hPa 0,0 mm 0,0 km/h (0 Bft) W 265 1 min 0,000 mm 0,8 UV-I 244 W/m 13,9 C 0,0 km/h (0 Bft)
15.08.2016 07:58 15,1 C 15,1 C 93 % 1019,0 hPa 0,0 mm 0,0 km/h (0 Bft) W 265 1 min 0,000 mm 0,7 UV-I 216 W/m 14,0 C 0,0 km/h (0 Bft)
15.08.2016 07:59 15,1 C 15,1 C 93 % 1018,9 hPa 0,0 mm 0,0 km/h (0 Bft) W 265 1 min 0,000 mm 0,7 UV-I 163 W/m 14,0 C 0,0 km/h (0 Bft)
15.08.2016 08:00 15,2 C 15,2 C 92 % 1019,0 hPa 0,0 mm 0,0 km/h (0 Bft) W 265 1 min 0,000 mm 0,7 UV-I 162 W/m 13,9 C 0,0 km/h (0 Bft)
15.08.2016 08:01 15,2 C 15,2 C 92 % 1019,0 hPa 0,0 mm 0,0 km/h (0 Bft) W 265 0 min 0,051 mm 0,7 UV-I 125 W/m 13,9 C 0,0 km/h (0 Bft)
15.08.2016 08:02 15,3 C 15,3 C 92 % 1018,9 hPa 0,0 mm 0,0 km/h (0 Bft) W 265 0 min 0,000 mm 0,7 UV-I 132 W/m 14,0 C 0,0 km/h (0 Bft)
15.08.2016 08:03 15,3 C 15,3 C 92 % 1019,0 hPa 0,0 mm 0,0 km/h (0 Bft) W 265 0 min 0,000 mm 0,7 UV-I 132 W/m 14,0 C 0,0 km/h (0 Bft)
15.08.2016 08:04 15,3 C 15,3 C 92 % 1019,0 hPa 0,0 mm 0,0 km/h (0 Bft) W 265 0 min 0,000 mm 0,7 UV-I 135 W/m 14,0 C 0,0 km/h (0 Bft)
15.08.2016 08:05 15,4 C 15,4 C 92 % 1019,0 hPa 0,0 mm 0,0 km/h (0 Bft) W 265 0 min 0,000 mm 0,7 UV-I 137 W/m 14,1 C 0,0 km/h (0 Bft)
15.08.2016 08:06 15,4 C 15,4 C 92 % 1019,0 hPa 0,0 mm 0,0 km/h (0 Bft) W 265 0 min 0,000 mm 0,7 UV-I 134 W/m 14,1 C 0,0 km/h (0 Bft)
15.08.2016 08:07 15,5 C 15,5 C 93 % 1019,0 hPa 0,0 mm 0,0 km/h (0 Bft) W 265 0 min 0,000 mm 0,7 UV-I 128 W/m 14,4 C 0,0 km/h (0 Bft)
15.08.2016 08:08 15,5 C 15,5 C 92 % 1019,0 hPa 0,0 mm 0,0 km/h (0 Bft) W 265 0 min 0,000 mm 0,8 UV-I 134 W/m 14,2 C 0,0 km/h (0 Bft)
15.08.2016 08:09 15,6 C 15,6 C 92 % 1019,0 hPa 0,0 mm 0,0 km/h (0 Bft) W 265 0 min 0,000 mm 0,8 UV-I 139 W/m 14,3 C 0,0 km/h (0 Bft)
15.08.2016 08:10 15,6 C 15,6 C 92 % 1019,0 hPa 0,0 mm 0,0 km/h (0 Bft) W 265 0 min 0,000 mm 0,8 UV-I 139 W/m 14,3 C 0,0 km/h (0 Bft)
15.08.2016 08:11 15,6 C 15,6 C 91 % 1019,0 hPa 0,0 mm 0,0 km/h (0 Bft) W 265 0 min 0,000 mm 0,8 UV-I 144 W/m 14,1 C 0,0 km/h (0 Bft)
15.08.2016 08:12 15,6 C 15,6 C 92 % 1019,0 hPa 0,0 mm 0,0 km/h (0 Bft) W 265 0 min 0,000 mm 0,8 UV-I 148 W/m 14,3 C 0,0 km/h (0 Bft)
15.08.2016 08:13 15,6 C 15,6 C 92 % 1019,0 hPa 0,0 mm 0,0 km/h (0 Bft) W 265 0 min 0,000 mm 0,8 UV-I 160 W/m 14,3 C 0,0 km/h (0 Bft)
15.08.2016 08:14 15,6 C 15,6 C 91 % 1019,0 hPa 0,0 mm 0,0 km/h (0 Bft) W 265 0 min 0,000 mm 0,9 UV-I 160 W/m 14,1 C 0,0 km/h (0 Bft)
15.08.2016 08:15 15,6 C 15,6 C 92 % 1019,0 hPa 0,0 mm 0,0 km/h (0 Bft) W 265 0 min 0,000 mm 0,9 UV-I 158 W/m 14,3 C 0,0 km/h (0 Bft)
15.08.2016 08:16 15,6 C 15,6 C 92 % 1019,0 hPa 0,0 mm 0,0 km/h (0 Bft) W 265 0 min 0,000 mm 0,9 UV-I 156 W/m 14,3 C 0,0 km/h (0 Bft)
15.08.2016 08:17 15,7 C 15,7 C 92 % 1019,0 hPa 0,0 mm 0,0 km/h (0 Bft) W 265 0 min 0,000 mm 0,9 UV-I 160 W/m 14,4 C 0,0 km/h (0 Bft)
15.08.2016 08:18 15,7 C 15,7 C 92 % 1019,0 hPa 0,0 mm 0,0 km/h (0 Bft) W 265 0 min 0,000 mm 0,9 UV-I 158 W/m 14,4 C 0,0 km/h (0 Bft)
15.08.2016 08:19 15,7 C 15,7 C 91 % 1019,0 hPa 0,0 mm 0,0 km/h (0 Bft) W 265 0 min 0,000 mm 0,9 UV-I 156 W/m 14,2 C 0,0 km/h (0 Bft)
15.08.2016 08:20 15,7 C 15,7 C 91 % 1019,0 hPa 0,0 mm 0,0 km/h (0 Bft) W 265 0 min 0,000 mm 0,9 UV-I 158 W/m 14,2 C 0,0 km/h (0 Bft)
15.08.2016 08:21 15,7 C 15,7 C 91 % 1019,0 hPa 0,0 mm 0,0 km/h (0 Bft) W 265 0 min 0,000 mm 0,9 UV-I 160 W/m 14,2 C 0,0 km/h (0 Bft)
15.08.2016 08:22 15,8 C 15,8 C 91 % 1019,0 hPa 0,0 mm 0,0 km/h (0 Bft) W 265 0 min 0,000 mm 1,0 UV-I 165 W/m 14,3 C 0,0 km/h (0 Bft)
15.08.2016 08:23 15,8 C 15,8 C 91 % 1019,1 hPa 0,0 mm 0,0 km/h (0 Bft) W 265 0 min 0,000 mm 1,0 UV-I 172 W/m 14,3 C 0,0 km/h (0 Bft)
15.08.2016 08:24 15,8 C 15,8 C 91 % 1019,1 hPa 0,0 mm 0,0 km/h (0 Bft) W 265 0 min 0,000 mm 1,0 UV-I 162 W/m 14,3 C 0,0 km/h (0 Bft)
15.08.2016 08:25 15,9 C 15,9 C 91 % 1019,1 hPa 0,0 mm 1,3 km/h (1 Bft) W 281 0 min 0,000 mm 1,0 UV-I 178 W/m 14,4 C 3,2 km/h (1 Bft)
15.08.2016 08:26 16,0 C 16,0 C 91 % 1019,1 hPa 0,0 mm 1,5 km/h (1 Bft) W 281 0 min 0,000 mm 1,0 UV-I 188 W/m 14,5 C 3,2 km/h (1 Bft)
15.08.2016 08:27 16,1 C 16,1 C 92 % 1019,1 hPa 0,0 mm 0,7 km/h (0 Bft) W 281 0 min 0,000 mm 1,0 UV-I 165 W/m 14,8 C 1,6 km/h (1 Bft)
15.08.2016 08:28 16,2 C 16,2 C 92 % 1019,1 hPa 0,0 mm 0,7 km/h (0 Bft) W 281 0 min 0,000 mm 1,0 UV-I 171 W/m 14,9 C 1,6 km/h (1 Bft)
15.08.2016 08:29 16,2 C 16,2 C 90 % 1019,1 hPa 0,0 mm 0,3 km/h (0 Bft) W 281 0 min 0,000 mm 1,0 UV-I 167 W/m 14,6 C 1,6 km/h (1 Bft)
15.08.2016 08:30 16,2 C 16,2 C 91 % 1019,0 hPa 0,0 mm 0,1 km/h (0 Bft) W 281 0 min 0,000 mm 1,0 UV-I 156 W/m 14,7 C 1,6 km/h (1 Bft)
15.08.2016 08:31 16,2 C 16,2 C 90 % 1019,1 hPa 0,0 mm 0,3 km/h (0 Bft) W 281 0 min 0,000 mm 1,0 UV-I 151 W/m 14,6 C 1,6 km/h (1 Bft)
15.08.2016 08:32 16,2 C 16,2 C 91 % 1019,1 hPa 0,0 mm 0,1 km/h (0 Bft) W 281 0 min 0,000 mm 1,0 UV-I 153 W/m 14,7 C 1,6 km/h (1 Bft)
15.08.2016 08:33 16,2 C 16,2 C 90 % 1019,1 hPa 0,0 mm 1,2 km/h (1 Bft) W 281 0 min 0,000 mm 1,0 UV-I 158 W/m 14,6 C 1,6 km/h (1 Bft)
15.08.2016 08:34 16,3 C 16,3 C 90 % 1019,1 hPa 0,0 mm 0,0 km/h (0 Bft) W 281 0 min 0,000 mm 1,0 UV-I 151 W/m 14,7 C 0,0 km/h (0 Bft)
15.08.2016 08:35 16,3 C 16,3 C 91 % 1019,1 hPa 0,0 mm 0,0 km/h (0 Bft) W 281 0 min 0,000 mm 1,0 UV-I 149 W/m 14,8 C 0,0 km/h (0 Bft)
15.08.2016 08:36 16,3 C 16,3 C 91 % 1019,1 hPa 0,0 mm 0,0 km/h (0 Bft) W 281 0 min 0,000 mm 1,0 UV-I 163 W/m 14,8 C 0,0 km/h (0 Bft)
15.08.2016 08:37 16,4 C 16,4 C 91 % 1019,1 hPa 0,0 mm 0,5 km/h (0 Bft) W 281 0 min 0,000 mm 1,0 UV-I 169 W/m 14,9 C 1,6 km/h (1 Bft)
15.08.2016 08:38 16,4 C 16,4 C 90 % 1019,2 hPa 0,0 mm 1,2 km/h (1 Bft) W 281 0 min 0,000 mm 1,0 UV-I 158 W/m 14,8 C 3,2 km/h (1 Bft)
15.08.2016 08:39 16,4 C 16,4 C 90 % 1019,2 hPa 0,0 mm 1,7 km/h (1 Bft) W-NW 288 0 min 0,000 mm 1,0 UV-I 153 W/m 14,8 C 3,2 km/h (1 Bft)
15.08.2016 08:40 16,4 C 16,5 C 90 % 1019,2 hPa 0,0 mm 1,7 km/h (1 Bft) W-NW 288 0 min 0,000 mm 1,0 UV-I 156 W/m 14,8 C 3,2 km/h (1 Bft)
15.08.2016 08:41 16,5 C 16,6 C 90 % 1019,2 hPa 0,0 mm 1,7 km/h (1 Bft) W-NW 288 0 min 0,000 mm 1,0 UV-I 151 W/m 14,9 C 3,2 km/h (1 Bft)
15.08.2016 08:42 16,6 C 16,6 C 90 % 1019,2 hPa 0,0 mm 1,9 km/h (1 Bft) W-NW 288 0 min 0,000 mm 1,0 UV-I 158 W/m 15,0 C 3,2 km/h (1 Bft)
15.08.2016 08:43 16,6 C 16,6 C 90 % 1019,2 hPa 0,0 mm 1,2 km/h (1 Bft) W-NW 288 0 min 0,000 mm 1,0 UV-I 151 W/m 15,0 C 1,6 km/h (1 Bft)
15.08.2016 08:44 16,6 C 16,6 C 88 % 1019,2 hPa 0,0 mm 1,0 km/h (0 Bft) W-NW 288 0 min 0,000 mm 1,0 UV-I 156 W/m 14,6 C 1,6 km/h (1 Bft)
15.08.2016 08:45 16,6 C 16,6 C 89 % 1019,3 hPa 0,0 mm 0,1 km/h (0 Bft) W-NW 288 0 min 0,000 mm 1,0 UV-I 160 W/m 14,8 C 1,6 km/h (1 Bft)
15.08.2016 08:46 16,6 C 16,6 C 88 % 1019,3 hPa 0,0 mm 0,1 km/h (0 Bft) W-NW 288 0 min 0,000 mm 1,0 UV-I 158 W/m 14,6 C 1,6 km/h (1 Bft)
15.08.2016 08:47 16,6 C 16,6 C 88 % 1019,3 hPa 0,0 mm 1,3 km/h (1 Bft) W-NW 288 0 min 0,000 mm 1,0 UV-I 151 W/m 14,6 C 1,6 km/h (1 Bft)
15.08.2016 08:48 16,6 C 16,6 C 88 % 1019,3 hPa 0,0 mm 1,6 km/h (1 Bft) W-NW 288 0 min 0,000 mm 1,0 UV-I 134 W/m 14,6 C 3,2 km/h (1 Bft)
15.08.2016 08:49 16,7 C 16,7 C 88 % 1019,3 hPa 0,0 mm 1,1 km/h (1 Bft) W-NW 288 0 min 0,000 mm 1,0 UV-I 132 W/m 14,7 C 1,6 km/h (1 Bft)
15.08.2016 08:50 16,7 C 16,7 C 89 % 1019,3 hPa 0,0 mm 0,8 km/h (0 Bft) W-NW 288 0 min 0,000 mm 1,0 UV-I 134 W/m 14,9 C 1,6 km/h (1 Bft)
15.08.2016 08:51 16,7 C 16,7 C 88 % 1019,3 hPa 0,0 mm 0,1 km/h (0 Bft) W-NW 288 0 min 0,000 mm 1,0 UV-I 132 W/m 14,7 C 1,6 km/h (1 Bft)
15.08.2016 08:52 16,7 C 16,7 C 90 % 1019,4 hPa 0,0 mm 0,2 km/h (0 Bft) W-NW 288 0 min 0,000 mm 1,0 UV-I 132 W/m 15,0 C 1,6 km/h (1 Bft)
15.08.2016 08:53 16,7 C 16,7 C 88 % 1019,4 hPa 0,0 mm 0,1 km/h (0 Bft) W-NW 288 0 min 0,000 mm 1,0 UV-I 132 W/m 14,7 C 1,6 km/h (1 Bft)
15.08.2016 08:54 16,7 C 16,7 C 89 % 1019,3 hPa 0,0 mm 1,5 km/h (1 Bft) W-NW 288 0 min 0,000 mm 1,0 UV-I 130 W/m 14,9 C 3,2 km/h (1 Bft)
15.08.2016 08:55 16,7 C 16,8 C 89 % 1019,3 hPa 0,0 mm 2,2 km/h (1 Bft) W-NW 286 0 min 0,000 mm 1,0 UV-I 130 W/m 14,9 C 3,2 km/h (1 Bft)
15.08.2016 08:56 16,7 C 16,8 C 89 % 1019,4 hPa 0,0 mm 3,2 km/h (1 Bft) W 268 0 min 0,000 mm 1,0 UV-I 128 W/m 14,9 C 3,2 km/h (1 Bft)
15.08.2016 08:57 16,8 C 16,8 C 89 % 1019,4 hPa 0,0 mm 3,1 km/h (1 Bft) W 268 0 min 0,000 mm 0,9 UV-I 127 W/m 15,0 C 4,8 km/h (1 Bft)
15.08.2016 08:58 16,8 C 16,8 C 88 % 1019,4 hPa 0,0 mm 3,1 km/h (1 Bft) W 268 0 min 0,000 mm 0,9 UV-I 125 W/m 14,8 C 3,2 km/h (1 Bft)
15.08.2016 08:59 16,8 C 16,8 C 88 % 1019,4 hPa 0,0 mm 1,0 km/h (0 Bft) W 268 0 min 0,000 mm 0,9 UV-I 116 W/m 14,8 C 1,6 km/h (1 Bft)
15.08.2016 09:00 16,8 C 16,8 C 88 % 1019,4 hPa 0,0 mm 0,4 km/h (0 Bft) W 268 0 min 0,076 mm 0,9 UV-I 114 W/m 14,8 C 1,6 km/h (1 Bft)
15.08.2016 09:01 16,8 C 16,8 C 88 % 1019,4 hPa 0,0 mm 0,2 km/h (0 Bft) W 268 0 min 0,000 mm 0,8 UV-I 113 W/m 14,8 C 1,6 km/h (1 Bft)
15.08.2016 09:02 16,8 C 16,8 C 88 % 1019,3 hPa 0,0 mm 0,9 km/h (0 Bft) W 265 0 min 0,000 mm 0,8 UV-I 113 W/m 14,8 C 3,2 km/h (1 Bft)
15.08.2016 09:03 16,8 C 16,8 C 88 % 1019,3 hPa 0,0 mm 0,4 km/h (0 Bft) W 265 0 min 0,000 mm 0,8 UV-I 113 W/m 14,8 C 1,6 km/h (1 Bft)
15.08.2016 09:04 16,8 C 16,8 C 88 % 1019,3 hPa 0,0 mm 1,3 km/h (1 Bft) W 265 0 min 0,000 mm 0,8 UV-I 111 W/m 14,8 C 3,2 km/h (1 Bft)
15.08.2016 09:05 16,8 C 16,8 C 89 % 1019,2 hPa 0,0 mm 0,7 km/h (0 Bft) W 265 0 min 0,000 mm 0,8 UV-I 105 W/m 15,0 C 1,6 km/h (1 Bft)
15.08.2016 09:06 16,8 C 16,8 C 89 % 1019,2 hPa 0,0 mm 0,0 km/h (0 Bft) W 265 0 min 0,000 mm 0,8 UV-I 104 W/m 15,0 C 0,0 km/h (0 Bft)
15.08.2016 09:07 16,8 C 16,8 C 90 % 1019,2 hPa 0,0 mm 0,0 km/h (0 Bft) W 265 0 min 0,000 mm 0,8 UV-I 102 W/m 15,1 C 0,0 km/h (0 Bft)
15.08.2016 09:08 16,7 C 16,8 C 90 % 1019,2 hPa 0,0 mm 0,0 km/h (0 Bft) W 265 0 min 0,000 mm 0,8 UV-I 98 W/m 15,0 C 0,0 km/h (0 Bft)
15.08.2016 09:09 16,7 C 16,7 C 90 % 1019,2 hPa 0,0 mm 0,0 km/h (0 Bft) W 265 0 min 0,000 mm 0,8 UV-I 97 W/m 15,0 C 0,0 km/h (0 Bft)
15.08.2016 09:10 16,6 C 16,7 C 89 % 1019,2 hPa 0,0 mm 0,0 km/h (0 Bft) W 265 0 min 0,000 mm 0,8 UV-I 97 W/m 14,8 C 0,0 km/h (0 Bft)
15.08.2016 09:11 16,6 C 16,6 C 89 % 1019,2 hPa 0,0 mm 0,0 km/h (0 Bft) W 265 0 min 0,000 mm 0,8 UV-I 97 W/m 14,8 C 0,0 km/h (0 Bft)
15.08.2016 09:12 16,6 C 16,7 C 90 % 1019,2 hPa 0,0 mm 0,0 km/h (0 Bft) W 265 0 min 0,000 mm 0,8 UV-I 98 W/m 15,0 C 0,0 km/h (0 Bft)
15.08.2016 09:13 16,7 C 16,7 C 91 % 1019,2 hPa 0,0 mm 0,0 km/h (0 Bft) W 265 0 min 0,000 mm 0,8 UV-I 102 W/m 15,2 C 0,0 km/h (0 Bft)
15.08.2016 09:14 16,8 C 16,8 C 89 % 1019,3 hPa 0,0 mm 0,0 km/h (0 Bft) W 265 0 min 0,000 mm 0,8 UV-I 105 W/m 15,0 C 0,0 km/h (0 Bft)
15.08.2016 09:15 16,8 C 16,8 C 90 % 1019,3 hPa 0,0 mm 0,0 km/h (0 Bft) W 265 0 min 0,000 mm 0,9 UV-I 109 W/m 15,1 C 0,0 km/h (0 Bft)
15.08.2016 09:16 16,8 C 16,8 C 90 % 1019,2 hPa 0,0 mm 0,0 km/h (0 Bft) W 265 0 min 0,000 mm 0,9 UV-I 113 W/m 15,1 C 0,0 km/h (0 Bft)
15.08.2016 09:17 16,8 C 16,8 C 89 % 1019,3 hPa 0,0 mm 0,0 km/h (0 Bft) W 265 0 min 0,000 mm 0,9 UV-I 121 W/m 15,0 C 0,0 km/h (0 Bft)
15.08.2016 09:18 16,8 C 16,8 C 89 % 1019,3 hPa 0,0 mm 0,0 km/h (0 Bft) W 265 0 min 0,000 mm 1,0 UV-I 125 W/m 15,0 C 0,0 km/h (0 Bft)
15.08.2016 09:19 16,8 C 16,8 C 89 % 1019,2 hPa 0,0 mm 0,0 km/h (0 Bft) W 265 0 min 0,000 mm 1,0 UV-I 128 W/m 15,0 C 0,0 km/h (0 Bft)
15.08.2016 09:20 16,9 C 16,9 C 89 % 1019,3 hPa 0,0 mm 0,0 km/h (0 Bft) W 265 0 min 0,000 mm 1,0 UV-I 132 W/m 15,1 C 0,0 km/h (0 Bft)
15.08.2016 09:21 16,9 C 16,9 C 89 % 1019,3 hPa 0,0 mm 0,3 km/h (0 Bft) W 265 0 min 0,000 mm 1,1 UV-I 134 W/m 15,1 C 1,6 km/h (1 Bft)
15.08.2016 09:22 16,9 C 16,9 C 90 % 1019,3 hPa 0,0 mm 0,8 km/h (0 Bft) W 265 0 min 0,000 mm 1,1 UV-I 134 W/m 15,2 C 1,6 km/h (1 Bft)
15.08.2016 09:23 17,0 C 17,0 C 90 % 1019,3 hPa 0,0 mm 0,9 km/h (0 Bft) W 265 0 min 0,000 mm 1,1 UV-I 132 W/m 15,3 C 1,6 km/h (1 Bft)
15.08.2016 09:24 17,1 C 17,1 C 90 % 1019,3 hPa 0,0 mm 0,1 km/h (0 Bft) W 265 0 min 0,000 mm 1,0 UV-I 130 W/m 15,4 C 1,6 km/h (1 Bft)
15.08.2016 09:25 17,1 C 17,1 C 90 % 1019,2 hPa 0,0 mm 0,0 km/h (0 Bft) W 265 0 min 0,000 mm 1,0 UV-I 127 W/m 15,4 C 0,0 km/h (0 Bft)
15.08.2016 09:26 17,1 C 17,1 C 89 % 1019,3 hPa 0,0 mm 0,0 km/h (0 Bft) W 265 0 min 0,000 mm 1,0 UV-I 123 W/m 15,3 C 0,0 km/h (0 Bft)
15.08.2016 09:27 17,1 C 17,1 C 89 % 1019,2 hPa 0,0 mm 0,0 km/h (0 Bft) W 265 0 min 0,000 mm 1,0 UV-I 120 W/m 15,3 C 0,0 km/h (0 Bft)
15.08.2016 09:28 17,2 C 17,2 C 90 % 1019,2 hPa 0,0 mm 0,8 km/h (0 Bft) W 265 0 min 0,000 mm 1,0 UV-I 118 W/m 15,5 C 1,6 km/h (1 Bft)
15.08.2016 09:29 17,1 C 17,2 C 90 % 1019,2 hPa 0,0 mm 1,7 km/h (1 Bft) W 265 0 min 0,000 mm 1,0 UV-I 118 W/m 15,4 C 3,2 km/h (1 Bft)
15.08.2016 09:30 17,1 C 17,1 C 90 % 1019,2 hPa 0,0 mm 1,1 km/h (1 Bft) W 265 0 min 0,000 mm 1,0 UV-I 118 W/m 15,4 C 1,6 km/h (1 Bft)
15.08.2016 09:31 17,0 C 17,1 C 90 % 1019,1 hPa 0,0 mm 0,4 km/h (0 Bft) W 265 0 min 0,000 mm 1,0 UV-I 118 W/m 15,3 C 1,6 km/h (1 Bft)
15.08.2016 09:32 17,0 C 17,0 C 90 % 1019,2 hPa 0,0 mm 0,1 km/h (0 Bft) W 265 0 min 0,000 mm 1,1 UV-I 120 W/m 15,3 C 1,6 km/h (1 Bft)
15.08.2016 09:33 17,0 C 17,1 C 90 % 1019,1 hPa 0,0 mm 0,0 km/h (0 Bft) W 265 0 min 0,000 mm 1,1 UV-I 121 W/m 15,3 C 0,0 km/h (0 Bft)
15.08.2016 09:34 17,1 C 17,1 C 91 % 1019,1 hPa 0,0 mm 1,1 km/h (1 Bft) W 265 0 min 0,000 mm 1,1 UV-I 127 W/m 15,6 C 1,6 km/h (1 Bft)
15.08.2016 09:35 17,1 C 17,1 C 90 % 1019,2 hPa 0,0 mm 1,1 km/h (1 Bft) W 265 0 min 0,000 mm 1,1 UV-I 128 W/m 15,4 C 1,6 km/h (1 Bft)
15.08.2016 09:36 17,2 C 17,2 C 89 % 1019,1 hPa 0,0 mm 1,6 km/h (1 Bft) W 265 0 min 0,000 mm 1,1 UV-I 132 W/m 15,4 C 3,2 km/h (1 Bft)
15.08.2016 09:37 17,2 C 17,2 C 90 % 1019,1 hPa 0,0 mm 0,8 km/h (0 Bft) W 265 0 min 0,000 mm 1,2 UV-I 135 W/m 15,5 C 1,6 km/h (1 Bft)
15.08.2016 09:38 17,2 C 17,2 C 90 % 1019,2 hPa 0,0 mm 1,3 km/h (1 Bft) W 265 0 min 0,000 mm 1,2 UV-I 137 W/m 15,5 C 1,6 km/h (1 Bft)
15.08.2016 09:39 17,3 C 17,3 C 90 % 1019,1 hPa 0,0 mm 0,8 km/h (0 Bft) W 265 0 min 0,000 mm 1,2 UV-I 139 W/m 15,6 C 1,6 km/h (1 Bft)
15.08.2016 09:40 17,3 C 17,3 C 89 % 1019,2 hPa 0,0 mm 0,3 km/h (0 Bft) W 265 0 min 0,000 mm 1,2 UV-I 139 W/m 15,5 C 1,6 km/h (1 Bft)
15.08.2016 09:41 17,2 C 17,3 C 89 % 1019,1 hPa 0,0 mm 0,2 km/h (0 Bft) W 265 0 min 0,000 mm 1,2 UV-I 137 W/m 15,4 C 1,6 km/h (1 Bft)
15.08.2016 09:42 17,2 C 17,3 C 88 % 1019,1 hPa 0,0 mm 1,1 km/h (1 Bft) W 265 0 min 0,000 mm 1,1 UV-I 135 W/m 15,2 C 3,2 km/h (1 Bft)
15.08.2016 09:43 17,3 C 17,3 C 89 % 1019,1 hPa 0,0 mm 1,9 km/h (1 Bft) W 265 0 min 0,000 mm 1,1 UV-I 134 W/m 15,5 C 3,2 km/h (1 Bft)
15.08.2016 09:44 17,3 C 17,3 C 89 % 1019,1 hPa 0,0 mm 1,7 km/h (1 Bft) W 265 0 min 0,000 mm 1,1 UV-I 130 W/m 15,5 C 3,2 km/h (1 Bft)
15.08.2016 09:45 17,3 C 17,3 C 89 % 1019,1 hPa 0,0 mm 1,7 km/h (1 Bft) W 265 0 min 0,000 mm 1,1 UV-I 128 W/m 15,5 C 3,2 km/h (1 Bft)
15.08.2016 09:46 17,3 C 17,3 C 89 % 1019,1 hPa 0,0 mm 1,9 km/h (1 Bft) W 265 0 min 0,000 mm 1,1 UV-I 121 W/m 15,5 C 3,2 km/h (1 Bft)
15.08.2016 09:47 17,3 C 17,3 C 89 % 1019,1 hPa 0,0 mm 1,5 km/h (1 Bft) W 265 0 min 0,000 mm 1,0 UV-I 118 W/m 15,5 C 3,2 km/h (1 Bft)
15.08.2016 09:48 17,3 C 17,3 C 89 % 1019,1 hPa 0,0 mm 0,7 km/h (0 Bft) W 265 0 min 0,000 mm 1,0 UV-I 114 W/m 15,5 C 1,6 km/h (1 Bft)
15.08.2016 09:49 17,3 C 17,4 C 89 % 1019,1 hPa 0,0 mm 2,0 km/h (1 Bft) W 265 0 min 0,000 mm 1,0 UV-I 113 W/m 15,5 C 3,2 km/h (1 Bft)
15.08.2016 09:50 17,4 C 17,4 C 89 % 1019,1 hPa 0,0 mm 2,0 km/h (1 Bft) W 266 0 min 0,000 mm 1,0 UV-I 113 W/m 15,6 C 3,2 km/h (1 Bft)
15.08.2016 09:51 17,4 C 17,4 C 89 % 1019,2 hPa 0,0 mm 1,5 km/h (1 Bft) W 266 0 min 0,000 mm 1,0 UV-I 107 W/m 15,6 C 3,2 km/h (1 Bft)
15.08.2016 09:52 17,4 C 17,4 C 88 % 1019,2 hPa 0,0 mm 2,3 km/h (1 Bft) W-NW 290 0 min 0,000 mm 1,0 UV-I 107 W/m 15,4 C 3,2 km/h (1 Bft)
15.08.2016 09:53 17,3 C 17,4 C 88 % 1019,3 hPa 0,0 mm 1,9 km/h (1 Bft) W-NW 290 0 min 0,000 mm 1,0 UV-I 107 W/m 15,3 C 3,2 km/h (1 Bft)
15.08.2016 09:54 17,3 C 17,3 C 88 % 1019,3 hPa 0,0 mm 1,3 km/h (1 Bft) W-NW 290 0 min 0,000 mm 1,0 UV-I 109 W/m 15,3 C 3,2 km/h (1 Bft)
15.08.2016 09:55 17,3 C 17,4 C 88 % 1019,2 hPa 0,0 mm 1,5 km/h (1 Bft) W-NW 291 0 min 0,000 mm 1,0 UV-I 111 W/m 15,3 C 3,2 km/h (1 Bft)
15.08.2016 09:56 17,3 C 17,3 C 88 % 1019,2 hPa 0,0 mm 2,3 km/h (1 Bft) W-NW 298 0 min 0,000 mm 1,1 UV-I 113 W/m 15,3 C 3,2 km/h (1 Bft)
15.08.2016 09:57 17,3 C 17,3 C 88 % 1019,2 hPa 0,0 mm 0,9 km/h (0 Bft) W-NW 298 0 min 0,000 mm 1,1 UV-I 116 W/m 15,3 C 1,6 km/h (1 Bft)
15.08.2016 09:58 17,3 C 17,3 C 89 % 1019,2 hPa 0,0 mm 1,0 km/h (0 Bft) W-NW 298 0 min 0,000 mm 1,1 UV-I 123 W/m 15,5 C 1,6 km/h (1 Bft)
15.08.2016 09:59 17,3 C 17,3 C 89 % 1019,2 hPa 0,0 mm 1,7 km/h (1 Bft) W-NW 298 0 min 0,000 mm 1,2 UV-I 127 W/m 15,5 C 3,2 km/h (1 Bft)
15.08.2016 10:00 17,4 C 17,4 C 89 % 1019,2 hPa 0,0 mm 1,4 km/h (1 Bft) W-NW 298 0 min 0,076 mm 1,2 UV-I 130 W/m 15,6 C 3,2 km/h (1 Bft)
15.08.2016 10:01 17,3 C 17,4 C 89 % 1019,2 hPa 0,0 mm 1,0 km/h (0 Bft) W-NW 298 0 min 0,000 mm 1,3 UV-I 132 W/m 15,5 C 1,6 km/h (1 Bft)
15.08.2016 10:02 17,3 C 17,4 C 88 % 1019,2 hPa 0,0 mm 1,0 km/h (0 Bft) W-NW 298 0 min 0,000 mm 1,3 UV-I 135 W/m 15,3 C 1,6 km/h (1 Bft)
15.08.2016 10:03 17,4 C 17,4 C 89 % 1019,2 hPa 0,0 mm 0,1 km/h (0 Bft) W-NW 298 0 min 0,000 mm 1,3 UV-I 137 W/m 15,6 C 1,6 km/h (1 Bft)
15.08.2016 10:04 17,3 C 17,4 C 88 % 1019,3 hPa 0,0 mm 1,2 km/h (1 Bft) W-NW 298 0 min 0,000 mm 1,3 UV-I 141 W/m 15,3 C 1,6 km/h (1 Bft)
15.08.2016 10:05 17,3 C 17,3 C 88 % 1019,3 hPa 0,0 mm 1,6 km/h (1 Bft) W-NW 298 0 min 0,000 mm 1,3 UV-I 142 W/m 15,3 C 3,2 km/h (1 Bft)
15.08.2016 10:06 17,3 C 17,4 C 88 % 1019,3 hPa 0,0 mm 0,3 km/h (0 Bft) W-NW 298 0 min 0,000 mm 1,3 UV-I 142 W/m 15,3 C 1,6 km/h (1 Bft)
15.08.2016 10:07 17,3 C 17,4 C 88 % 1019,4 hPa 0,0 mm 2,5 km/h (1 Bft) W-NW 297 0 min 0,000 mm 1,3 UV-I 144 W/m 15,3 C 3,2 km/h (1 Bft)
15.08.2016 10:08 17,4 C 17,4 C 90 % 1019,5 hPa 0,0 mm 2,1 km/h (1 Bft) W-NW 297 0 min 0,000 mm 1,3 UV-I 144 W/m 15,7 C 3,2 km/h (1 Bft)
15.08.2016 10:09 17,4 C 17,4 C 89 % 1019,5 hPa 0,0 mm 2,3 km/h (1 Bft) W-NW 297 0 min 0,000 mm 1,3 UV-I 144 W/m 15,6 C 3,2 km/h (1 Bft)
15.08.2016 10:10 17,4 C 17,4 C 90 % 1019,6 hPa 0,0 mm 1,8 km/h (1 Bft) W-NW 297 0 min 0,000 mm 1,3 UV-I 142 W/m 15,7 C 3,2 km/h (1 Bft)
15.08.2016 10:11 17,4 C 17,4 C 88 % 1019,5 hPa 0,0 mm 0,9 km/h (0 Bft) W-NW 297 0 min 0,000 mm 1,3 UV-I 141 W/m 15,4 C 1,6 km/h (1 Bft)
15.08.2016 10:12 17,4 C 17,4 C 89 % 1019,5 hPa 0,0 mm 0,9 km/h (0 Bft) W-NW 297 0 min 0,000 mm 1,3 UV-I 139 W/m 15,6 C 1,6 km/h (1 Bft)
15.08.2016 10:13 17,4 C 17,4 C 88 % 1019,5 hPa 0,0 mm 1,5 km/h (1 Bft) W-NW 297 0 min 0,000 mm 1,3 UV-I 139 W/m 15,4 C 3,2 km/h (1 Bft)
15.08.2016 10:14 17,4 C 17,4 C 88 % 1019,5 hPa 0,0 mm 0,8 km/h (0 Bft) W-NW 297 0 min 0,000 mm 1,3 UV-I 137 W/m 15,4 C 1,6 km/h (1 Bft)
15.08.2016 10:15 17,4 C 17,4 C 89 % 1019,5 hPa 0,0 mm 2,7 km/h (1 Bft) W-SW 241 0 min 0,000 mm 1,3 UV-I 135 W/m 15,6 C 4,8 km/h (1 Bft)
15.08.2016 10:16 17,4 C 17,4 C 88 % 1019,5 hPa 0,0 mm 1,8 km/h (1 Bft) W-SW 241 0 min 0,000 mm 1,3 UV-I 135 W/m 15,4 C 4,8 km/h (1 Bft)
15.08.2016 10:17 17,4 C 17,4 C 88 % 1019,5 hPa 0,0 mm 2,9 km/h (1 Bft) W-SW 245 0 min 0,000 mm 1,3 UV-I 135 W/m 15,4 C 4,8 km/h (1 Bft)
15.08.2016 10:18 17,4 C 17,4 C 89 % 1019,6 hPa 0,0 mm 2,4 km/h (1 Bft) W-SW 245 0 min 0,000 mm 1,3 UV-I 135 W/m 15,6 C 3,2 km/h (1 Bft)
15.08.2016 10:19 17,4 C 17,4 C 89 % 1019,6 hPa 0,0 mm 1,9 km/h (1 Bft) W-SW 245 0 min 0,000 mm 1,3 UV-I 135 W/m 15,6 C 3,2 km/h (1 Bft)
15.08.2016 10:20 17,4 C 17,4 C 89 % 1019,6 hPa 0,0 mm 4,4 km/h (1 Bft) W-SW 248 0 min 0,000 mm 1,3 UV-I 135 W/m 15,6 C 6,4 km/h (2 Bft)
15.08.2016 10:21 17,4 C 17,4 C 89 % 1019,5 hPa 0,0 mm 2,0 km/h (1 Bft) W-SW 245 0 min 0,000 mm 1,3 UV-I 135 W/m 15,6 C 4,8 km/h (1 Bft)
15.08.2016 10:22 17,4 C 17,4 C 89 % 1019,6 hPa 0,0 mm 3,0 km/h (1 Bft) W-SW 238 0 min 0,000 mm 1,3 UV-I 137 W/m 15,6 C 4,8 km/h (1 Bft)
15.08.2016 10:23 17,4 C 17,5 C 89 % 1019,5 hPa 0,0 mm 2,0 km/h (1 Bft) W-SW 240 0 min 0,000 mm 1,3 UV-I 137 W/m 15,6 C 3,2 km/h (1 Bft)
15.08.2016 10:24 17,4 C 17,5 C 88 % 1019,5 hPa 0,0 mm 3,5 km/h (1 Bft) W-SW 242 0 min 0,000 mm 1,3 UV-I 135 W/m 15,4 C 4,8 km/h (1 Bft)
15.08.2016 10:25 17,4 C 17,5 C 88 % 1019,5 hPa 0,0 mm 2,8 km/h (1 Bft) SW 229 0 min 0,000 mm 1,3 UV-I 135 W/m 15,4 C 4,8 km/h (1 Bft)
15.08.2016 10:26 17,4 C 17,4 C 88 % 1019,5 hPa 0,0 mm 1,2 km/h (1 Bft) SW 229 0 min 0,000 mm 1,3 UV-I 134 W/m 15,4 C 3,2 km/h (1 Bft)
15.08.2016 10:27 17,4 C 17,4 C 88 % 1019,4 hPa 0,0 mm 0,3 km/h (0 Bft) SW 229 0 min 0,000 mm 1,3 UV-I 134 W/m 15,4 C 1,6 km/h (1 Bft)
15.08.2016 10:28 17,4 C 17,4 C 88 % 1019,4 hPa 0,0 mm 1,1 km/h (1 Bft) SW 229 0 min 0,000 mm 1,3 UV-I 134 W/m 15,4 C 1,6 km/h (1 Bft)
15.08.2016 10:29 17,4 C 17,5 C 88 % 1019,5 hPa 0,0 mm 1,3 km/h (1 Bft) SW 229 0 min 0,000 mm 1,3 UV-I 135 W/m 15,4 C 1,6 km/h (1 Bft)
15.08.2016 10:30 17,4 C 17,5 C 88 % 1019,5 hPa 0,0 mm 1,1 km/h (1 Bft) SW 229 0 min 0,000 mm 1,3 UV-I 137 W/m 15,4 C 1,6 km/h (1 Bft)
15.08.2016 10:31 17,4 C 17,5 C 88 % 1019,4 hPa 0,0 mm 0,4 km/h (0 Bft) SW 229 0 min 0,000 mm 1,4 UV-I 139 W/m 15,4 C 1,6 km/h (1 Bft)
15.08.2016 10:32 17,5 C 17,5 C 87 % 1019,4 hPa 0,0 mm 0,0 km/h (0 Bft) SW 229 0 min 0,000 mm 1,4 UV-I 141 W/m 15,3 C 0,0 km/h (0 Bft)
15.08.2016 10:33 17,5 C 17,5 C 88 % 1019,4 hPa 0,0 mm 0,0 km/h (0 Bft) SW 229 0 min 0,000 mm 1,4 UV-I 144 W/m 15,5 C 0,0 km/h (0 Bft)
15.08.2016 10:34 17,6 C 17,6 C 88 % 1019,4 hPa 0,0 mm 0,0 km/h (0 Bft) SW 229 0 min 0,000 mm 1,4 UV-I 146 W/m 15,6 C 0,0 km/h (0 Bft)
15.08.2016 10:35 17,6 C 17,6 C 89 % 1019,4 hPa 0,0 mm 0,0 km/h (0 Bft) SW 229 0 min 0,000 mm 1,4 UV-I 148 W/m 15,8 C 0,0 km/h (0 Bft)
15.08.2016 10:36 17,6 C 17,6 C 88 % 1019,4 hPa 0,0 mm 0,0 km/h (0 Bft) SW 229 0 min 0,000 mm 1,5 UV-I 151 W/m 15,6 C 0,0 km/h (0 Bft)
15.08.2016 10:37 17,6 C 17,6 C 88 % 1019,4 hPa 0,0 mm 0,0 km/h (0 Bft) SW 229 0 min 0,000 mm 1,5 UV-I 151 W/m 15,6 C 0,0 km/h (0 Bft)
15.08.2016 10:38 17,6 C 17,6 C 88 % 1019,4 hPa 0,0 mm 0,0 km/h (0 Bft) SW 229 0 min 0,000 mm 1,5 UV-I 158 W/m 15,6 C 0,0 km/h (0 Bft)
15.08.2016 10:39 17,6 C 17,6 C 88 % 1019,4 hPa 0,0 mm 0,0 km/h (0 Bft) SW 229 0 min 0,000 mm 1,6 UV-I 167 W/m 15,6 C 0,0 km/h (0 Bft)
15.08.2016 10:40 17,6 C 17,6 C 88 % 1019,4 hPa 0,0 mm 0,0 km/h (0 Bft) SW 229 0 min 0,000 mm 1,6 UV-I 172 W/m 15,6 C 0,0 km/h (0 Bft)
15.08.2016 10:41 17,6 C 17,6 C 88 % 1019,4 hPa 0,0 mm 0,0 km/h (0 Bft) SW 229 0 min 0,000 mm 1,7 UV-I 178 W/m 15,6 C 0,0 km/h (0 Bft)
15.08.2016 10:42 17,6 C 17,6 C 88 % 1019,4 hPa 0,0 mm 0,0 km/h (0 Bft) SW 229 0 min 0,000 mm 1,7 UV-I 183 W/m 15,6 C 0,0 km/h (0 Bft)
15.08.2016 10:43 17,6 C 17,6 C 88 % 1019,4 hPa 0,0 mm 0,0 km/h (0 Bft) SW 229 0 min 0,000 mm 1,8 UV-I 190 W/m 15,6 C 0,0 km/h (0 Bft)
15.08.2016 10:44 17,7 C 17,7 C 89 % 1019,4 hPa 0,0 mm 0,0 km/h (0 Bft) SW 229 0 min 0,000 mm 1,8 UV-I 193 W/m 15,9 C 0,0 km/h (0 Bft)
15.08.2016 10:45 17,7 C 17,7 C 88 % 1019,4 hPa 0,0 mm 0,0 km/h (0 Bft) SW 229 0 min 0,000 mm 1,8 UV-I 200 W/m 15,7 C 0,0 km/h (0 Bft)
15.08.2016 10:46 17,7 C 17,7 C 87 % 1019,4 hPa 0,0 mm 0,0 km/h (0 Bft) SW 230 0 min 0,000 mm 1,8 UV-I 200 W/m 15,5 C 0,0 km/h (0 Bft)
15.08.2016 10:47 17,7 C 17,7 C 88 % 1019,4 hPa 0,0 mm 2,7 km/h (1 Bft) W 280 0 min 0,000 mm 1,8 UV-I 202 W/m 15,7 C 6,4 km/h (2 Bft)
15.08.2016 10:48 17,7 C 17,7 C 87 % 1019,4 hPa 0,0 mm 4,6 km/h (1 Bft) W 278 0 min 0,000 mm 1,8 UV-I 202 W/m 15,5 C 6,4 km/h (2 Bft)
15.08.2016 10:49 17,7 C 17,8 C 87 % 1019,4 hPa 0,0 mm 1,7 km/h (1 Bft) W 279 0 min 0,000 mm 1,8 UV-I 204 W/m 15,5 C 3,2 km/h (1 Bft)
15.08.2016 10:50 17,8 C 17,8 C 87 % 1019,4 hPa 0,0 mm 3,0 km/h (1 Bft) W-NW 298 0 min 0,000 mm 1,8 UV-I 206 W/m 15,6 C 4,8 km/h (1 Bft)
15.08.2016 10:51 17,8 C 17,8 C 87 % 1019,4 hPa 0,0 mm 3,4 km/h (1 Bft) W-NW 297 0 min 0,000 mm 1,9 UV-I 209 W/m 15,6 C 4,8 km/h (1 Bft)
15.08.2016 10:52 17,8 C 17,8 C 87 % 1019,3 hPa 0,0 mm 2,9 km/h (1 Bft) W 265 0 min 0,000 mm 1,9 UV-I 213 W/m 15,6 C 4,8 km/h (1 Bft)
15.08.2016 10:53 17,8 C 17,8 C 87 % 1019,3 hPa 0,0 mm 1,9 km/h (1 Bft) W 265 0 min 0,000 mm 1,9 UV-I 216 W/m 15,6 C 3,2 km/h (1 Bft)
15.08.2016 10:54 17,8 C 17,8 C 86 % 1019,4 hPa 0,0 mm 2,9 km/h (1 Bft) W-SW 257 0 min 0,000 mm 2,0 UV-I 220 W/m 15,4 C 4,8 km/h (1 Bft)
15.08.2016 10:55 17,8 C 17,8 C 87 % 1019,3 hPa 0,0 mm 2,6 km/h (1 Bft) W-SW 244 0 min 0,000 mm 2,0 UV-I 223 W/m 15,6 C 4,8 km/h (1 Bft)
15.08.2016 10:56 17,8 C 17,8 C 88 % 1019,4 hPa 0,0 mm 3,6 km/h (1 Bft) SW 231 0 min 0,000 mm 2,1 UV-I 230 W/m 15,8 C 4,8 km/h (1 Bft)
15.08.2016 10:57 17,8 C 17,8 C 86 % 1019,4 hPa 0,0 mm 1,9 km/h (1 Bft) SW 231 0 min 0,000 mm 2,1 UV-I 234 W/m 15,4 C 3,2 km/h (1 Bft)
15.08.2016 10:58 17,8 C 17,9 C 88 % 1019,4 hPa 0,0 mm 3,1 km/h (1 Bft) SW 232 0 min 0,000 mm 2,2 UV-I 237 W/m 15,8 C 4,8 km/h (1 Bft)
15.08.2016 10:59 17,8 C 17,8 C 86 % 1019,4 hPa 0,0 mm 4,0 km/h (1 Bft) W 262 0 min 0,000 mm 2,2 UV-I 244 W/m 15,4 C 4,8 km/h (1 Bft)
15.08.2016 11:00 17,8 C 17,8 C 86 % 1019,4 hPa 0,0 mm 1,7 km/h (1 Bft) W 262 0 min 0,000 mm 2,3 UV-I 243 W/m 15,4 C 3,2 km/h (1 Bft)
15.08.2016 11:01 17,8 C 17,8 C 86 % 1019,4 hPa 0,0 mm 0,3 km/h (0 Bft) W 262 0 min 0,102 mm 2,3 UV-I 248 W/m 15,4 C 1,6 km/h (1 Bft)
15.08.2016 11:02 17,8 C 17,8 C 85 % 1019,3 hPa 0,0 mm 1,4 km/h (1 Bft) W 262 0 min 0,000 mm 2,3 UV-I 253 W/m 15,2 C 1,6 km/h (1 Bft)
15.08.2016 11:03 17,8 C 17,8 C 86 % 1019,3 hPa 0,0 mm 2,6 km/h (1 Bft) W-NW 302 0 min 0,000 mm 2,4 UV-I 269 W/m 15,4 C 4,8 km/h (1 Bft)
15.08.2016 11:04 17,9 C 17,9 C 86 % 1019,4 hPa 0,0 mm 2,7 km/h (1 Bft) W-NW 302 0 min 0,000 mm 2,4 UV-I 250 W/m 15,5 C 3,2 km/h (1 Bft)
15.08.2016 11:05 17,9 C 17,9 C 86 % 1019,4 hPa 0,0 mm 2,1 km/h (1 Bft) W-NW 302 0 min 0,000 mm 2,4 UV-I 236 W/m 15,5 C 3,2 km/h (1 Bft)
15.08.2016 11:06 17,9 C 17,9 C 87 % 1019,4 hPa 0,0 mm 2,1 km/h (1 Bft) W-NW 301 0 min 0,000 mm 2,4 UV-I 237 W/m 15,7 C 3,2 km/h (1 Bft)
15.08.2016 11:07 18,0 C 18,0 C 85 % 1019,4 hPa 0,0 mm 2,6 km/h (1 Bft) W-NW 301 0 min 0,000 mm 2,4 UV-I 237 W/m 15,4 C 3,2 km/h (1 Bft)
15.08.2016 11:08 18,1 C 18,1 C 87 % 1019,5 hPa 0,0 mm 0,7 km/h (0 Bft) W-NW 301 0 min 0,000 mm 2,4 UV-I 225 W/m 15,9 C 1,6 km/h (1 Bft)
15.08.2016 11:09 18,2 C 18,2 C 87 % 1019,5 hPa 0,0 mm 3,8 km/h (1 Bft) W-SW 255 0 min 0,000 mm 2,5 UV-I 225 W/m 16,0 C 6,4 km/h (2 Bft)
15.08.2016 11:10 18,2 C 18,2 C 86 % 1019,5 hPa 0,0 mm 3,3 km/h (1 Bft) W-NW 292 0 min 0,000 mm 2,5 UV-I 229 W/m 15,8 C 4,8 km/h (1 Bft)
15.08.2016 11:11 18,2 C 18,2 C 85 % 1019,5 hPa 0,0 mm 4,0 km/h (1 Bft) W 270 0 min 0,000 mm 2,7 UV-I 265 W/m 15,6 C 4,8 km/h (1 Bft)
15.08.2016 11:12 18,2 C 18,2 C 85 % 1019,5 hPa 0,0 mm 2,7 km/h (1 Bft) W 277 0 min 0,000 mm 2,9 UV-I 302 W/m 15,6 C 3,2 km/h (1 Bft)
15.08.2016 11:13 18,2 C 18,2 C 85 % 1019,5 hPa 0,0 mm 1,4 km/h (1 Bft) W 277 0 min 0,000 mm 2,9 UV-I 352 W/m 15,6 C 3,2 km/h (1 Bft)
15.08.2016 11:14 18,3 C 18,3 C 86 % 1019,5 hPa 0,0 mm 1,9 km/h (1 Bft) W 277 1 min 0,000 mm 3,3 UV-I 424 W/m 15,9 C 3,2 km/h (1 Bft)
15.08.2016 11:15 18,3 C 18,4 C 86 % 1019,5 hPa 0,0 mm 1,5 km/h (1 Bft) W 277 1 min 0,000 mm 3,9 UV-I 492 W/m 15,9 C 3,2 km/h (1 Bft)
15.08.2016 11:16 18,4 C 18,4 C 84 % 1019,5 hPa 0,0 mm 2,7 km/h (1 Bft) W 269 1 min 0,000 mm 3,9 UV-I 577 W/m 15,6 C 4,8 km/h (1 Bft)
15.08.2016 11:17 18,6 C 18,6 C 86 % 1019,5 hPa 0,0 mm 2,5 km/h (1 Bft) SW 232 1 min 0,000 mm 4,0 UV-I 559 W/m 16,2 C 4,8 km/h (1 Bft)
15.08.2016 11:18 18,8 C 18,8 C 84 % 1019,6 hPa 0,0 mm 2,9 km/h (1 Bft) W-SW 248 1 min 0,000 mm 4,0 UV-I 504 W/m 16,0 C 4,8 km/h (1 Bft)
15.08.2016 11:19 18,8 C 18,8 C 84 % 1019,6 hPa 0,0 mm 3,8 km/h (1 Bft) W-SW 257 1 min 0,000 mm 3,6 UV-I 471 W/m 16,0 C 4,8 km/h (1 Bft)
15.08.2016 11:20 18,8 C 18,8 C 83 % 1019,5 hPa 0,0 mm 3,4 km/h (1 Bft) W-SW 258 0 min 0,000 mm 3,6 UV-I 338 W/m 15,8 C 4,8 km/h (1 Bft)
15.08.2016 11:21 18,7 C 18,8 C 82 % 1019,6 hPa 0,0 mm 3,7 km/h (1 Bft) W 261 0 min 0,000 mm 4,4 UV-I 338 W/m 15,6 C 4,8 km/h (1 Bft)
15.08.2016 11:22 18,7 C 18,7 C 83 % 1019,6 hPa 0,0 mm 1,9 km/h (1 Bft) S-SO 164 0 min 0,000 mm 5,0 UV-I 338 W/m 15,8 C 3,2 km/h (1 Bft)
15.08.2016 11:23 18,7 C 18,7 C 82 % 1019,6 hPa 0,0 mm 2,6 km/h (1 Bft) S-SO 164 1 min 0,000 mm 5,2 UV-I 747 W/m 15,6 C 3,2 km/h (1 Bft)
15.08.2016 11:24 18,8 C 18,8 C 82 % 1019,6 hPa 0,0 mm 4,4 km/h (1 Bft) W-SW 258 1 min 0,000 mm 5,4 UV-I 780 W/m 15,7 C 8,0 km/h (2 Bft)
15.08.2016 11:25 18,8 C 18,8 C 82 % 1019,6 hPa 0,0 mm 3,6 km/h (1 Bft) W-SW 253 1 min 0,000 mm 5,3 UV-I 752 W/m 15,7 C 4,8 km/h (1 Bft)
15.08.2016 11:26 18,9 C 18,9 C 84 % 1019,6 hPa 0,0 mm 1,3 km/h (1 Bft) W-SW 253 1 min 0,000 mm 5,0 UV-I 703 W/m 16,1 C 3,2 km/h (1 Bft)
15.08.2016 11:27 19,1 C 19,1 C 81 % 1019,6 hPa 0,0 mm 1,3 km/h (1 Bft) W 264 1 min 0,000 mm 3,1 UV-I 703 W/m 15,8 C 3,2 km/h (1 Bft)
15.08.2016 11:28 19,1 C 19,1 C 83 % 1019,6 hPa 0,0 mm 4,1 km/h (1 Bft) W 281 0 min 0,000 mm 3,2 UV-I 255 W/m 16,1 C 4,8 km/h (1 Bft)
15.08.2016 11:29 19,2 C 19,2 C 84 % 1019,6 hPa 0,0 mm 2,1 km/h (1 Bft) W 280 0 min 0,000 mm 2,9 UV-I 223 W/m 16,4 C 3,2 km/h (1 Bft)
15.08.2016 11:30 19,2 C 19,2 C 83 % 1019,6 hPa 0,0 mm 2,2 km/h (1 Bft) W 281 0 min 0,000 mm 3,0 UV-I 214 W/m 16,2 C 3,2 km/h (1 Bft)
15.08.2016 11:31 19,1 C 19,2 C 81 % 1019,6 hPa 0,0 mm 2,0 km/h (1 Bft) W 279 1 min 0,000 mm 4,1 UV-I 455 W/m 15,8 C 3,2 km/h (1 Bft)
15.08.2016 11:32 18,9 C 19,1 C 81 % 1019,5 hPa 0,0 mm 0,9 km/h (0 Bft) W 279 1 min 0,000 mm 3,8 UV-I 531 W/m 15,6 C 1,6 km/h (1 Bft)
15.08.2016 11:33 18,9 C 18,9 C 82 % 1019,6 hPa 0,0 mm 0,8 km/h (0 Bft) W 279 1 min 0,000 mm 4,5 UV-I 531 W/m 15,8 C 1,6 km/h (1 Bft)
15.08.2016 11:34 19,0 C 19,0 C 83 % 1019,5 hPa 0,0 mm 0,8 km/h (0 Bft) W 275 1 min 0,000 mm 4,9 UV-I 531 W/m 16,0 C 3,2 km/h (1 Bft)
15.08.2016 11:35 19,2 C 19,2 C 82 % 1019,5 hPa 0,0 mm 3,7 km/h (1 Bft) W-SW 244 1 min 0,000 mm 5,0 UV-I 656 W/m 16,0 C 4,8 km/h (1 Bft)
15.08.2016 11:36 19,3 C 19,3 C 82 % 1019,4 hPa 0,0 mm 2,1 km/h (1 Bft) W-SW 244 1 min 0,000 mm 5,1 UV-I 686 W/m 16,1 C 3,2 km/h (1 Bft)
15.08.2016 11:37 19,4 C 19,4 C 82 % 1019,4 hPa 0,0 mm 3,0 km/h (1 Bft) W-SW 244 1 min 0,000 mm 5,4 UV-I 724 W/m 16,2 C 4,8 km/h (1 Bft)
15.08.2016 11:38 19,5 C 19,5 C 80 % 1019,4 hPa 0,0 mm 1,3 km/h (1 Bft) W 261 1 min 0,000 mm 5,5 UV-I 754 W/m 16,0 C 3,2 km/h (1 Bft)
15.08.2016 11:39 19,6 C 19,6 C 82 % 1019,4 hPa 0,0 mm 3,4 km/h (1 Bft) W-SW 246 1 min 0,000 mm 5,7 UV-I 766 W/m 16,4 C 6,4 km/h (2 Bft)
15.08.2016 11:40 19,6 C 19,7 C 81 % 1019,3 hPa 0,0 mm 3,7 km/h (1 Bft) W-SW 252 1 min 0,000 mm 5,7 UV-I 724 W/m 16,2 C 6,4 km/h (2 Bft)
15.08.2016 11:41 19,7 C 19,7 C 81 % 1019,3 hPa 0,0 mm 3,4 km/h (1 Bft) SW 218 1 min 0,000 mm 5,7 UV-I 777 W/m 16,3 C 4,8 km/h (1 Bft)
15.08.2016 11:42 19,7 C 19,7 C 84 % 1019,3 hPa 0,0 mm 2,7 km/h (1 Bft) SW 219 1 min 0,000 mm 5,7 UV-I 766 W/m 16,9 C 3,2 km/h (1 Bft)
15.08.2016 11:43 19,7 C 19,8 C 79 % 1019,3 hPa 0,0 mm 2,7 km/h (1 Bft) S 178 1 min 0,000 mm 5,6 UV-I 745 W/m 16,0 C 4,8 km/h (1 Bft)
15.08.2016 11:44 19,6 C 19,7 C 81 % 1019,3 hPa 0,0 mm 1,9 km/h (1 Bft) S 178 1 min 0,000 mm 5,5 UV-I 745 W/m 16,2 C 3,2 km/h (1 Bft)
15.08.2016 11:45 19,7 C 19,7 C 82 % 1019,2 hPa 0,0 mm 2,5 km/h (1 Bft) S-SW 213 1 min 0,000 mm 5,7 UV-I 745 W/m 16,5 C 4,8 km/h (1 Bft)
15.08.2016 11:46 19,7 C 19,7 C 80 % 1019,2 hPa 0,0 mm 2,0 km/h (1 Bft) SW 219 1 min 0,000 mm 2,9 UV-I 745 W/m 16,1 C 4,8 km/h (1 Bft)
15.08.2016 11:47 19,6 C 19,7 C 79 % 1019,2 hPa 0,0 mm 2,3 km/h (1 Bft) S-SW 193 1 min 0,000 mm 5,6 UV-I 745 W/m 15,9 C 3,2 km/h (1 Bft)
15.08.2016 11:48 19,6 C 19,6 C 83 % 1019,2 hPa 0,0 mm 2,3 km/h (1 Bft) W-SW 251 1 min 0,000 mm 5,5 UV-I 745 W/m 16,6 C 3,2 km/h (1 Bft)
15.08.2016 11:49 19,8 C 19,8 C 82 % 1019,2 hPa 0,0 mm 2,3 km/h (1 Bft) W-SW 249 1 min 0,000 mm 5,8 UV-I 747 W/m 16,6 C 3,2 km/h (1 Bft)
15.08.2016 11:50 19,8 C 19,8 C 81 % 1019,1 hPa 0,0 mm 1,1 km/h (1 Bft) W-SW 249 1 min 0,000 mm 5,7 UV-I 728 W/m 16,4 C 1,6 km/h (1 Bft)
15.08.2016 11:51 20,0 C 20,0 C 83 % 1019,2 hPa 0,0 mm 1,6 km/h (1 Bft) W-SW 255 1 min 0,000 mm 5,7 UV-I 735 W/m 17,0 C 3,2 km/h (1 Bft)
15.08.2016 11:52 20,1 C 20,1 C 80 % 1019,2 hPa 0,0 mm 2,9 km/h (1 Bft) W 275 1 min 0,000 mm 5,7 UV-I 726 W/m 16,5 C 4,8 km/h (1 Bft)
15.08.2016 11:53 20,2 C 20,2 C 78 % 1019,2 hPa 0,0 mm 3,8 km/h (1 Bft) W-NW 283 1 min 0,000 mm 5,7 UV-I 722 W/m 16,2 C 4,8 km/h (1 Bft)
15.08.2016 11:54 20,2 C 20,2 C 79 % 1019,2 hPa 0,0 mm 3,5 km/h (1 Bft) W-NW 286 1 min 0,000 mm 5,6 UV-I 751 W/m 16,4 C 4,8 km/h (1 Bft)
15.08.2016 11:55 20,1 C 20,2 C 78 % 1019,2 hPa 0,0 mm 2,7 km/h (1 Bft) W-NW 286 1 min 0,000 mm 5,9 UV-I 761 W/m 16,1 C 4,8 km/h (1 Bft)
15.08.2016 11:56 20,1 C 20,1 C 78 % 1019,1 hPa 0,0 mm 2,5 km/h (1 Bft) N-NW 344 1 min 0,000 mm 5,9 UV-I 766 W/m 16,1 C 4,8 km/h (1 Bft)
15.08.2016 11:57 20,1 C 20,1 C 78 % 1019,1 hPa 0,0 mm 3,1 km/h (1 Bft) N-NW 330 1 min 0,000 mm 5,9 UV-I 768 W/m 16,1 C 4,8 km/h (1 Bft)
15.08.2016 11:58 20,2 C 20,2 C 78 % 1019,1 hPa 0,0 mm 4,0 km/h (1 Bft) NO 44 1 min 0,000 mm 5,9 UV-I 752 W/m 16,2 C 4,8 km/h (1 Bft)
15.08.2016 11:59 20,3 C 20,3 C 81 % 1019,1 hPa 0,0 mm 5,2 km/h (1 Bft) O-NO 78 1 min 0,000 mm 5,9 UV-I 761 W/m 16,9 C 6,4 km/h (2 Bft)
15.08.2016 12:00 20,4 C 20,4 C 78 % 1019,1 hPa 0,0 mm 5,0 km/h (1 Bft) O 88 1 min 0,000 mm 5,9 UV-I 765 W/m 16,4 C 6,4 km/h (2 Bft)
15.08.2016 12:01 20,4 C 20,4 C 79 % 1019,1 hPa 0,0 mm 2,6 km/h (1 Bft) O 79 1 min 0,305 mm 5,8 UV-I 724 W/m 16,6 C 4,8 km/h (1 Bft)
15.08.2016 12:02 20,4 C 20,4 C 81 % 1019,2 hPa 0,0 mm 0,5 km/h (0 Bft) O 79 1 min 0,000 mm 6,0 UV-I 761 W/m 17,0 C 1,6 km/h (1 Bft)
15.08.2016 12:03 20,4 C 20,4 C 80 % 1019,1 hPa 0,0 mm 2,7 km/h (1 Bft) O-NO 63 1 min 0,000 mm 5,9 UV-I 773 W/m 16,8 C 4,8 km/h (1 Bft)
15.08.2016 12:04 20,5 C 20,5 C 79 % 1019,2 hPa 0,0 mm 5,0 km/h (1 Bft) NO 46 1 min 0,000 mm 5,9 UV-I 766 W/m 16,7 C 6,4 km/h (2 Bft)
15.08.2016 12:05 20,5 C 20,5 C 77 % 1019,2 hPa 0,0 mm 3,4 km/h (1 Bft) N-NO 23 1 min 0,000 mm 5,9 UV-I 744 W/m 16,3 C 4,8 km/h (1 Bft)
15.08.2016 12:06 20,6 C 20,6 C 78 % 1019,2 hPa 0,0 mm 5,0 km/h (1 Bft) O 86 1 min 0,000 mm 6,1 UV-I 777 W/m 16,6 C 6,4 km/h (2 Bft)
15.08.2016 12:07 20,6 C 20,6 C 79 % 1019,2 hPa 0,0 mm 4,9 km/h (1 Bft) O-NO 74 1 min 0,000 mm 6,1 UV-I 791 W/m 16,8 C 8,0 km/h (2 Bft)
15.08.2016 12:08 20,5 C 20,6 C 77 % 1019,1 hPa 0,0 mm 5,5 km/h (1 Bft) O 83 1 min 0,000 mm 6,1 UV-I 793 W/m 16,3 C 8,0 km/h (2 Bft)
15.08.2016 12:09 20,5 C 20,5 C 78 % 1019,1 hPa 0,0 mm 3,7 km/h (1 Bft) O 80 1 min 0,000 mm 6,1 UV-I 796 W/m 16,5 C 9,7 km/h (2 Bft)
15.08.2016 12:10 20,5 C 20,6 C 77 % 1019,1 hPa 0,0 mm 5,9 km/h (2 Bft) O 91 1 min 0,000 mm 6,1 UV-I 793 W/m 16,3 C 8,0 km/h (2 Bft)
15.08.2016 12:11 20,4 C 20,5 C 76 % 1019,1 hPa 0,0 mm 5,0 km/h (1 Bft) O 88 1 min 0,000 mm 6,1 UV-I 789 W/m 16,0 C 6,4 km/h (2 Bft)
15.08.2016 12:12 20,4 C 20,4 C 76 % 1019,1 hPa 0,0 mm 5,0 km/h (1 Bft) O-NO 73 1 min 0,000 mm 6,0 UV-I 772 W/m 16,0 C 6,4 km/h (2 Bft)
15.08.2016 12:13 20,4 C 20,4 C 77 % 1019,1 hPa 0,0 mm 5,6 km/h (1 Bft) O-NO 67 1 min 0,000 mm 5,8 UV-I 749 W/m 16,2 C 6,4 km/h (2 Bft)
15.08.2016 12:14 20,5 C 20,5 C 76 % 1019,1 hPa 0,0 mm 3,4 km/h (1 Bft) O-NO 67 1 min 0,000 mm 6,0 UV-I 789 W/m 16,1 C 4,8 km/h (1 Bft)
15.08.2016 12:15 20,5 C 20,5 C 76 % 1019,0 hPa 0,0 mm 4,4 km/h (1 Bft) O-NO 78 1 min 0,000 mm 5,9 UV-I 773 W/m 16,1 C 6,4 km/h (2 Bft)
15.08.2016 12:16 20,5 C 20,5 C 75 % 1019,0 hPa 0,0 mm 4,2 km/h (1 Bft) O 88 1 min 0,000 mm 5,9 UV-I 763 W/m 15,9 C 6,4 km/h (2 Bft)
15.08.2016 12:17 20,5 C 20,5 C 77 % 1019,0 hPa 0,0 mm 5,2 km/h (1 Bft) O-NO 70 1 min 0,000 mm 5,9 UV-I 754 W/m 16,3 C 6,4 km/h (2 Bft)
15.08.2016 12:18 20,5 C 20,6 C 75 % 1019,0 hPa 0,0 mm 3,7 km/h (1 Bft) O 83 1 min 0,000 mm 6,0 UV-I 766 W/m 15,9 C 4,8 km/h (1 Bft)
15.08.2016 12:19 20,6 C 20,7 C 77 % 1019,0 hPa 0,0 mm 3,6 km/h (1 Bft) O-NO 74 1 min 0,000 mm 6,0 UV-I 749 W/m 16,4 C 4,8 km/h (1 Bft)
15.08.2016 12:20 20,7 C 20,7 C 76 % 1019,0 hPa 0,0 mm 3,5 km/h (1 Bft) O-NO 74 1 min 0,000 mm 5,7 UV-I 724 W/m 16,3 C 6,4 km/h (2 Bft)
15.08.2016 12:21 20,8 C 20,8 C 79 % 1019,0 hPa 0,0 mm 4,2 km/h (1 Bft) O-NO 76 1 min 0,000 mm 5,6 UV-I 645 W/m 17,0 C 6,4 km/h (2 Bft)
15.08.2016 12:22 20,8 C 20,8 C 76 % 1018,9 hPa 0,0 mm 2,7 km/h (1 Bft) O-NO 76 1 min 0,000 mm 5,6 UV-I 673 W/m 16,4 C 4,8 km/h (1 Bft)
15.08.2016 12:23 20,9 C 20,9 C 77 % 1018,9 hPa 0,0 mm 1,7 km/h (1 Bft) O-NO 76 1 min 0,000 mm 5,8 UV-I 731 W/m 16,7 C 3,2 km/h (1 Bft)
15.08.2016 12:24 21,1 C 21,1 C 80 % 1018,9 hPa 0,0 mm 2,3 km/h (1 Bft) N-NO 17 1 min 0,000 mm 6,0 UV-I 738 W/m 17,5 C 3,2 km/h (1 Bft)
15.08.2016 12:25 21,3 C 21,3 C 79 % 1018,9 hPa 0,0 mm 1,0 km/h (0 Bft) N-NO 17 1 min 0,000 mm 6,0 UV-I 795 W/m 17,5 C 1,6 km/h (1 Bft)
15.08.2016 12:26 21,4 C 21,4 C 78 % 1018,9 hPa 0,0 mm 1,8 km/h (1 Bft) W 275 1 min 0,000 mm 6,1 UV-I 780 W/m 17,4 C 4,8 km/h (1 Bft)
15.08.2016 12:27 21,4 C 21,4 C 74 % 1018,9 hPa 0,0 mm 4,6 km/h (1 Bft) W-NW 302 1 min 0,000 mm 6,1 UV-I 784 W/m 16,6 C 6,4 km/h (2 Bft)
15.08.2016 12:28 21,6 C 21,6 C 76 % 1018,9 hPa 0,0 mm 4,1 km/h (1 Bft) W-NW 293 1 min 0,000 mm 6,3 UV-I 796 W/m 17,2 C 6,4 km/h (2 Bft)
15.08.2016 12:29 21,5 C 21,6 C 74 % 1018,9 hPa 0,0 mm 3,6 km/h (1 Bft) W-NW 282 1 min 0,000 mm 6,3 UV-I 807 W/m 16,7 C 6,4 km/h (2 Bft)
15.08.2016 12:30 21,4 C 21,5 C 73 % 1018,8 hPa 0,0 mm 1,9 km/h (1 Bft) W-NW 290 1 min 0,000 mm 6,3 UV-I 809 W/m 16,4 C 4,8 km/h (1 Bft)
15.08.2016 12:31 21,5 C 21,5 C 77 % 1018,9 hPa 0,0 mm 6,6 km/h (2 Bft) W-SW 247 1 min 0,000 mm 6,2 UV-I 803 W/m 17,3 C 8,0 km/h (2 Bft)
15.08.2016 12:32 21,6 C 21,6 C 74 % 1018,9 hPa 0,0 mm 5,0 km/h (1 Bft) W-SW 242 1 min 0,000 mm 6,1 UV-I 812 W/m 16,8 C 6,4 km/h (2 Bft)
15.08.2016 12:33 21,6 C 21,6 C 72 % 1018,8 hPa 0,0 mm 2,1 km/h (1 Bft) W-SW 241 1 min 0,000 mm 5,8 UV-I 812 W/m 16,3 C 4,8 km/h (1 Bft)
15.08.2016 12:34 21,6 C 21,6 C 72 % 1018,9 hPa 0,0 mm 2,0 km/h (1 Bft) S-SW 206 1 min 0,000 mm 5,7 UV-I 812 W/m 16,3 C 3,2 km/h (1 Bft)
15.08.2016 12:35 21,6 C 21,6 C 79 % 1018,9 hPa 0,0 mm 3,2 km/h (1 Bft) SW 231 1 min 0,000 mm 5,5 UV-I 661 W/m 17,8 C 4,8 km/h (1 Bft)
15.08.2016 12:36 21,7 C 21,7 C 77 % 1018,8 hPa 0,0 mm 3,5 km/h (1 Bft) SW 224 1 min 0,000 mm 5,7 UV-I 731 W/m 17,5 C 4,8 km/h (1 Bft)
15.08.2016 12:37 21,7 C 21,7 C 74 % 1018,8 hPa 0,0 mm 2,9 km/h (1 Bft) S 182 1 min 0,000 mm 5,7 UV-I 752 W/m 16,9 C 4,8 km/h (1 Bft)
15.08.2016 12:38 21,7 C 21,7 C 76 % 1018,8 hPa 0,0 mm 4,0 km/h (1 Bft) W-SW 255 1 min 0,000 mm 5,7 UV-I 666 W/m 17,3 C 6,4 km/h (2 Bft)
15.08.2016 12:39 21,6 C 21,7 C 73 % 1018,8 hPa 0,0 mm 1,3 km/h (1 Bft) W-SW 255 1 min 0,000 mm 6,2 UV-I 666 W/m 16,5 C 3,2 km/h (1 Bft)
15.08.2016 12:40 21,4 C 21,6 C 73 % 1018,8 hPa 0,0 mm 2,5 km/h (1 Bft) W-SW 248 1 min 0,000 mm 6,2 UV-I 833 W/m 16,4 C 4,8 km/h (1 Bft)
15.08.2016 12:41 21,4 C 21,5 C 76 % 1018,8 hPa 0,0 mm 1,1 km/h (1 Bft) W-SW 248 1 min 0,000 mm 5,8 UV-I 833 W/m 17,0 C 1,6 km/h (1 Bft)
15.08.2016 12:42 21,4 C 21,4 C 73 % 1018,7 hPa 0,0 mm 0,8 km/h (0 Bft) W-SW 248 1 min 0,000 mm 6,6 UV-I 846 W/m 16,4 C 1,6 km/h (1 Bft)
15.08.2016 12:43 21,4 C 21,4 C 78 % 1018,7 hPa 0,0 mm 1,5 km/h (1 Bft) N 355 1 min 0,000 mm 6,5 UV-I 837 W/m 17,4 C 3,2 km/h (1 Bft)
15.08.2016 12:44 21,4 C 21,4 C 76 % 1018,7 hPa 0,0 mm 2,7 km/h (1 Bft) N-NO 13 1 min 0,000 mm 6,4 UV-I 807 W/m 17,0 C 4,8 km/h (1 Bft)
15.08.2016 12:45 21,8 C 21,8 C 79 % 1018,7 hPa 0,0 mm 2,6 km/h (1 Bft) NW 324 1 min 0,000 mm 6,4 UV-I 823 W/m 18,0 C 4,8 km/h (1 Bft)
15.08.2016 12:46 22,2 C 22,2 C 75 % 1018,7 hPa 0,0 mm 4,3 km/h (1 Bft) N 360 1 min 0,000 mm 6,5 UV-I 831 W/m 17,5 C 6,4 km/h (2 Bft)
15.08.2016 12:47 22,2 C 22,2 C 73 % 1018,7 hPa 0,0 mm 4,4 km/h (1 Bft) W-NW 292 1 min 0,000 mm 6,5 UV-I 833 W/m 17,1 C 9,7 km/h (2 Bft)
15.08.2016 12:48 22,3 C 22,3 C 74 % 1018,7 hPa 0,0 mm 5,7 km/h (1 Bft) W-NW 290 1 min 0,000 mm 6,5 UV-I 837 W/m 17,4 C 9,7 km/h (2 Bft)
15.08.2016 12:49 22,3 C 22,3 C 71 % 1018,7 hPa 0,0 mm 5,0 km/h (1 Bft) NW 324 1 min 0,000 mm 6,5 UV-I 842 W/m 16,8 C 9,7 km/h (2 Bft)
15.08.2016 12:50 22,1 C 22,3 C 70 % 1018,7 hPa 0,0 mm 6,0 km/h (2 Bft) W-NW 296 1 min 0,000 mm 6,5 UV-I 838 W/m 16,4 C 9,7 km/h (2 Bft)
15.08.2016 12:51 22,1 C 22,1 C 71 % 1018,7 hPa 0,0 mm 3,8 km/h (1 Bft) W 271 1 min 0,000 mm 6,3 UV-I 802 W/m 16,6 C 6,4 km/h (2 Bft)
15.08.2016 12:52 21,9 C 22,1 C 75 % 1018,6 hPa 0,0 mm 2,1 km/h (1 Bft) W 271 1 min 0,000 mm 6,1 UV-I 802 W/m 17,3 C 3,2 km/h (1 Bft)
15.08.2016 12:53 21,8 C 21,9 C 72 % 1018,6 hPa 0,0 mm 0,7 km/h (0 Bft) W 271 1 min 0,000 mm 5,9 UV-I 796 W/m 16,5 C 1,6 km/h (1 Bft)
15.08.2016 12:54 21,8 C 21,8 C 71 % 1018,6 hPa 0,0 mm 1,2 km/h (1 Bft) W 271 1 min 0,000 mm 6,2 UV-I 758 W/m 16,3 C 1,6 km/h (1 Bft)
15.08.2016 12:55 21,7 C 21,8 C 71 % 1018,6 hPa 0,0 mm 1,9 km/h (1 Bft) S 171 1 min 0,000 mm 6,5 UV-I 810 W/m 16,2 C 3,2 km/h (1 Bft)
15.08.2016 12:56 21,6 C 21,7 C 73 % 1018,6 hPa 0,0 mm 2,5 km/h (1 Bft) NO 35 1 min 0,000 mm 6,4 UV-I 814 W/m 16,5 C 4,8 km/h (1 Bft)
15.08.2016 12:57 21,7 C 21,7 C 74 % 1018,6 hPa 0,0 mm 5,8 km/h (2 Bft) NO 34 1 min 0,000 mm 6,4 UV-I 816 W/m 16,9 C 9,7 km/h (2 Bft)
15.08.2016 12:58 21,8 C 21,8 C 74 % 1018,6 hPa 0,0 mm 5,1 km/h (1 Bft) NO 42 1 min 0,000 mm 6,6 UV-I 830 W/m 17,0 C 8,0 km/h (2 Bft)
15.08.2016 12:59 22,1 C 22,1 C 70 % 1018,6 hPa 0,0 mm 4,7 km/h (1 Bft) N 355 1 min 0,000 mm 6,5 UV-I 809 W/m 16,4 C 8,0 km/h (2 Bft)
15.08.2016 13:00 22,2 C 22,2 C 71 % 1018,6 hPa 0,0 mm 4,0 km/h (1 Bft) O-NO 64 1 min 0,457 mm 6,4 UV-I 810 W/m 16,7 C 6,4 km/h (2 Bft)
15.08.2016 13:01 22,1 C 22,2 C 69 % 1018,6 hPa 0,0 mm 2,9 km/h (1 Bft) O-NO 58 1 min 0,000 mm 6,4 UV-I 747 W/m 16,1 C 6,4 km/h (2 Bft)
15.08.2016 13:02 22,0 C 22,1 C 68 % 1018,6 hPa 0,0 mm 2,4 km/h (1 Bft) O-NO 69 1 min 0,000 mm 6,5 UV-I 837 W/m 15,8 C 3,2 km/h (1 Bft)
15.08.2016 13:03 22,1 C 22,1 C 69 % 1018,6 hPa 0,0 mm 2,9 km/h (1 Bft) O-SO 113 1 min 0,000 mm 6,5 UV-I 817 W/m 16,1 C 3,2 km/h (1 Bft)
15.08.2016 13:04 22,0 C 22,1 C 69 % 1018,5 hPa 0,0 mm 2,3 km/h (1 Bft) O-SO 118 1 min 0,000 mm 6,6 UV-I 826 W/m 16,0 C 4,8 km/h (1 Bft)
15.08.2016 13:05 22,0 C 22,0 C 69 % 1018,5 hPa 0,0 mm 1,0 km/h (0 Bft) O-SO 114 1 min 0,000 mm 6,5 UV-I 854 W/m 16,0 C 1,6 km/h (1 Bft)
15.08.2016 13:06 22,1 C 22,1 C 74 % 1018,5 hPa 0,0 mm 4,2 km/h (1 Bft) O 86 1 min 0,000 mm 6,7 UV-I 867 W/m 17,2 C 6,4 km/h (2 Bft)
15.08.2016 13:07 22,2 C 22,2 C 72 % 1018,5 hPa 0,0 mm 2,5 km/h (1 Bft) O 86 1 min 0,000 mm 6,7 UV-I 886 W/m 16,9 C 3,2 km/h (1 Bft)
15.08.2016 13:08 22,3 C 22,3 C 71 % 1018,6 hPa 0,0 mm 4,2 km/h (1 Bft) O-NO 69 1 min 0,000 mm 6,8 UV-I 893 W/m 16,8 C 4,8 km/h (1 Bft)
15.08.2016 13:09 22,4 C 22,4 C 74 % 1018,6 hPa 0,0 mm 4,1 km/h (1 Bft) O-SO 114 1 min 0,000 mm 6,8 UV-I 907 W/m 17,5 C 4,8 km/h (1 Bft)
15.08.2016 13:10 22,4 C 22,4 C 72 % 1018,6 hPa 0,0 mm 5,0 km/h (1 Bft) O-NO 65 1 min 0,000 mm 6,7 UV-I 912 W/m 17,1 C 8,0 km/h (2 Bft)
15.08.2016 13:11 22,4 C 22,5 C 74 % 1018,6 hPa 0,0 mm 4,9 km/h (1 Bft) O-SO 112 1 min 0,000 mm 6,3 UV-I 896 W/m 17,5 C 6,4 km/h (2 Bft)
15.08.2016 13:12 22,4 C 22,5 C 73 % 1018,6 hPa 0,0 mm 2,3 km/h (1 Bft) N 355 1 min 0,000 mm 6,7 UV-I 976 W/m 17,3 C 4,8 km/h (1 Bft)
15.08.2016 13:13 22,5 C 22,5 C 75 % 1018,6 hPa 0,0 mm 6,4 km/h (2 Bft) N-NO 13 1 min 0,000 mm 6,7 UV-I 969 W/m 17,8 C 9,7 km/h (2 Bft)
15.08.2016 13:14 22,7 C 22,7 C 71 % 1018,6 hPa 0,0 mm 3,6 km/h (1 Bft) W-NW 300 1 min 0,000 mm 6,5 UV-I 958 W/m 17,2 C 6,4 km/h (2 Bft)
15.08.2016 13:15 22,7 C 22,7 C 71 % 1018,6 hPa 0,0 mm 6,5 km/h (2 Bft) NW 315 1 min 0,000 mm 6,6 UV-I 956 W/m 17,2 C 8,0 km/h (2 Bft)
15.08.2016 13:16 22,7 C 22,7 C 70 % 1018,6 hPa 0,0 mm 3,4 km/h (1 Bft) NW 319 1 min 0,000 mm 6,4 UV-I 912 W/m 16,9 C 6,4 km/h (2 Bft)
15.08.2016 13:17 22,7 C 22,7 C 71 % 1018,6 hPa 0,0 mm 3,2 km/h (1 Bft) NW 309 1 min 0,000 mm 4,1 UV-I 912 W/m 17,2 C 6,4 km/h (2 Bft)
15.08.2016 13:18 22,6 C 22,7 C 71 % 1018,6 hPa 0,0 mm 5,2 km/h (1 Bft) N-NO 15 1 min 0,000 mm 6,1 UV-I 912 W/m 17,1 C 8,0 km/h (2 Bft)
15.08.2016 13:19 22,6 C 22,6 C 73 % 1018,6 hPa 0,0 mm 5,1 km/h (1 Bft) NW 311 1 min 0,000 mm 4,9 UV-I 912 W/m 17,5 C 8,0 km/h (2 Bft)
15.08.2016 13:20 22,6 C 22,6 C 74 % 1018,6 hPa 0,0 mm 3,8 km/h (1 Bft) N-NW 334 1 min 0,000 mm 6,5 UV-I 912 W/m 17,7 C 6,4 km/h (2 Bft)
15.08.2016 13:21 22,7 C 22,7 C 72 % 1018,6 hPa 0,0 mm 3,0 km/h (1 Bft) NW 306 1 min 0,000 mm 5,9 UV-I 912 W/m 17,4 C 3,2 km/h (1 Bft)
15.08.2016 13:22 22,8 C 22,8 C 76 % 1018,5 hPa 0,0 mm 1,8 km/h (1 Bft) SO 136 1 min 0,000 mm 4,1 UV-I 912 W/m 18,3 C 3,2 km/h (1 Bft)
15.08.2016 13:23 22,7 C 22,8 C 70 % 1018,5 hPa 0,0 mm 2,6 km/h (1 Bft) W-NW 298 1 min 0,000 mm 4,0 UV-I 912 W/m 16,9 C 4,8 km/h (1 Bft)
15.08.2016 13:24 22,6 C 22,7 C 73 % 1018,5 hPa 0,0 mm 2,6 km/h (1 Bft) N 5 1 min 0,000 mm 6,5 UV-I 912 W/m 17,5 C 4,8 km/h (1 Bft)
15.08.2016 13:25 22,6 C 22,6 C 73 % 1018,5 hPa 0,0 mm 3,8 km/h (1 Bft) NO 44 1 min 0,000 mm 6,5 UV-I 881 W/m 17,5 C 6,4 km/h (2 Bft)
15.08.2016 13:26 22,7 C 22,7 C 70 % 1018,4 hPa 0,0 mm 3,3 km/h (1 Bft) N-NO 29 1 min 0,000 mm 4,0 UV-I 851 W/m 16,9 C 4,8 km/h (1 Bft)
15.08.2016 13:27 22,6 C 22,7 C 69 % 1018,4 hPa 0,0 mm 2,1 km/h (1 Bft) O-NO 63 1 min 0,000 mm 6,5 UV-I 786 W/m 16,6 C 4,8 km/h (1 Bft)
15.08.2016 13:28 22,7 C 22,7 C 71 % 1018,4 hPa 0,0 mm 6,2 km/h (2 Bft) O-NO 67 1 min 0,000 mm 6,5 UV-I 875 W/m 17,2 C 11,3 km/h (2 Bft)
15.08.2016 13:29 22,6 C 22,7 C 70 % 1018,4 hPa 0,0 mm 7,2 km/h (2 Bft) SO 126 1 min 0,000 mm 6,1 UV-I 837 W/m 16,8 C 11,3 km/h (2 Bft)
15.08.2016 13:30 22,4 C 22,6 C 71 % 1018,4 hPa 0,0 mm 7,6 km/h (2 Bft) SO 142 1 min 0,000 mm 6,5 UV-I 842 W/m 16,9 C 11,3 km/h (2 Bft)
15.08.2016 13:31 22,3 C 22,4 C 71 % 1018,4 hPa 0,0 mm 2,4 km/h (1 Bft) S-SO 150 1 min 0,000 mm 6,4 UV-I 831 W/m 16,8 C 4,8 km/h (1 Bft)
15.08.2016 13:32 22,3 C 22,3 C 71 % 1018,4 hPa 0,0 mm 4,7 km/h (1 Bft) NO 52 1 min 0,000 mm 6,4 UV-I 835 W/m 16,8 C 6,4 km/h (2 Bft)
15.08.2016 13:33 22,4 C 22,4 C 76 % 1018,4 hPa 0,0 mm 2,1 km/h (1 Bft) O-SO 119 1 min 0,000 mm 6,4 UV-I 835 W/m 18,0 C 3,2 km/h (1 Bft)
15.08.2016 13:34 22,4 C 22,4 C 71 % 1018,4 hPa 0,0 mm 1,5 km/h (1 Bft) S-SO 157 1 min 0,000 mm 6,4 UV-I 824 W/m 16,9 C 3,2 km/h (1 Bft)
15.08.2016 13:35 22,4 C 22,4 C 73 % 1018,4 hPa 0,0 mm 1,9 km/h (1 Bft) O-SO 107 1 min 0,000 mm 6,1 UV-I 802 W/m 17,3 C 3,2 km/h (1 Bft)
15.08.2016 13:36 22,6 C 22,6 C 72 % 1018,4 hPa 0,0 mm 5,0 km/h (1 Bft) O-NO 72 1 min 0,000 mm 6,2 UV-I 782 W/m 17,3 C 6,4 km/h (2 Bft)
15.08.2016 13:37 22,7 C 22,7 C 73 % 1018,3 hPa 0,0 mm 5,2 km/h (1 Bft) NO 52 1 min 0,000 mm 6,0 UV-I 773 W/m 17,6 C 6,4 km/h (2 Bft)
15.08.2016 13:38 22,7 C 22,7 C 72 % 1018,4 hPa 0,0 mm 5,2 km/h (1 Bft) O-SO 115 1 min 0,000 mm 6,0 UV-I 763 W/m 17,4 C 6,4 km/h (2 Bft)
15.08.2016 13:39 22,7 C 22,7 C 74 % 1018,3 hPa 0,0 mm 4,4 km/h (1 Bft) NW 304 1 min 0,000 mm 6,1 UV-I 786 W/m 17,8 C 6,4 km/h (2 Bft)
15.08.2016 13:40 22,7 C 22,7 C 71 % 1018,3 hPa 0,0 mm 3,8 km/h (1 Bft) NO 55 1 min 0,000 mm 6,2 UV-I 816 W/m 17,2 C 6,4 km/h (2 Bft)
15.08.2016 13:41 22,9 C 22,9 C 71 % 1018,3 hPa 0,0 mm 6,7 km/h (2 Bft) N-NO 15 1 min 0,000 mm 6,2 UV-I 835 W/m 17,4 C 9,7 km/h (2 Bft)
15.08.2016 13:42 23,1 C 23,1 C 72 % 1018,3 hPa 0,0 mm 5,4 km/h (1 Bft) NO 40 1 min 0,000 mm 6,5 UV-I 844 W/m 17,8 C 8,0 km/h (2 Bft)
15.08.2016 13:43 23,3 C 23,3 C 69 % 1018,3 hPa 0,0 mm 5,9 km/h (2 Bft) N 360 1 min 0,000 mm 6,4 UV-I 863 W/m 17,3 C 9,7 km/h (2 Bft)
15.08.2016 13:44 23,3 C 23,3 C 72 % 1018,3 hPa 0,0 mm 3,9 km/h (1 Bft) NO 46 1 min 0,000 mm 6,3 UV-I 828 W/m 18,0 C 6,4 km/h (2 Bft)
15.08.2016 13:45 23,3 C 23,3 C 69 % 1018,3 hPa 0,0 mm 5,8 km/h (2 Bft) N-NW 347 1 min 0,000 mm 6,4 UV-I 865 W/m 17,3 C 8,0 km/h (2 Bft)
15.08.2016 13:46 23,3 C 23,3 C 73 % 1018,3 hPa 0,0 mm 6,0 km/h (2 Bft) NO 46 1 min 0,000 mm 6,4 UV-I 868 W/m 18,2 C 8,0 km/h (2 Bft)
15.08.2016 13:47 23,2 C 23,3 C 68 % 1018,3 hPa 0,0 mm 7,0 km/h (2 Bft) NO 49 1 min 0,000 mm 6,0 UV-I 868 W/m 17,0 C 9,7 km/h (2 Bft)
15.08.2016 13:48 23,0 C 23,2 C 68 % 1018,3 hPa 0,0 mm 5,5 km/h (1 Bft) O-NO 57 0 min 0,000 mm 4,6 UV-I 285 W/m 16,8 C 9,7 km/h (2 Bft)
15.08.2016 13:49 22,8 C 23,0 C 69 % 1018,3 hPa 0,0 mm 3,1 km/h (1 Bft) NO 47 0 min 0,000 mm 6,1 UV-I 285 W/m 16,8 C 6,4 km/h (2 Bft)
15.08.2016 13:50 22,6 C 22,8 C 71 % 1018,3 hPa 0,0 mm 2,0 km/h (1 Bft) O-NO 65 1 min 0,000 mm 6,1 UV-I 816 W/m 17,1 C 4,8 km/h (1 Bft)
15.08.2016 13:51 22,5 C 22,6 C 72 % 1018,2 hPa 0,0 mm 2,1 km/h (1 Bft) NO 39 1 min 0,000 mm 6,1 UV-I 826 W/m 17,2 C 3,2 km/h (1 Bft)
15.08.2016 13:52 22,6 C 22,6 C 72 % 1018,3 hPa 0,0 mm 2,2 km/h (1 Bft) NO 54 1 min 0,000 mm 5,9 UV-I 819 W/m 17,3 C 6,4 km/h (2 Bft)
15.08.2016 13:53 22,6 C 22,6 C 69 % 1018,2 hPa 0,0 mm 7,3 km/h (2 Bft) NO 54 1 min 0,000 mm 6,2 UV-I 819 W/m 16,6 C 9,7 km/h (2 Bft)
15.08.2016 13:54 22,7 C 22,7 C 71 % 1018,2 hPa 0,0 mm 4,0 km/h (1 Bft) O 95 1 min 0,000 mm 5,7 UV-I 777 W/m 17,2 C 6,4 km/h (2 Bft)
15.08.2016 13:55 22,8 C 22,8 C 70 % 1018,2 hPa 0,0 mm 5,4 km/h (1 Bft) NO 47 1 min 0,000 mm 5,7 UV-I 770 W/m 17,0 C 6,4 km/h (2 Bft)
15.08.2016 13:56 22,7 C 22,8 C 69 % 1018,2 hPa 0,0 mm 7,6 km/h (2 Bft) O-SO 119 1 min 0,000 mm 5,5 UV-I 696 W/m 16,7 C 9,7 km/h (2 Bft)
15.08.2016 13:57 22,6 C 22,7 C 72 % 1018,2 hPa 0,0 mm 6,6 km/h (2 Bft) NO 47 1 min 0,000 mm 5,6 UV-I 670 W/m 17,3 C 9,7 km/h (2 Bft)
15.08.2016 13:58 22,6 C 22,6 C 69 % 1018,2 hPa 0,0 mm 4,1 km/h (1 Bft) O-NO 78 1 min 0,000 mm 5,5 UV-I 686 W/m 16,6 C 8,0 km/h (2 Bft)
15.08.2016 13:59 22,5 C 22,6 C 70 % 1018,2 hPa 0,0 mm 8,2 km/h (2 Bft) O-NO 76 1 min 0,000 mm 5,4 UV-I 686 W/m 16,7 C 9,7 km/h (2 Bft)
15.08.2016 14:00 22,6 C 22,6 C 72 % 1018,2 hPa 0,0 mm 5,6 km/h (1 Bft) NO 49 1 min 0,000 mm 5,0 UV-I 717 W/m 17,3 C 8,0 km/h (2 Bft)
15.08.2016 14:01 22,6 C 22,6 C 70 % 1018,2 hPa 0,0 mm 3,2 km/h (1 Bft) O-SO 104 1 min 0,482 mm 5,9 UV-I 761 W/m 16,8 C 4,8 km/h (1 Bft)
15.08.2016 14:02 22,6 C 22,6 C 71 % 1018,2 hPa 0,0 mm 5,0 km/h (1 Bft) O-SO 123 1 min 0,000 mm 5,9 UV-I 761 W/m 17,1 C 6,4 km/h (2 Bft)
15.08.2016 14:03 22,4 C 22,6 C 69 % 1018,1 hPa 0,0 mm 3,2 km/h (1 Bft) O-SO 112 1 min 0,000 mm 5,3 UV-I 779 W/m 16,4 C 4,8 km/h (1 Bft)
15.08.2016 14:04 22,5 C 22,5 C 66 % 1018,2 hPa 0,0 mm 4,8 km/h (1 Bft) O-NO 67 1 min 0,000 mm 5,2 UV-I 705 W/m 15,8 C 6,4 km/h (2 Bft)
15.08.2016 14:05 22,5 C 22,5 C 66 % 1018,1 hPa 0,0 mm 1,6 km/h (1 Bft) S 180 1 min 0,000 mm 5,7 UV-I 686 W/m 15,8 C 4,8 km/h (1 Bft)
15.08.2016 14:06 22,6 C 22,6 C 66 % 1018,1 hPa 0,0 mm 1,6 km/h (1 Bft) S 180 1 min 0,000 mm 5,7 UV-I 666 W/m 15,9 C 3,2 km/h (1 Bft)
15.08.2016 14:07 22,7 C 22,7 C 68 % 1018,1 hPa 0,0 mm 4,8 km/h (1 Bft) O-SO 112 1 min 0,000 mm 5,7 UV-I 729 W/m 16,5 C 6,4 km/h (2 Bft)
15.08.2016 14:08 22,7 C 22,7 C 72 % 1018,2 hPa 0,0 mm 3,2 km/h (1 Bft) O-SO 112 1 min 0,000 mm 5,7 UV-I 686 W/m 17,4 C 4,8 km/h (1 Bft)
15.08.2016 14:09 22,7 C 22,7 C 68 % 1018,1 hPa 0,0 mm 3,2 km/h (1 Bft) O-SO 112 1 min 0,000 mm 6,0 UV-I 738 W/m 16,5 C 3,2 km/h (1 Bft)
15.08.2016 14:10 22,8 C 22,8 C 71 % 1018,1 hPa 0,0 mm 4,8 km/h (1 Bft) O-NO 67 1 min 0,000 mm 6,2 UV-I 802 W/m 17,3 C 6,4 km/h (2 Bft)
15.08.2016 14:11 22,9 C 22,9 C 67 % 1018,1 hPa 0,0 mm 4,8 km/h (1 Bft) N-NO 22 1 min 0,000 mm 6,1 UV-I 770 W/m 16,4 C 6,4 km/h (2 Bft)
15.08.2016 14:12 23,1 C 23,1 C 69 % 1018,0 hPa 0,0 mm 4,8 km/h (1 Bft) N-NO 22 1 min 0,000 mm 6,1 UV-I 773 W/m 17,1 C 6,4 km/h (2 Bft)
15.08.2016 14:13 23,2 C 23,2 C 67 % 1018,1 hPa 0,0 mm 4,8 km/h (1 Bft) O-SO 112 1 min 0,000 mm 6,2 UV-I 812 W/m 16,7 C 9,7 km/h (2 Bft)
15.08.2016 14:14 23,2 C 23,2 C 68 % 1018,0 hPa 0,0 mm 6,4 km/h (2 Bft) NO 45 1 min 0,000 mm 6,2 UV-I 795 W/m 17,0 C 8,0 km/h (2 Bft)
15.08.2016 14:15 23,3 C 23,3 C 68 % 1018,0 hPa 0,0 mm 6,4 km/h (2 Bft) N-NO 22 1 min 0,000 mm 6,2 UV-I 786 W/m 17,1 C 8,0 km/h (2 Bft)
15.08.2016 14:16 23,4 C 23,4 C 68 % 1018,0 hPa 0,0 mm 6,4 km/h (2 Bft) NO 45 1 min 0,000 mm 5,6 UV-I 786 W/m 17,1 C 9,7 km/h (2 Bft)
15.08.2016 14:17 23,4 C 23,4 C 67 % 1018,1 hPa 0,0 mm 4,8 km/h (1 Bft) N-NO 22 1 min 0,000 mm 6,2 UV-I 786 W/m 16,9 C 9,7 km/h (2 Bft)
15.08.2016 14:18 23,4 C 23,4 C 72 % 1018,0 hPa 0,0 mm 4,8 km/h (1 Bft) N 360 1 min 0,000 mm 4,0 UV-I 786 W/m 18,1 C 8,0 km/h (2 Bft)
15.08.2016 14:19 23,4 C 23,4 C 69 % 1018,0 hPa 0,0 mm 4,8 km/h (1 Bft) N 360 1 min 0,000 mm 4,2 UV-I 786 W/m 17,4 C 8,0 km/h (2 Bft)
15.08.2016 14:20 23,3 C 23,4 C 68 % 1018,1 hPa 0,0 mm 6,4 km/h (2 Bft) N-NO 22 0 min 0,000 mm 3,5 UV-I 271 W/m 17,1 C 8,0 km/h (2 Bft)
15.08.2016 14:21 23,3 C 23,3 C 68 % 1018,0 hPa 0,0 mm 4,8 km/h (1 Bft) N-NW 337 0 min 0,000 mm 5,8 UV-I 364 W/m 17,1 C 6,4 km/h (2 Bft)
15.08.2016 14:22 23,4 C 23,4 C 71 % 1018,1 hPa 0,0 mm 1,6 km/h (1 Bft) NW 315 1 min 0,000 mm 6,1 UV-I 791 W/m 17,8 C 4,8 km/h (1 Bft)
15.08.2016 14:23 23,4 C 23,4 C 70 % 1018,1 hPa 0,0 mm 6,4 km/h (2 Bft) NO 45 1 min 0,000 mm 6,1 UV-I 791 W/m 17,6 C 9,7 km/h (2 Bft)
15.08.2016 14:24 23,3 C 23,4 C 68 % 1018,1 hPa 0,0 mm 6,4 km/h (2 Bft) NO 45 1 min 0,000 mm 5,2 UV-I 791 W/m 17,1 C 9,7 km/h (2 Bft)
15.08.2016 14:25 23,3 C 23,3 C 67 % 1018,1 hPa 0,0 mm 4,8 km/h (1 Bft) NO 45 1 min 0,000 mm 6,0 UV-I 816 W/m 16,8 C 8,0 km/h (2 Bft)
15.08.2016 14:26 23,3 C 23,3 C 67 % 1018,1 hPa 0,0 mm 6,4 km/h (2 Bft) N 360 1 min 0,000 mm 6,0 UV-I 809 W/m 16,8 C 12,9 km/h (3 Bft)
15.08.2016 14:27 23,4 C 23,4 C 66 % 1018,1 hPa 0,0 mm 8,0 km/h (2 Bft) N 360 1 min 0,000 mm 6,0 UV-I 802 W/m 16,7 C 12,9 km/h (3 Bft)
15.08.2016 14:28 23,3 C 23,4 C 67 % 1018,0 hPa 0,0 mm 6,4 km/h (2 Bft) N-NW 337 1 min 0,000 mm 6,0 UV-I 800 W/m 16,8 C 9,7 km/h (2 Bft)
15.08.2016 14:29 23,4 C 23,4 C 69 % 1018,1 hPa 0,0 mm 3,2 km/h (1 Bft) N-NO 22 1 min 0,000 mm 5,9 UV-I 791 W/m 17,4 C 6,4 km/h (2 Bft)
15.08.2016 14:30 23,4 C 23,4 C 69 % 1018,0 hPa 0,0 mm 4,8 km/h (1 Bft) N 360 1 min 0,000 mm 5,9 UV-I 793 W/m 17,4 C 8,0 km/h (2 Bft)
15.08.2016 14:31 23,4 C 23,5 C 67 % 1018,1 hPa 0,0 mm 4,8 km/h (1 Bft) N-NW 337 1 min 0,000 mm 5,9 UV-I 793 W/m 16,9 C 8,0 km/h (2 Bft)
15.08.2016 14:32 23,6 C 23,6 C 67 % 1018,0 hPa 0,0 mm 4,8 km/h (1 Bft) NO 45 1 min 0,000 mm 5,9 UV-I 766 W/m 17,1 C 8,0 km/h (2 Bft)
15.08.2016 14:33 23,5 C 23,5 C 67 % 1018,0 hPa 0,0 mm 3,2 km/h (1 Bft) N-NO 22 1 min 0,000 mm 5,8 UV-I 766 W/m 17,0 C 4,8 km/h (1 Bft)
15.08.2016 14:34 23,4 C 23,4 C 68 % 1018,0 hPa 0,0 mm 1,6 km/h (1 Bft) N-NO 22 1 min 0,000 mm 5,8 UV-I 788 W/m 17,1 C 3,2 km/h (1 Bft)
15.08.2016 14:35 23,3 C 23,3 C 67 % 1018,0 hPa 0,0 mm 3,2 km/h (1 Bft) N-NW 337 1 min 0,000 mm 5,8 UV-I 779 W/m 16,8 C 4,8 km/h (1 Bft)
15.08.2016 14:36 23,4 C 23,4 C 70 % 1018,0 hPa 0,0 mm 3,2 km/h (1 Bft) N-NW 337 1 min 0,000 mm 5,8 UV-I 770 W/m 17,6 C 8,0 km/h (2 Bft)
15.08.2016 14:37 23,4 C 23,4 C 68 % 1018,0 hPa 0,0 mm 4,8 km/h (1 Bft) N-NW 337 1 min 0,000 mm 5,8 UV-I 780 W/m 17,1 C 11,3 km/h (2 Bft)
15.08.2016 14:38 23,6 C 23,6 C 68 % 1018,0 hPa 0,0 mm 3,2 km/h (1 Bft) O 90 1 min 0,000 mm 5,8 UV-I 784 W/m 17,3 C 8,0 km/h (2 Bft)
15.08.2016 14:39 23,6 C 23,6 C 71 % 1018,0 hPa 0,0 mm 1,6 km/h (1 Bft) S-SO 157 1 min 0,000 mm 5,8 UV-I 788 W/m 18,0 C 3,2 km/h (1 Bft)
15.08.2016 14:40 23,7 C 23,7 C 70 % 1018,0 hPa 0,0 mm 8,0 km/h (2 Bft) NO 45 1 min 0,000 mm 5,8 UV-I 779 W/m 17,9 C 14,5 km/h (3 Bft)
15.08.2016 14:41 23,7 C 23,7 C 69 % 1018,0 hPa 0,0 mm 9,7 km/h (2 Bft) O 90 1 min 0,000 mm 5,8 UV-I 773 W/m 17,7 C 14,5 km/h (3 Bft)
15.08.2016 14:42 23,5 C 23,6 C 66 % 1018,0 hPa 0,0 mm 6,4 km/h (2 Bft) NO 45 1 min 0,000 mm 5,8 UV-I 770 W/m 16,8 C 9,7 km/h (2 Bft)
15.08.2016 14:44 23,4 C 23,6 C 69 % 1017,9 hPa 0,0 mm 3,1 km/h (1 Bft) N-NO 27 2 min 0,000 mm 5,7 UV-I 766 W/m 17,4 C 3,2 km/h (1 Bft)
15.08.2016 14:45 23,5 C 23,5 C 69 % 1018,0 hPa 0,0 mm 6,5 km/h (2 Bft) NO 50 1 min 0,000 mm 5,7 UV-I 758 W/m 17,5 C 8,0 km/h (2 Bft)
15.08.2016 14:46 23,6 C 23,6 C 70 % 1017,9 hPa 0,0 mm 3,1 km/h (1 Bft) O 90 1 min 0,000 mm 5,6 UV-I 759 W/m 17,8 C 6,4 km/h (2 Bft)
15.08.2016 14:47 23,7 C 23,7 C 71 % 1017,9 hPa 0,0 mm 2,5 km/h (1 Bft) NO 35 1 min 0,000 mm 5,7 UV-I 765 W/m 18,1 C 6,4 km/h (2 Bft)
15.08.2016 14:48 23,7 C 23,7 C 69 % 1018,0 hPa 0,0 mm 4,8 km/h (1 Bft) NO 45 1 min 0,000 mm 5,7 UV-I 768 W/m 17,7 C 6,4 km/h (2 Bft)
15.08.2016 14:49 23,7 C 23,7 C 69 % 1017,9 hPa 0,0 mm 4,8 km/h (1 Bft) O-NO 67 1 min 0,000 mm 5,7 UV-I 761 W/m 17,7 C 11,3 km/h (2 Bft)
15.08.2016 14:50 23,5 C 23,6 C 69 % 1017,9 hPa 0,0 mm 8,0 km/h (2 Bft) O-NO 67 1 min 0,000 mm 5,6 UV-I 759 W/m 17,5 C 12,9 km/h (3 Bft)
15.08.2016 14:51 23,4 C 23,5 C 70 % 1017,9 hPa 0,0 mm 8,0 km/h (2 Bft) O-NO 67 1 min 0,000 mm 5,6 UV-I 766 W/m 17,6 C 12,9 km/h (3 Bft)
15.08.2016 14:52 23,3 C 23,4 C 71 % 1017,9 hPa 0,0 mm 9,7 km/h (2 Bft) O 90 1 min 0,000 mm 5,5 UV-I 759 W/m 17,7 C 12,9 km/h (3 Bft)
15.08.2016 14:53 23,2 C 23,3 C 69 % 1017,9 hPa 0,0 mm 8,0 km/h (2 Bft) SO 135 1 min 0,000 mm 5,5 UV-I 763 W/m 17,2 C 17,7 km/h (3 Bft)
15.08.2016 14:54 23,1 C 23,1 C 70 % 1017,9 hPa 0,0 mm 1,6 km/h (1 Bft) O 90 1 min 0,000 mm 5,4 UV-I 738 W/m 17,3 C 17,7 km/h (3 Bft)
15.08.2016 14:55 23,1 C 23,1 C 71 % 1017,9 hPa 0,0 mm 6,4 km/h (2 Bft) O 90 1 min 0,000 mm 5,3 UV-I 733 W/m 17,5 C 9,7 km/h (2 Bft)
15.08.2016 14:56 23,1 C 23,1 C 71 % 1017,8 hPa 0,0 mm 6,4 km/h (2 Bft) N-NO 22 1 min 0,000 mm 5,2 UV-I 689 W/m 17,5 C 9,7 km/h (2 Bft)
15.08.2016 14:57 23,2 C 23,2 C 68 % 1017,8 hPa 0,0 mm 8,0 km/h (2 Bft) NO 45 1 min 0,000 mm 4,8 UV-I 744 W/m 17,0 C 11,3 km/h (2 Bft)
15.08.2016 14:58 23,1 C 23,2 C 67 % 1017,8 hPa 0,0 mm 4,8 km/h (1 Bft) NO 45 1 min 0,000 mm 5,2 UV-I 603 W/m 16,6 C 6,4 km/h (2 Bft)
15.08.2016 14:59 23,1 C 23,1 C 67 % 1017,9 hPa 0,0 mm 3,2 km/h (1 Bft) NW 315 1 min 0,000 mm 3,5 UV-I 603 W/m 16,6 C 6,4 km/h (2 Bft)
15.08.2016 15:00 23,1 C 23,1 C 69 % 1017,8 hPa 0,0 mm 4,8 km/h (1 Bft) N-NW 337 1 min 0,457 mm 4,1 UV-I 603 W/m 17,1 C 9,7 km/h (2 Bft)
15.08.2016 15:01 23,1 C 23,1 C 71 % 1017,8 hPa 0,0 mm 4,8 km/h (1 Bft) O-NO 67 1 min 0,000 mm 5,3 UV-I 603 W/m 17,5 C 8,0 km/h (2 Bft)
15.08.2016 15:02 23,1 C 23,2 C 67 % 1017,8 hPa 0,0 mm 6,4 km/h (2 Bft) O-NO 67 1 min 0,000 mm 5,2 UV-I 798 W/m 16,6 C 8,0 km/h (2 Bft)
15.08.2016 15:03 23,1 C 23,2 C 68 % 1017,8 hPa 0,0 mm 3,2 km/h (1 Bft) N-NO 22 1 min 0,000 mm 3,1 UV-I 798 W/m 16,9 C 8,0 km/h (2 Bft)
15.08.2016 15:04 23,2 C 23,2 C 67 % 1017,8 hPa 0,0 mm 8,0 km/h (2 Bft) NO 45 1 min 0,000 mm 4,5 UV-I 826 W/m 16,7 C 9,7 km/h (2 Bft)
15.08.2016 15:05 23,1 C 23,2 C 66 % 1017,8 hPa 0,0 mm 6,4 km/h (2 Bft) N-NW 337 1 min 0,000 mm 5,1 UV-I 772 W/m 16,4 C 9,7 km/h (2 Bft)
15.08.2016 15:06 23,2 C 23,2 C 68 % 1017,8 hPa 0,0 mm 4,8 km/h (1 Bft) NW 315 1 min 0,000 mm 4,8 UV-I 812 W/m 17,0 C 8,0 km/h (2 Bft)
15.08.2016 15:07 23,2 C 23,2 C 66 % 1017,8 hPa 0,0 mm 8,0 km/h (2 Bft) O-NO 67 1 min 0,000 mm 5,1 UV-I 788 W/m 16,5 C 12,9 km/h (3 Bft)
15.08.2016 15:08 23,2 C 23,2 C 68 % 1017,8 hPa 0,0 mm 8,0 km/h (2 Bft) SO 135 1 min 0,000 mm 5,1 UV-I 766 W/m 17,0 C 11,3 km/h (2 Bft)
15.08.2016 15:09 23,2 C 23,3 C 67 % 1017,8 hPa 0,0 mm 1,6 km/h (1 Bft) SO 135 1 min 0,000 mm 5,0 UV-I 742 W/m 16,7 C 6,4 km/h (2 Bft)
15.08.2016 15:10 23,2 C 23,2 C 68 % 1017,8 hPa 0,0 mm 6,4 km/h (2 Bft) O 90 1 min 0,000 mm 4,9 UV-I 740 W/m 17,0 C 11,3 km/h (2 Bft)
15.08.2016 15:11 23,3 C 23,3 C 72 % 1017,8 hPa 0,0 mm 3,2 km/h (1 Bft) N-NO 22 1 min 0,000 mm 4,9 UV-I 731 W/m 18,0 C 8,0 km/h (2 Bft)
15.08.2016 15:12 23,4 C 23,4 C 68 % 1017,8 hPa 0,0 mm 4,8 km/h (1 Bft) N 360 1 min 0,000 mm 4,9 UV-I 740 W/m 17,1 C 9,7 km/h (2 Bft)
15.08.2016 15:13 23,6 C 23,6 C 69 % 1017,8 hPa 0,0 mm 4,8 km/h (1 Bft) NO 45 1 min 0,000 mm 4,9 UV-I 740 W/m 17,6 C 8,0 km/h (2 Bft)
15.08.2016 15:14 23,6 C 23,6 C 69 % 1017,8 hPa 0,0 mm 4,8 km/h (1 Bft) O-NO 67 1 min 0,000 mm 4,9 UV-I 733 W/m 17,6 C 8,0 km/h (2 Bft)
15.08.2016 15:15 23,6 C 23,6 C 67 % 1017,8 hPa 0,0 mm 9,7 km/h (2 Bft) O 90 1 min 0,000 mm 4,9 UV-I 729 W/m 17,1 C 16,1 km/h (3 Bft)
15.08.2016 15:16 23,4 C 23,6 C 68 % 1017,8 hPa 0,0 mm 8,0 km/h (2 Bft) O 90 1 min 0,000 mm 4,9 UV-I 733 W/m 17,1 C 12,9 km/h (3 Bft)
15.08.2016 15:17 23,3 C 23,4 C 68 % 1017,7 hPa 0,0 mm 4,8 km/h (1 Bft) O 90 1 min 0,000 mm 4,9 UV-I 738 W/m 17,1 C 8,0 km/h (2 Bft)
15.08.2016 15:18 23,2 C 23,3 C 69 % 1017,8 hPa 0,0 mm 8,0 km/h (2 Bft) NO 45 1 min 0,000 mm 5,0 UV-I 745 W/m 17,2 C 14,5 km/h (3 Bft)
15.08.2016 15:19 23,2 C 23,2 C 68 % 1017,8 hPa 0,0 mm 8,0 km/h (2 Bft) N-NO 22 1 min 0,000 mm 5,0 UV-I 749 W/m 17,0 C 9,7 km/h (2 Bft)
15.08.2016 15:20 23,2 C 23,2 C 71 % 1017,7 hPa 0,0 mm 8,0 km/h (2 Bft) NO 45 1 min 0,000 mm 5,0 UV-I 745 W/m 17,6 C 14,5 km/h (3 Bft)
15.08.2016 15:21 23,2 C 23,2 C 67 % 1017,8 hPa 0,0 mm 11,3 km/h (2 Bft) NO 39 1 min 2,007 mm 4,1 UV-I 745 W/m 16,7 C 11,3 km/h (2 Bft)
15.08.2016 15:23 23,3 C 23,3 C 68 % 1017,7 hPa 0,0 mm 3,8 km/h (1 Bft) NO 45 2 min 0,000 mm 4,9 UV-I 747 W/m 17,1 C 6,4 km/h (2 Bft)
15.08.2016 15:24 23,3 C 23,3 C 68 % 1017,7 hPa 0,0 mm 9,7 km/h (2 Bft) O-NO 67 1 min 0,000 mm 5,0 UV-I 772 W/m 17,1 C 12,9 km/h (3 Bft)
15.08.2016 15:25 23,2 C 23,3 C 68 % 1017,7 hPa 0,0 mm 4,8 km/h (1 Bft) O-NO 67 1 min 0,000 mm 4,1 UV-I 772 W/m 17,0 C 12,9 km/h (3 Bft)
15.08.2016 15:27 23,1 C 23,3 C 68 % 1017,7 hPa 0,0 mm 9,0 km/h (2 Bft) O-NO 65 2 min 0,000 mm 3,3 UV-I 749 W/m 16,9 C 12,9 km/h (3 Bft)
15.08.2016 15:28 23,1 C 23,1 C 69 % 1017,7 hPa 0,0 mm 3,5 km/h (1 Bft) NO 51 1 min 0,000 mm 3,3 UV-I 749 W/m 17,1 C 6,4 km/h (2 Bft)
15.08.2016 15:29 23,0 C 23,1 C 68 % 1017,7 hPa 0,0 mm 6,8 km/h (2 Bft) O-NO 62 1 min 0,000 mm 4,6 UV-I 749 W/m 16,8 C 8,0 km/h (2 Bft)
15.08.2016 15:30 22,9 C 23,0 C 68 % 1017,7 hPa 0,0 mm 4,8 km/h (1 Bft) NO 46 1 min 0,000 mm 4,4 UV-I 749 W/m 16,7 C 6,4 km/h (2 Bft)
15.08.2016 15:31 22,9 C 22,9 C 68 % 1017,7 hPa 0,0 mm 5,6 km/h (1 Bft) O-NO 69 1 min 0,000 mm 4,8 UV-I 742 W/m 16,7 C 6,4 km/h (2 Bft)
15.08.2016 15:32 23,0 C 23,0 C 69 % 1017,6 hPa 0,0 mm 8,0 km/h (2 Bft) O-NO 64 1 min 0,000 mm 4,8 UV-I 756 W/m 17,0 C 11,3 km/h (2 Bft)
15.08.2016 15:33 23,0 C 23,0 C 70 % 1017,7 hPa 0,0 mm 8,0 km/h (2 Bft) N 351 1 min 0,000 mm 4,9 UV-I 756 W/m 17,2 C 12,9 km/h (3 Bft)
15.08.2016 15:34 23,2 C 23,2 C 68 % 1017,7 hPa 0,0 mm 6,0 km/h (2 Bft) N 355 1 min 0,000 mm 4,9 UV-I 773 W/m 17,0 C 9,7 km/h (2 Bft)
15.08.2016 15:35 23,3 C 23,3 C 67 % 1017,7 hPa 0,0 mm 3,7 km/h (1 Bft) NO 47 1 min 0,000 mm 4,9 UV-I 733 W/m 16,8 C 8,0 km/h (2 Bft)
15.08.2016 15:36 23,3 C 23,3 C 67 % 1017,7 hPa 0,0 mm 6,4 km/h (2 Bft) N-NW 344 1 min 0,000 mm 4,9 UV-I 717 W/m 16,8 C 8,0 km/h (2 Bft)
15.08.2016 15:37 23,3 C 23,3 C 67 % 1017,7 hPa 0,0 mm 10,2 km/h (2 Bft) N-NW 335 1 min 0,000 mm 4,8 UV-I 703 W/m 16,8 C 12,9 km/h (3 Bft)
15.08.2016 15:38 23,3 C 23,3 C 66 % 1017,6 hPa 0,0 mm 6,7 km/h (2 Bft) NW 309 1 min 0,000 mm 4,7 UV-I 635 W/m 16,6 C 9,7 km/h (2 Bft)
15.08.2016 15:39 23,4 C 23,4 C 68 % 1017,7 hPa 0,0 mm 5,0 km/h (1 Bft) N-NO 19 1 min 0,000 mm 4,4 UV-I 633 W/m 17,1 C 6,4 km/h (2 Bft)
15.08.2016 15:40 23,4 C 23,4 C 68 % 1017,6 hPa 0,0 mm 7,0 km/h (2 Bft) N-NO 16 1 min 0,000 mm 4,6 UV-I 663 W/m 17,1 C 12,9 km/h (3 Bft)
15.08.2016 15:41 23,4 C 23,4 C 67 % 1017,7 hPa 0,0 mm 8,9 km/h (2 Bft) NO 34 1 min 0,000 mm 4,6 UV-I 663 W/m 16,9 C 12,9 km/h (3 Bft)
15.08.2016 15:42 23,4 C 23,4 C 66 % 1017,6 hPa 0,0 mm 7,9 km/h (2 Bft) NO 34 1 min 0,000 mm 4,5 UV-I 659 W/m 16,7 C 12,9 km/h (3 Bft)
15.08.2016 15:43 23,4 C 23,4 C 66 % 1017,6 hPa 0,0 mm 9,7 km/h (2 Bft) N-NO 33 1 min 0,000 mm 4,5 UV-I 666 W/m 16,7 C 14,5 km/h (3 Bft)
15.08.2016 15:44 23,3 C 23,4 C 67 % 1017,6 hPa 0,0 mm 7,3 km/h (2 Bft) N-NO 28 1 min 0,000 mm 4,6 UV-I 666 W/m 16,8 C 9,7 km/h (2 Bft)
15.08.2016 15:45 23,2 C 23,3 C 67 % 1017,6 hPa 0,0 mm 2,1 km/h (1 Bft) NO 38 1 min 0,000 mm 4,5 UV-I 670 W/m 16,7 C 3,2 km/h (1 Bft)
15.08.2016 15:46 23,2 C 23,2 C 66 % 1017,6 hPa 0,0 mm 3,8 km/h (1 Bft) NO 47 1 min 0,000 mm 4,5 UV-I 675 W/m 16,5 C 4,8 km/h (1 Bft)
15.08.2016 15:47 23,2 C 23,2 C 67 % 1017,6 hPa 0,0 mm 3,5 km/h (1 Bft) NO 49 1 min 0,000 mm 4,6 UV-I 694 W/m 16,7 C 4,8 km/h (1 Bft)
15.08.2016 15:48 23,3 C 23,3 C 69 % 1017,6 hPa 0,0 mm 4,0 km/h (1 Bft) N 355 1 min 0,000 mm 4,6 UV-I 694 W/m 17,3 C 6,4 km/h (2 Bft)
15.08.2016 15:50 23,5 C 23,5 C 67 % 1017,5 hPa 0,0 mm 4,7 km/h (1 Bft) N-NW 329 2 min 0,000 mm 4,4 UV-I 659 W/m 17,0 C 9,7 km/h (2 Bft)
15.08.2016 15:51 23,4 C 23,6 C 67 % 1017,5 hPa 0,0 mm 6,2 km/h (2 Bft) NO 51 1 min 0,000 mm 4,4 UV-I 659 W/m 16,9 C 11,3 km/h (2 Bft)
15.08.2016 15:52 23,4 C 23,4 C 68 % 1017,6 hPa 0,0 mm 6,7 km/h (2 Bft) N-NO 30 1 min 0,000 mm 4,3 UV-I 645 W/m 17,1 C 9,7 km/h (2 Bft)
15.08.2016 15:53 23,3 C 23,4 C 65 % 1017,6 hPa 0,0 mm 8,6 km/h (2 Bft) O-NO 72 1 min 0,000 mm 4,3 UV-I 649 W/m 16,3 C 12,9 km/h (3 Bft)
15.08.2016 15:54 23,2 C 23,3 C 67 % 1017,6 hPa 0,0 mm 7,7 km/h (2 Bft) O 94 1 min 0,000 mm 4,3 UV-I 643 W/m 16,7 C 9,7 km/h (2 Bft)
15.08.2016 15:55 23,2 C 23,2 C 68 % 1017,6 hPa 0,0 mm 6,7 km/h (2 Bft) O 90 1 min 0,000 mm 4,3 UV-I 656 W/m 17,0 C 9,7 km/h (2 Bft)
15.08.2016 15:56 23,2 C 23,2 C 70 % 1017,6 hPa 0,0 mm 6,9 km/h (2 Bft) N-NO 25 1 min 0,000 mm 4,3 UV-I 663 W/m 17,4 C 8,0 km/h (2 Bft)
15.08.2016 15:57 23,3 C 23,3 C 67 % 1017,5 hPa 0,0 mm 4,5 km/h (1 Bft) NO 51 1 min 0,000 mm 4,3 UV-I 659 W/m 16,8 C 6,4 km/h (2 Bft)
15.08.2016 15:58 23,4 C 23,4 C 67 % 1017,6 hPa 0,0 mm 3,4 km/h (1 Bft) O-NO 75 1 min 0,000 mm 4,3 UV-I 659 W/m 16,9 C 4,8 km/h (1 Bft)
15.08.2016 15:59 23,6 C 23,6 C 70 % 1017,6 hPa 0,0 mm 3,7 km/h (1 Bft) N-NW 339 1 min 0,000 mm 4,3 UV-I 654 W/m 17,8 C 6,4 km/h (2 Bft)
15.08.2016 16:01 23,6 C 23,6 C 66 % 1017,6 hPa 0,0 mm 8,8 km/h (2 Bft) N-NO 25 2 min 0,000 mm 4,3 UV-I 657 W/m 16,9 C 12,9 km/h (3 Bft)
15.08.2016 16:02 23,5 C 23,6 C 65 % 1017,5 hPa 0,0 mm 6,4 km/h (2 Bft) O-NO 71 1 min 0,000 mm 4,3 UV-I 657 W/m 16,5 C 6,4 km/h (2 Bft)
15.08.2016 16:03 23,4 C 23,5 C 67 % 1017,5 hPa 0,0 mm 7,6 km/h (2 Bft) N-NW 340 1 min 0,000 mm 4,3 UV-I 652 W/m 16,9 C 8,0 km/h (2 Bft)
15.08.2016 16:04 23,4 C 23,4 C 67 % 1017,6 hPa 0,0 mm 8,9 km/h (2 Bft) N-NW 340 1 min 0,000 mm 4,1 UV-I 645 W/m 16,9 C 9,7 km/h (2 Bft)
15.08.2016 16:06 23,4 C 23,4 C 68 % 1017,5 hPa 0,0 mm 3,2 km/h (1 Bft) N 360 2 min 0,000 mm 3,5 UV-I 657 W/m 17,1 C 3,2 km/h (1 Bft)
15.08.2016 16:07 23,6 C 23,6 C 70 % 1017,5 hPa 0,0 mm 6,4 km/h (2 Bft) N-NO 22 1 min 0,000 mm 4,2 UV-I 673 W/m 17,8 C 9,7 km/h (2 Bft)
15.08.2016 16:08 23,6 C 23,6 C 68 % 1017,5 hPa 0,0 mm 1,6 km/h (1 Bft) N-NW 337 1 min 0,000 mm 4,0 UV-I 656 W/m 17,3 C 3,2 km/h (1 Bft)
15.08.2016 16:09 23,4 C 23,5 C 66 % 1017,5 hPa 0,0 mm 4,8 km/h (1 Bft) N-NO 22 1 min 0,000 mm 3,8 UV-I 571 W/m 16,7 C 11,3 km/h (2 Bft)
15.08.2016 16:10 23,4 C 23,4 C 67 % 1017,5 hPa 0,0 mm 8,0 km/h (2 Bft) N 360 1 min 0,000 mm 2,6 UV-I 571 W/m 16,9 C 14,5 km/h (3 Bft)
15.08.2016 16:11 23,4 C 23,4 C 64 % 1017,6 hPa 0,0 mm 6,4 km/h (2 Bft) N 360 1 min 0,000 mm 3,1 UV-I 571 W/m 16,2 C 9,7 km/h (2 Bft)
15.08.2016 16:12 23,3 C 23,4 C 65 % 1017,5 hPa 0,0 mm 4,8 km/h (1 Bft) NO 45 1 min 0,000 mm 3,3 UV-I 571 W/m 16,3 C 6,4 km/h (2 Bft)
15.08.2016 16:13 23,2 C 23,3 C 67 % 1017,5 hPa 0,0 mm 4,8 km/h (1 Bft) O-NO 67 1 min 0,000 mm 4,0 UV-I 649 W/m 16,7 C 9,7 km/h (2 Bft)
15.08.2016 16:14 23,2 C 23,2 C 69 % 1017,6 hPa 0,0 mm 6,4 km/h (2 Bft) NO 45 1 min 0,000 mm 4,0 UV-I 636 W/m 17,2 C 8,0 km/h (2 Bft)
15.08.2016 16:15 23,1 C 23,2 C 66 % 1017,6 hPa 0,0 mm 8,0 km/h (2 Bft) O-NO 67 1 min 0,000 mm 3,5 UV-I 585 W/m 16,4 C 12,9 km/h (3 Bft)
15.08.2016 16:16 23,1 C 23,1 C 68 % 1017,5 hPa 0,0 mm 8,0 km/h (2 Bft) O-NO 67 1 min 0,000 mm 3,7 UV-I 585 W/m 16,9 C 12,9 km/h (3 Bft)
15.08.2016 16:18 22,9 C 23,1 C 67 % 1017,4 hPa 0,0 mm 8,0 km/h (2 Bft) NO 51 2 min 0,000 mm 2,5 UV-I 408 W/m 16,4 C 14,5 km/h (3 Bft)
15.08.2016 16:19 22,9 C 22,9 C 65 % 1017,5 hPa 0,0 mm 7,7 km/h (2 Bft) O-NO 71 0 min 0,000 mm 2,3 UV-I 139 W/m 16,0 C 11,3 km/h (2 Bft)
15.08.2016 16:20 22,8 C 22,9 C 66 % 1017,5 hPa 0,0 mm 4,1 km/h (1 Bft) NO 38 0 min 0,000 mm 2,2 UV-I 121 W/m 16,1 C 6,4 km/h (2 Bft)
15.08.2016 16:21 22,9 C 22,9 C 67 % 1017,5 hPa 0,0 mm 4,2 km/h (1 Bft) N-NO 24 0 min 0,000 mm 2,2 UV-I 125 W/m 16,4 C 4,8 km/h (1 Bft)
15.08.2016 16:22 22,9 C 22,9 C 66 % 1017,5 hPa 0,0 mm 5,5 km/h (1 Bft) N 355 0 min 0,000 mm 2,2 UV-I 137 W/m 16,2 C 8,0 km/h (2 Bft)
15.08.2016 16:23 22,9 C 22,9 C 67 % 1017,5 hPa 0,0 mm 9,5 km/h (2 Bft) N-NW 348 0 min 0,000 mm 2,2 UV-I 130 W/m 16,4 C 12,9 km/h (3 Bft)
15.08.2016 16:24 23,0 C 23,0 C 68 % 1017,5 hPa 0,0 mm 5,8 km/h (2 Bft) NW 309 0 min 0,000 mm 2,2 UV-I 123 W/m 16,8 C 8,0 km/h (2 Bft)
15.08.2016 16:25 23,1 C 23,1 C 69 % 1017,5 hPa 0,0 mm 4,1 km/h (1 Bft) N-NO 24 0 min 0,000 mm 2,2 UV-I 114 W/m 17,1 C 8,0 km/h (2 Bft)
15.08.2016 16:26 23,2 C 23,2 C 69 % 1017,5 hPa 0,0 mm 5,9 km/h (2 Bft) N-NO 23 0 min 0,000 mm 2,2 UV-I 113 W/m 17,2 C 8,0 km/h (2 Bft)
15.08.2016 16:27 23,2 C 23,2 C 66 % 1017,5 hPa 0,0 mm 2,8 km/h (1 Bft) N-NW 346 0 min 0,000 mm 2,2 UV-I 116 W/m 16,5 C 8,0 km/h (2 Bft)
15.08.2016 16:28 23,2 C 23,3 C 66 % 1017,5 hPa 0,0 mm 6,7 km/h (2 Bft) N-NW 340 0 min 0,000 mm 2,2 UV-I 120 W/m 16,5 C 9,7 km/h (2 Bft)
15.08.2016 16:29 23,2 C 23,2 C 66 % 1017,5 hPa 0,0 mm 4,2 km/h (1 Bft) N 5 0 min 0,000 mm 2,2 UV-I 118 W/m 16,5 C 8,0 km/h (2 Bft)
15.08.2016 16:30 23,2 C 23,2 C 66 % 1017,4 hPa 0,0 mm 6,6 km/h (2 Bft) N-NO 17 0 min 0,000 mm 2,2 UV-I 113 W/m 16,5 C 11,3 km/h (2 Bft)
15.08.2016 16:31 23,1 C 23,2 C 65 % 1017,4 hPa 0,0 mm 6,2 km/h (2 Bft) N 355 0 min 0,000 mm 2,2 UV-I 109 W/m 16,2 C 9,7 km/h (2 Bft)
15.08.2016 16:32 23,0 C 23,1 C 65 % 1017,4 hPa 0,0 mm 3,6 km/h (1 Bft) NW 320 0 min 0,000 mm 2,2 UV-I 109 W/m 16,1 C 4,8 km/h (1 Bft)
15.08.2016 16:33 23,0 C 23,0 C 67 % 1017,4 hPa 0,0 mm 3,5 km/h (1 Bft) N-NW 344 0 min 0,000 mm 2,2 UV-I 107 W/m 16,5 C 4,8 km/h (1 Bft)
15.08.2016 16:34 23,1 C 23,1 C 65 % 1017,4 hPa 0,0 mm 6,4 km/h (2 Bft) N-NW 345 0 min 0,000 mm 2,2 UV-I 109 W/m 16,2 C 8,0 km/h (2 Bft)
15.08.2016 16:35 23,0 C 23,1 C 65 % 1017,4 hPa 0,0 mm 4,0 km/h (1 Bft) NO 38 0 min 0,000 mm 2,1 UV-I 105 W/m 16,1 C 4,8 km/h (1 Bft)
15.08.2016 16:36 23,1 C 23,1 C 66 % 1017,4 hPa 0,0 mm 3,2 km/h (1 Bft) NO 54 0 min 0,000 mm 2,1 UV-I 100 W/m 16,4 C 3,2 km/h (1 Bft)
15.08.2016 16:37 23,1 C 23,1 C 66 % 1017,3 hPa 0,0 mm 4,8 km/h (1 Bft) N-NO 33 0 min 0,000 mm 2,1 UV-I 104 W/m 16,4 C 8,0 km/h (2 Bft)
15.08.2016 16:38 23,1 C 23,1 C 66 % 1017,4 hPa 0,0 mm 6,9 km/h (2 Bft) N-NW 329 0 min 0,000 mm 2,1 UV-I 109 W/m 16,4 C 8,0 km/h (2 Bft)
15.08.2016 16:39 23,1 C 23,2 C 67 % 1017,4 hPa 0,0 mm 6,5 km/h (2 Bft) NW 309 0 min 0,000 mm 2,1 UV-I 118 W/m 16,6 C 8,0 km/h (2 Bft)
15.08.2016 16:40 23,1 C 23,1 C 65 % 1017,4 hPa 0,0 mm 4,6 km/h (1 Bft) NW 311 0 min 0,000 mm 2,1 UV-I 127 W/m 16,2 C 6,4 km/h (2 Bft)
15.08.2016 16:41 23,1 C 23,1 C 66 % 1017,3 hPa 0,0 mm 4,1 km/h (1 Bft) W-NW 301 0 min 0,000 mm 2,2 UV-I 141 W/m 16,4 C 4,8 km/h (1 Bft)
15.08.2016 16:42 23,0 C 23,1 C 67 % 1017,3 hPa 0,0 mm 3,5 km/h (1 Bft) NW 321 0 min 0,000 mm 2,1 UV-I 135 W/m 16,5 C 4,8 km/h (1 Bft)
15.08.2016 16:43 23,0 C 23,0 C 66 % 1017,4 hPa 0,0 mm 8,6 km/h (2 Bft) O-NO 57 0 min 0,000 mm 2,1 UV-I 139 W/m 16,3 C 12,9 km/h (3 Bft)
15.08.2016 16:44 23,0 C 23,0 C 65 % 1017,4 hPa 0,0 mm 5,7 km/h (1 Bft) NO 36 0 min 0,000 mm 2,2 UV-I 151 W/m 16,1 C 6,4 km/h (2 Bft)
15.08.2016 16:45 23,0 C 23,1 C 65 % 1017,4 hPa 0,0 mm 4,8 km/h (1 Bft) N 350 0 min 0,000 mm 2,2 UV-I 156 W/m 16,1 C 6,4 km/h (2 Bft)
15.08.2016 16:46 23,1 C 23,1 C 66 % 1017,4 hPa 0,0 mm 6,7 km/h (2 Bft) NO 39 0 min 0,000 mm 2,4 UV-I 192 W/m 16,4 C 9,7 km/h (2 Bft)
15.08.2016 16:47 23,1 C 23,1 C 66 % 1017,4 hPa 0,0 mm 6,1 km/h (2 Bft) N 355 0 min 0,000 mm 2,3 UV-I 176 W/m 16,4 C 8,0 km/h (2 Bft)
15.08.2016 16:48 23,1 C 23,1 C 65 % 1017,3 hPa 0,0 mm 6,3 km/h (2 Bft) N 355 0 min 0,000 mm 2,3 UV-I 153 W/m 16,2 C 9,7 km/h (2 Bft)
15.08.2016 16:49 23,1 C 23,1 C 64 % 1017,3 hPa 0,0 mm 3,8 km/h (1 Bft) O-NO 68 0 min 0,000 mm 2,1 UV-I 141 W/m 15,9 C 8,0 km/h (2 Bft)
15.08.2016 16:50 23,2 C 23,2 C 66 % 1017,3 hPa 0,0 mm 3,9 km/h (1 Bft) N-NO 21 0 min 0,000 mm 2,0 UV-I 132 W/m 16,5 C 8,0 km/h (2 Bft)
15.08.2016 16:51 23,2 C 23,2 C 66 % 1017,4 hPa 0,0 mm 6,3 km/h (2 Bft) NO 36 0 min 0,000 mm 2,0 UV-I 128 W/m 16,5 C 8,0 km/h (2 Bft)
15.08.2016 16:52 23,2 C 23,2 C 65 % 1017,4 hPa 0,0 mm 4,0 km/h (1 Bft) NO 44 0 min 0,000 mm 2,0 UV-I 127 W/m 16,2 C 6,4 km/h (2 Bft)
15.08.2016 16:53 23,2 C 23,2 C 67 % 1017,4 hPa 0,0 mm 3,7 km/h (1 Bft) O-NO 65 0 min 0,000 mm 2,0 UV-I 128 W/m 16,7 C 4,8 km/h (1 Bft)
15.08.2016 16:54 23,2 C 23,2 C 65 % 1017,4 hPa 0,0 mm 9,7 km/h (2 Bft) N 360 0 min 0,000 mm 2,0 UV-I 137 W/m 16,2 C 14,5 km/h (3 Bft)
15.08.2016 16:55 23,1 C 23,2 C 66 % 1017,4 hPa 0,0 mm 9,4 km/h (2 Bft) N 5 0 min 0,000 mm 2,0 UV-I 137 W/m 16,4 C 12,9 km/h (3 Bft)
15.08.2016 16:56 23,2 C 23,2 C 65 % 1017,3 hPa 0,0 mm 6,7 km/h (2 Bft) N 360 0 min 0,000 mm 2,1 UV-I 149 W/m 16,2 C 9,7 km/h (2 Bft)
15.08.2016 16:57 23,2 C 23,2 C 65 % 1017,4 hPa 0,0 mm 4,0 km/h (1 Bft) O-NO 78 0 min 0,000 mm 2,1 UV-I 156 W/m 16,2 C 6,4 km/h (2 Bft)
15.08.2016 16:58 23,2 C 23,2 C 65 % 1017,4 hPa 0,0 mm 7,5 km/h (2 Bft) O-NO 61 0 min 0,000 mm 2,1 UV-I 156 W/m 16,2 C 12,9 km/h (3 Bft)
15.08.2016 16:59 23,1 C 23,2 C 66 % 1017,3 hPa 0,0 mm 9,3 km/h (2 Bft) O-NO 70 0 min 0,000 mm 2,0 UV-I 155 W/m 16,4 C 9,7 km/h (2 Bft)
15.08.2016 17:00 23,0 C 23,1 C 64 % 1017,4 hPa 0,0 mm 6,6 km/h (2 Bft) O-NO 58 0 min 0,000 mm 2,0 UV-I 146 W/m 15,8 C 12,9 km/h (3 Bft)
15.08.2016 17:01 23,0 C 23,0 C 66 % 1017,4 hPa 0,0 mm 4,5 km/h (1 Bft) NO 52 0 min 0,000 mm 2,0 UV-I 141 W/m 16,3 C 6,4 km/h (2 Bft)
15.08.2016 17:03 23,0 C 23,0 C 65 % 1017,4 hPa 0,0 mm 11,3 km/h (2 Bft) N-NO 15 0 min 0,000 mm 1,9 UV-I 134 W/m 16,1 C 12,9 km/h (3 Bft)
15.08.2016 17:04 23,0 C 23,0 C 65 % 1017,4 hPa 0,0 mm 7,4 km/h (2 Bft) O-NO 72 0 min 0,000 mm 1,9 UV-I 130 W/m 16,1 C 12,9 km/h (3 Bft)
15.08.2016 17:05 23,0 C 23,0 C 65 % 1017,3 hPa 0,0 mm 5,6 km/h (1 Bft) O 96 0 min 0,000 mm 1,9 UV-I 128 W/m 16,1 C 6,4 km/h (2 Bft)
15.08.2016 17:06 23,0 C 23,0 C 65 % 1017,3 hPa 0,0 mm 4,1 km/h (1 Bft) O-NO 61 0 min 0,000 mm 1,9 UV-I 125 W/m 16,1 C 4,8 km/h (1 Bft)
15.08.2016 17:07 22,9 C 23,0 C 65 % 1017,3 hPa 0,0 mm 5,4 km/h (1 Bft) NO 51 0 min 0,000 mm 1,9 UV-I 123 W/m 16,0 C 8,0 km/h (2 Bft)
15.08.2016 17:08 22,9 C 22,9 C 64 % 1017,3 hPa 0,0 mm 5,2 km/h (1 Bft) NO 49 0 min 0,000 mm 1,8 UV-I 125 W/m 15,7 C 9,7 km/h (2 Bft)
15.08.2016 17:09 22,9 C 22,9 C 65 % 1017,3 hPa 0,0 mm 6,7 km/h (2 Bft) NO 51 0 min 0,000 mm 1,8 UV-I 121 W/m 16,0 C 12,9 km/h (3 Bft)
15.08.2016 17:10 22,9 C 22,9 C 66 % 1017,3 hPa 0,0 mm 3,8 km/h (1 Bft) NW 315 0 min 0,000 mm 1,8 UV-I 114 W/m 16,2 C 6,4 km/h (2 Bft)
15.08.2016 17:11 22,8 C 22,9 C 65 % 1017,4 hPa 0,0 mm 5,1 km/h (1 Bft) N-NW 328 0 min 0,000 mm 1,7 UV-I 121 W/m 15,9 C 8,0 km/h (2 Bft)
15.08.2016 17:12 22,8 C 22,8 C 66 % 1017,2 hPa 0,0 mm 4,5 km/h (1 Bft) N 5 0 min 0,000 mm 1,7 UV-I 113 W/m 16,1 C 8,0 km/h (2 Bft)
15.08.2016 17:13 22,8 C 22,8 C 65 % 1017,3 hPa 0,0 mm 5,2 km/h (1 Bft) N 11 0 min 0,000 mm 1,6 UV-I 111 W/m 15,9 C 8,0 km/h (2 Bft)
15.08.2016 17:14 22,9 C 22,9 C 66 % 1017,2 hPa 0,0 mm 4,5 km/h (1 Bft) N 5 0 min 0,000 mm 1,6 UV-I 109 W/m 16,2 C 6,4 km/h (2 Bft)
15.08.2016 17:15 22,9 C 22,9 C 67 % 1017,3 hPa 0,0 mm 4,8 km/h (1 Bft) N-NO 12 0 min 0,000 mm 1,6 UV-I 113 W/m 16,4 C 6,4 km/h (2 Bft)
15.08.2016 17:16 23,0 C 23,0 C 66 % 1017,3 hPa 0,0 mm 2,9 km/h (1 Bft) N 10 0 min 0,000 mm 1,6 UV-I 116 W/m 16,3 C 3,2 km/h (1 Bft)
15.08.2016 17:17 22,9 C 23,0 C 66 % 1017,3 hPa 0,0 mm 2,6 km/h (1 Bft) N 10 0 min 0,000 mm 1,6 UV-I 121 W/m 16,2 C 4,8 km/h (1 Bft)
15.08.2016 17:18 22,9 C 22,9 C 68 % 1017,3 hPa 0,0 mm 6,9 km/h (2 Bft) N-NW 345 0 min 0,000 mm 1,6 UV-I 120 W/m 16,7 C 9,7 km/h (2 Bft)
15.08.2016 17:19 22,9 C 22,9 C 66 % 1017,3 hPa 0,0 mm 4,2 km/h (1 Bft) N-NO 15 0 min 0,000 mm 1,6 UV-I 123 W/m 16,2 C 6,4 km/h (2 Bft)
15.08.2016 17:20 22,8 C 22,9 C 66 % 1017,2 hPa 0,0 mm 2,9 km/h (1 Bft) N 360 0 min 0,000 mm 1,6 UV-I 120 W/m 16,1 C 6,4 km/h (2 Bft)
15.08.2016 17:21 22,8 C 22,8 C 65 % 1017,2 hPa 0,0 mm 5,5 km/h (1 Bft) N-NO 32 0 min 0,000 mm 1,6 UV-I 120 W/m 15,9 C 8,0 km/h (2 Bft)
15.08.2016 17:22 22,8 C 22,8 C 66 % 1017,2 hPa 0,0 mm 5,6 km/h (1 Bft) N 350 0 min 0,000 mm 1,6 UV-I 125 W/m 16,1 C 8,0 km/h (2 Bft)
15.08.2016 17:23 22,8 C 22,8 C 65 % 1017,2 hPa 0,0 mm 6,8 km/h (2 Bft) N 5 0 min 0,000 mm 1,6 UV-I 121 W/m 15,9 C 8,0 km/h (2 Bft)
15.08.2016 17:24 22,8 C 22,8 C 65 % 1017,2 hPa 0,0 mm 3,9 km/h (1 Bft) N 10 0 min 0,000 mm 1,6 UV-I 120 W/m 15,9 C 8,0 km/h (2 Bft)
15.08.2016 17:25 22,7 C 22,8 C 66 % 1017,2 hPa 0,0 mm 4,2 km/h (1 Bft) NO 36 0 min 0,000 mm 1,6 UV-I 118 W/m 16,0 C 6,4 km/h (2 Bft)
15.08.2016 17:26 22,7 C 22,7 C 66 % 1017,2 hPa 0,0 mm 5,3 km/h (1 Bft) N 355 0 min 0,000 mm 1,6 UV-I 118 W/m 16,0 C 8,0 km/h (2 Bft)
15.08.2016 17:27 22,7 C 22,7 C 65 % 1017,2 hPa 0,0 mm 3,1 km/h (1 Bft) NO 38 0 min 0,000 mm 1,5 UV-I 116 W/m 15,8 C 4,8 km/h (1 Bft)
15.08.2016 17:28 22,7 C 22,7 C 65 % 1017,2 hPa 0,0 mm 3,5 km/h (1 Bft) NO 56 0 min 0,000 mm 1,5 UV-I 116 W/m 15,8 C 4,8 km/h (1 Bft)
15.08.2016 17:29 22,6 C 22,7 C 65 % 1017,2 hPa 0,0 mm 5,1 km/h (1 Bft) N-NW 344 0 min 0,000 mm 1,5 UV-I 116 W/m 15,7 C 6,4 km/h (2 Bft)
15.08.2016 17:30 22,6 C 22,6 C 65 % 1017,2 hPa 0,0 mm 6,3 km/h (2 Bft) N-NW 339 0 min 0,000 mm 1,5 UV-I 116 W/m 15,7 C 8,0 km/h (2 Bft)
15.08.2016 17:31 22,6 C 22,6 C 66 % 1017,1 hPa 0,0 mm 6,0 km/h (2 Bft) O-NO 57 0 min 0,000 mm 1,5 UV-I 116 W/m 15,9 C 9,7 km/h (2 Bft)
15.08.2016 17:32 22,6 C 22,6 C 66 % 1017,2 hPa 0,0 mm 7,4 km/h (2 Bft) NO 53 0 min 0,000 mm 1,5 UV-I 116 W/m 15,9 C 9,7 km/h (2 Bft)
15.08.2016 17:33 22,6 C 22,6 C 66 % 1017,2 hPa 0,0 mm 6,6 km/h (2 Bft) O 84 0 min 0,000 mm 1,5 UV-I 116 W/m 15,9 C 9,7 km/h (2 Bft)
15.08.2016 17:34 22,5 C 22,6 C 67 % 1017,2 hPa 0,0 mm 7,8 km/h (2 Bft) O-NO 58 0 min 0,000 mm 1,5 UV-I 116 W/m 16,1 C 11,3 km/h (2 Bft)
15.08.2016 17:35 22,4 C 22,5 C 66 % 1017,2 hPa 0,0 mm 3,1 km/h (1 Bft) NO 43 0 min 0,000 mm 1,4 UV-I 114 W/m 15,7 C 4,8 km/h (1 Bft)
15.08.2016 17:36 22,4 C 22,4 C 68 % 1017,2 hPa 0,0 mm 4,8 km/h (1 Bft) O 88 0 min 0,000 mm 1,4 UV-I 114 W/m 16,2 C 6,4 km/h (2 Bft)
15.08.2016 17:37 22,3 C 22,4 C 66 % 1017,2 hPa 0,0 mm 4,2 km/h (1 Bft) O-NO 71 0 min 0,000 mm 1,4 UV-I 113 W/m 15,6 C 9,7 km/h (2 Bft)
15.08.2016 17:38 22,3 C 22,3 C 67 % 1017,3 hPa 0,0 mm 3,7 km/h (1 Bft) NO 51 0 min 0,000 mm 1,4 UV-I 111 W/m 15,9 C 6,4 km/h (2 Bft)
15.08.2016 17:39 22,3 C 22,3 C 67 % 1017,2 hPa 0,0 mm 6,0 km/h (2 Bft) NO 45 0 min 0,000 mm 1,4 UV-I 109 W/m 15,9 C 9,7 km/h (2 Bft)
15.08.2016 17:40 22,3 C 22,3 C 67 % 1017,3 hPa 0,0 mm 9,5 km/h (2 Bft) O-NO 61 0 min 0,000 mm 1,3 UV-I 109 W/m 15,9 C 16,1 km/h (3 Bft)
15.08.2016 17:41 22,3 C 22,3 C 67 % 1017,3 hPa 0,0 mm 7,1 km/h (2 Bft) O 83 0 min 0,000 mm 1,3 UV-I 111 W/m 15,9 C 9,7 km/h (2 Bft)
15.08.2016 17:42 22,2 C 22,3 C 68 % 1017,3 hPa 0,0 mm 7,6 km/h (2 Bft) NO 51 0 min 0,000 mm 1,3 UV-I 109 W/m 16,0 C 11,3 km/h (2 Bft)
15.08.2016 17:43 22,2 C 22,2 C 68 % 1017,3 hPa 0,0 mm 4,9 km/h (1 Bft) N 355 0 min 0,000 mm 1,3 UV-I 107 W/m 16,0 C 9,7 km/h (2 Bft)
15.08.2016 17:44 22,2 C 22,2 C 68 % 1017,3 hPa 0,0 mm 6,4 km/h (2 Bft) N-NW 346 0 min 0,000 mm 1,3 UV-I 107 W/m 16,0 C 8,0 km/h (2 Bft)
15.08.2016 17:45 22,2 C 22,2 C 69 % 1017,3 hPa 0,0 mm 4,4 km/h (1 Bft) NO 53 0 min 0,000 mm 1,3 UV-I 107 W/m 16,2 C 8,0 km/h (2 Bft)
15.08.2016 17:46 22,2 C 22,2 C 68 % 1017,3 hPa 0,0 mm 4,8 km/h (1 Bft) NO 50 0 min 0,000 mm 1,3 UV-I 113 W/m 16,0 C 6,4 km/h (2 Bft)
15.08.2016 17:47 22,2 C 22,2 C 69 % 1017,4 hPa 0,0 mm 3,0 km/h (1 Bft) NO 53 0 min 0,000 mm 1,3 UV-I 113 W/m 16,2 C 3,2 km/h (1 Bft)
15.08.2016 17:48 22,2 C 22,2 C 68 % 1017,4 hPa 0,0 mm 1,4 km/h (1 Bft) NO 53 0 min 0,000 mm 1,3 UV-I 121 W/m 16,0 C 1,6 km/h (1 Bft)
15.08.2016 17:49 22,2 C 22,2 C 69 % 1017,4 hPa 0,0 mm 2,1 km/h (1 Bft) NO 49 0 min 0,000 mm 1,3 UV-I 130 W/m 16,2 C 3,2 km/h (1 Bft)
15.08.2016 17:50 22,2 C 22,2 C 68 % 1017,4 hPa 0,0 mm 4,4 km/h (1 Bft) O-NO 62 0 min 0,000 mm 1,3 UV-I 142 W/m 16,0 C 6,4 km/h (2 Bft)
15.08.2016 17:51 22,2 C 22,2 C 68 % 1017,4 hPa 0,0 mm 7,7 km/h (2 Bft) N 360 0 min 0,000 mm 1,3 UV-I 153 W/m 16,0 C 11,3 km/h (2 Bft)
15.08.2016 17:52 22,3 C 22,3 C 68 % 1017,4 hPa 0,0 mm 6,3 km/h (2 Bft) O-NO 76 0 min 0,000 mm 1,3 UV-I 160 W/m 16,1 C 8,0 km/h (2 Bft)
15.08.2016 17:53 22,3 C 22,3 C 68 % 1017,4 hPa 0,0 mm 5,2 km/h (1 Bft) O-NO 72 0 min 0,000 mm 1,3 UV-I 167 W/m 16,1 C 9,7 km/h (2 Bft)
15.08.2016 17:54 22,4 C 22,4 C 69 % 1017,4 hPa 0,0 mm 4,5 km/h (1 Bft) NO 53 0 min 0,000 mm 1,3 UV-I 169 W/m 16,4 C 4,8 km/h (1 Bft)
15.08.2016 17:55 22,4 C 22,4 C 69 % 1017,4 hPa 0,0 mm 4,8 km/h (1 Bft) N-NW 344 0 min 0,000 mm 1,3 UV-I 176 W/m 16,4 C 8,0 km/h (2 Bft)
15.08.2016 17:56 22,4 C 22,4 C 69 % 1017,4 hPa 0,0 mm 4,5 km/h (1 Bft) N-NO 28 0 min 0,000 mm 1,3 UV-I 169 W/m 16,4 C 8,0 km/h (2 Bft)
15.08.2016 17:57 22,4 C 22,4 C 69 % 1017,3 hPa 0,0 mm 3,2 km/h (1 Bft) N 11 0 min 0,000 mm 1,3 UV-I 141 W/m 16,4 C 3,2 km/h (1 Bft)
15.08.2016 17:58 22,4 C 22,4 C 69 % 1017,3 hPa 0,0 mm 4,0 km/h (1 Bft) O-NO 72 0 min 0,000 mm 1,2 UV-I 120 W/m 16,4 C 4,8 km/h (1 Bft)
15.08.2016 17:59 22,4 C 22,4 C 69 % 1017,3 hPa 0,0 mm 4,0 km/h (1 Bft) O-NO 77 0 min 0,000 mm 1,2 UV-I 111 W/m 16,4 C 6,4 km/h (2 Bft)
15.08.2016 18:00 22,5 C 22,6 C 70 % 1017,3 hPa 0,0 mm 3,2 km/h (1 Bft) NO 40 0 min 0,000 mm 1,2 UV-I 98 W/m 16,7 C 3,2 km/h (1 Bft)
15.08.2016 18:01 22,5 C 22,6 C 70 % 1017,3 hPa 0,0 mm 4,1 km/h (1 Bft) N-NO 19 0 min 0,000 mm 1,1 UV-I 88 W/m 16,7 C 4,8 km/h (1 Bft)
15.08.2016 18:03 22,4 C 22,5 C 68 % 1017,4 hPa 0,0 mm 2,4 km/h (1 Bft) O-NO 64 0 min 0,000 mm 1,1 UV-I 76 W/m 16,2 C 4,8 km/h (1 Bft)
15.08.2016 18:04 22,3 C 22,4 C 68 % 1017,3 hPa 0,0 mm 4,4 km/h (1 Bft) O-NO 63 0 min 0,000 mm 1,1 UV-I 72 W/m 16,1 C 8,0 km/h (2 Bft)
15.08.2016 18:05 22,3 C 22,3 C 69 % 1017,3 hPa 0,0 mm 2,0 km/h (1 Bft) O-NO 63 0 min 0,000 mm 1,0 UV-I 72 W/m 16,3 C 4,8 km/h (1 Bft)
15.08.2016 18:06 22,2 C 22,3 C 70 % 1017,4 hPa 0,0 mm 5,0 km/h (1 Bft) O-NO 57 0 min 0,000 mm 1,0 UV-I 70 W/m 16,5 C 6,4 km/h (2 Bft)
15.08.2016 18:07 22,1 C 22,2 C 70 % 1017,3 hPa 0,0 mm 2,9 km/h (1 Bft) O-NO 61 0 min 0,000 mm 1,1 UV-I 72 W/m 16,4 C 4,8 km/h (1 Bft)
15.08.2016 18:08 22,1 C 22,1 C 70 % 1017,4 hPa 0,0 mm 4,0 km/h (1 Bft) O-NO 60 0 min 0,000 mm 1,1 UV-I 76 W/m 16,4 C 4,8 km/h (1 Bft)
15.08.2016 18:09 22,0 C 22,1 C 70 % 1017,3 hPa 0,0 mm 0,9 km/h (0 Bft) O-NO 60 0 min 0,000 mm 1,1 UV-I 79 W/m 16,3 C 1,6 km/h (1 Bft)
15.08.2016 18:10 22,1 C 22,1 C 70 % 1017,3 hPa 0,0 mm 5,2 km/h (1 Bft) O-NO 70 0 min 0,000 mm 1,1 UV-I 83 W/m 16,4 C 6,4 km/h (2 Bft)
15.08.2016 18:11 22,1 C 22,1 C 70 % 1017,3 hPa 0,0 mm 4,7 km/h (1 Bft) O-NO 57 0 min 0,000 mm 1,1 UV-I 84 W/m 16,4 C 6,4 km/h (2 Bft)
15.08.2016 18:12 22,1 C 22,1 C 71 % 1017,3 hPa 0,0 mm 2,8 km/h (1 Bft) NO 55 0 min 0,000 mm 1,1 UV-I 86 W/m 16,6 C 4,8 km/h (1 Bft)
15.08.2016 18:13 22,1 C 22,1 C 69 % 1017,3 hPa 0,0 mm 3,1 km/h (1 Bft) O-NO 61 0 min 0,000 mm 1,1 UV-I 86 W/m 16,1 C 4,8 km/h (1 Bft)
15.08.2016 18:14 22,1 C 22,1 C 69 % 1017,3 hPa 0,0 mm 4,5 km/h (1 Bft) O-NO 58 0 min 0,000 mm 1,1 UV-I 84 W/m 16,1 C 8,0 km/h (2 Bft)
15.08.2016 18:15 22,1 C 22,1 C 70 % 1017,3 hPa 0,0 mm 5,4 km/h (1 Bft) O-NO 65 0 min 0,000 mm 1,1 UV-I 84 W/m 16,4 C 8,0 km/h (2 Bft)
15.08.2016 18:16 22,1 C 22,2 C 72 % 1017,3 hPa 0,0 mm 4,1 km/h (1 Bft) NO 38 0 min 0,000 mm 1,1 UV-I 83 W/m 16,8 C 4,8 km/h (1 Bft)
15.08.2016 18:17 22,1 C 22,2 C 71 % 1017,2 hPa 0,0 mm 4,5 km/h (1 Bft) N 5 0 min 0,000 mm 1,1 UV-I 79 W/m 16,6 C 6,4 km/h (2 Bft)
15.08.2016 18:18 22,2 C 22,2 C 70 % 1017,3 hPa 0,0 mm 3,4 km/h (1 Bft) NO 52 0 min 0,000 mm 1,0 UV-I 74 W/m 16,5 C 4,8 km/h (1 Bft)
15.08.2016 18:19 22,2 C 22,2 C 71 % 1017,2 hPa 0,0 mm 4,2 km/h (1 Bft) NO 55 0 min 0,000 mm 1,0 UV-I 72 W/m 16,7 C 6,4 km/h (2 Bft)
15.08.2016 18:20 22,2 C 22,2 C 72 % 1017,2 hPa 0,0 mm 4,4 km/h (1 Bft) O-NO 61 0 min 0,000 mm 1,0 UV-I 70 W/m 16,9 C 6,4 km/h (2 Bft)
15.08.2016 18:21 22,1 C 22,2 C 70 % 1017,2 hPa 0,0 mm 4,7 km/h (1 Bft) O-NO 65 0 min 0,000 mm 1,0 UV-I 63 W/m 16,4 C 9,7 km/h (2 Bft)
15.08.2016 18:22 22,2 C 22,2 C 70 % 1017,2 hPa 0,0 mm 6,2 km/h (2 Bft) NO 38 0 min 0,000 mm 1,0 UV-I 54 W/m 16,5 C 11,3 km/h (2 Bft)
15.08.2016 18:23 22,1 C 22,2 C 69 % 1017,2 hPa 0,0 mm 5,3 km/h (1 Bft) N 360 0 min 0,000 mm 0,0 UV-I 54 W/m 16,1 C 8,0 km/h (2 Bft)
15.08.2016 18:24 22,1 C 22,2 C 69 % 1017,1 hPa 0,0 mm 3,0 km/h (1 Bft) NO 35 0 min 0,000 mm 0,9 UV-I 56 W/m 16,1 C 4,8 km/h (1 Bft)
15.08.2016 18:25 22,2 C 22,2 C 71 % 1017,1 hPa 0,0 mm 3,7 km/h (1 Bft) NO 46 0 min 0,000 mm 0,9 UV-I 58 W/m 16,7 C 4,8 km/h (1 Bft)
15.08.2016 18:26 22,2 C 22,2 C 69 % 1017,1 hPa 0,0 mm 5,5 km/h (1 Bft) N-NO 27 0 min 0,000 mm 0,9 UV-I 60 W/m 16,2 C 6,4 km/h (2 Bft)
15.08.2016 18:27 22,2 C 22,2 C 70 % 1017,1 hPa 0,0 mm 3,6 km/h (1 Bft) O-NO 65 0 min 0,000 mm 0,9 UV-I 58 W/m 16,5 C 4,8 km/h (1 Bft)
15.08.2016 18:28 22,2 C 22,3 C 71 % 1017,1 hPa 0,0 mm 3,2 km/h (1 Bft) NO 49 0 min 0,000 mm 0,9 UV-I 58 W/m 16,7 C 4,8 km/h (1 Bft)
15.08.2016 18:29 22,2 C 22,3 C 70 % 1017,1 hPa 0,0 mm 3,7 km/h (1 Bft) O 80 0 min 0,000 mm 0,9 UV-I 56 W/m 16,5 C 4,8 km/h (1 Bft)
15.08.2016 18:30 22,2 C 22,2 C 71 % 1017,2 hPa 0,0 mm 1,9 km/h (1 Bft) O 80 0 min 0,000 mm 0,9 UV-I 58 W/m 16,7 C 4,8 km/h (1 Bft)
15.08.2016 18:31 22,1 C 22,2 C 71 % 1017,2 hPa 0,0 mm 2,3 km/h (1 Bft) NO 39 0 min 0,000 mm 0,9 UV-I 58 W/m 16,6 C 4,8 km/h (1 Bft)
15.08.2016 18:32 22,1 C 22,1 C 71 % 1017,2 hPa 0,0 mm 2,1 km/h (1 Bft) NO 49 0 min 0,000 mm 0,9 UV-I 58 W/m 16,6 C 4,8 km/h (1 Bft)
15.08.2016 18:33 22,0 C 22,1 C 72 % 1017,2 hPa 0,0 mm 3,3 km/h (1 Bft) NO 48 0 min 0,000 mm 0,9 UV-I 54 W/m 16,7 C 4,8 km/h (1 Bft)
15.08.2016 18:34 21,9 C 22,0 C 74 % 1017,2 hPa 0,0 mm 3,8 km/h (1 Bft) N-NO 32 0 min 0,000 mm 0,0 UV-I 53 W/m 17,0 C 4,8 km/h (1 Bft)
15.08.2016 18:35 22,0 C 22,0 C 71 % 1017,1 hPa 0,0 mm 4,8 km/h (1 Bft) N-NO 24 0 min 0,000 mm 0,0 UV-I 53 W/m 16,5 C 8,0 km/h (2 Bft)
15.08.2016 18:36 22,1 C 22,1 C 71 % 1017,1 hPa 0,0 mm 2,7 km/h (1 Bft) NO 35 0 min 0,000 mm 0,0 UV-I 53 W/m 16,6 C 4,8 km/h (1 Bft)
15.08.2016 18:37 22,1 C 22,1 C 72 % 1017,1 hPa 0,0 mm 3,2 km/h (1 Bft) N-NW 345 0 min 0,000 mm 0,0 UV-I 53 W/m 16,8 C 4,8 km/h (1 Bft)
15.08.2016 18:38 22,1 C 22,1 C 71 % 1017,1 hPa 0,0 mm 4,1 km/h (1 Bft) N-NO 27 0 min 0,000 mm 0,0 UV-I 51 W/m 16,6 C 6,4 km/h (2 Bft)
15.08.2016 18:39 22,1 C 22,1 C 71 % 1017,1 hPa 0,0 mm 4,1 km/h (1 Bft) N-NO 16 0 min 0,000 mm 0,0 UV-I 49 W/m 16,6 C 6,4 km/h (2 Bft)
15.08.2016 18:40 22,1 C 22,1 C 70 % 1017,1 hPa 0,0 mm 1,7 km/h (1 Bft) N-NO 29 0 min 0,000 mm 0,0 UV-I 51 W/m 16,4 C 3,2 km/h (1 Bft)
15.08.2016 18:41 22,2 C 22,2 C 70 % 1017,1 hPa 0,0 mm 1,2 km/h (1 Bft) N-NO 29 0 min 0,000 mm 0,8 UV-I 56 W/m 16,5 C 3,2 km/h (1 Bft)
15.08.2016 18:42 22,2 C 22,2 C 71 % 1017,1 hPa 0,0 mm 1,0 km/h (0 Bft) N-NO 30 0 min 0,000 mm 0,8 UV-I 86 W/m 16,7 C 3,2 km/h (1 Bft)
15.08.2016 18:43 22,2 C 22,2 C 71 % 1017,1 hPa 0,0 mm 4,3 km/h (1 Bft) O-NO 57 0 min 0,000 mm 0,8 UV-I 79 W/m 16,7 C 6,4 km/h (2 Bft)
15.08.2016 18:44 22,1 C 22,2 C 69 % 1017,2 hPa 0,0 mm 4,9 km/h (1 Bft) N-NO 27 0 min 0,000 mm 0,8 UV-I 58 W/m 16,1 C 6,4 km/h (2 Bft)
15.08.2016 18:45 22,1 C 22,1 C 70 % 1017,2 hPa 0,0 mm 3,4 km/h (1 Bft) O-SO 111 0 min 0,000 mm 0,0 UV-I 47 W/m 16,4 C 6,4 km/h (2 Bft)
15.08.2016 18:46 22,1 C 22,1 C 69 % 1017,2 hPa 0,0 mm 1,6 km/h (1 Bft) NO 55 0 min 0,000 mm 0,0 UV-I 47 W/m 16,1 C 6,4 km/h (2 Bft)
15.08.2016 18:47 22,0 C 22,1 C 71 % 1017,1 hPa 0,0 mm 2,3 km/h (1 Bft) NO 55 0 min 0,000 mm 0,0 UV-I 47 W/m 16,5 C 3,2 km/h (1 Bft)
15.08.2016 18:48 21,9 C 22,0 C 71 % 1017,1 hPa 0,0 mm 3,0 km/h (1 Bft) O-NO 57 0 min 0,000 mm 0,0 UV-I 47 W/m 16,4 C 4,8 km/h (1 Bft)
15.08.2016 18:49 21,9 C 21,9 C 72 % 1017,1 hPa 0,0 mm 3,9 km/h (1 Bft) NO 53 0 min 0,000 mm 0,0 UV-I 51 W/m 16,6 C 6,4 km/h (2 Bft)
15.08.2016 18:50 21,8 C 21,9 C 72 % 1017,1 hPa 0,0 mm 1,9 km/h (1 Bft) O 87 0 min 0,000 mm 0,7 UV-I 65 W/m 16,5 C 3,2 km/h (1 Bft)
15.08.2016 18:51 21,8 C 21,8 C 72 % 1017,1 hPa 0,0 mm 1,9 km/h (1 Bft) NO 49 0 min 0,000 mm 0,7 UV-I 84 W/m 16,5 C 3,2 km/h (1 Bft)
15.08.2016 18:52 21,8 C 21,8 C 72 % 1017,1 hPa 0,0 mm 4,4 km/h (1 Bft) N-NO 22 0 min 0,000 mm 0,6 UV-I 65 W/m 16,5 C 6,4 km/h (2 Bft)
15.08.2016 18:53 21,8 C 21,8 C 71 % 1017,1 hPa 0,0 mm 2,2 km/h (1 Bft) N-NO 24 0 min 0,000 mm 0,6 UV-I 56 W/m 16,3 C 3,2 km/h (1 Bft)
15.08.2016 18:54 21,8 C 21,9 C 71 % 1017,1 hPa 0,0 mm 1,4 km/h (1 Bft) N-NO 24 0 min 0,000 mm 0,0 UV-I 49 W/m 16,3 C 3,2 km/h (1 Bft)
15.08.2016 18:55 21,8 C 21,8 C 73 % 1017,1 hPa 0,0 mm 0,0 km/h (0 Bft) N-NO 24 0 min 0,000 mm 0,0 UV-I 49 W/m 16,7 C 0,0 km/h (0 Bft)
15.08.2016 18:56 21,7 C 21,8 C 71 % 1017,1 hPa 0,0 mm 2,0 km/h (1 Bft) N-NO 25 0 min 0,000 mm 0,0 UV-I 49 W/m 16,2 C 3,2 km/h (1 Bft)
15.08.2016 18:57 21,7 C 21,7 C 71 % 1017,2 hPa 0,0 mm 1,1 km/h (1 Bft) N-NO 25 0 min 0,000 mm 0,0 UV-I 51 W/m 16,2 C 1,6 km/h (1 Bft)
15.08.2016 18:58 21,7 C 21,7 C 73 % 1017,1 hPa 0,0 mm 0,6 km/h (0 Bft) N-NO 25 0 min 0,000 mm 0,0 UV-I 53 W/m 16,6 C 1,6 km/h (1 Bft)
15.08.2016 18:59 21,6 C 21,7 C 72 % 1017,1 hPa 0,0 mm 1,3 km/h (1 Bft) NO 44 0 min 0,000 mm 0,0 UV-I 49 W/m 16,3 C 3,2 km/h (1 Bft)
15.08.2016 19:00 21,6 C 21,6 C 72 % 1017,1 hPa 0,0 mm 0,3 km/h (0 Bft) NO 44 0 min 0,000 mm 0,0 UV-I 47 W/m 16,3 C 1,6 km/h (1 Bft)
15.08.2016 19:01 21,6 C 21,6 C 74 % 1017,1 hPa 0,0 mm 2,0 km/h (1 Bft) O 81 0 min 0,000 mm 0,0 UV-I 44 W/m 16,8 C 4,8 km/h (1 Bft)
15.08.2016 19:02 21,6 C 21,6 C 72 % 1017,1 hPa 0,0 mm 3,0 km/h (1 Bft) NO 38 0 min 0,000 mm 0,0 UV-I 51 W/m 16,3 C 4,8 km/h (1 Bft)
15.08.2016 19:03 21,6 C 21,6 C 73 % 1017,0 hPa 0,0 mm 1,7 km/h (1 Bft) NO 50 0 min 0,000 mm 0,6 UV-I 67 W/m 16,5 C 3,2 km/h (1 Bft)
15.08.2016 19:04 21,4 C 21,6 C 73 % 1017,0 hPa 0,0 mm 1,5 km/h (1 Bft) NO 50 0 min 0,000 mm 0,0 UV-I 53 W/m 16,4 C 3,2 km/h (1 Bft)
15.08.2016 19:05 21,4 C 21,5 C 72 % 1017,1 hPa 0,0 mm 2,8 km/h (1 Bft) NO 55 0 min 0,000 mm 0,0 UV-I 44 W/m 16,1 C 3,2 km/h (1 Bft)
15.08.2016 19:06 21,4 C 21,4 C 74 % 1017,1 hPa 0,0 mm 1,6 km/h (1 Bft) NO 55 0 min 0,000 mm 0,0 UV-I 44 W/m 16,6 C 3,2 km/h (1 Bft)
15.08.2016 19:07 21,3 C 21,4 C 73 % 1017,0 hPa 0,0 mm 0,6 km/h (0 Bft) NO 55 0 min 0,000 mm 0,0 UV-I 40 W/m 16,3 C 1,6 km/h (1 Bft)
15.08.2016 19:08 21,3 C 21,3 C 72 % 1017,0 hPa 0,0 mm 0,6 km/h (0 Bft) NO 55 0 min 0,000 mm 0,0 UV-I 40 W/m 16,0 C 1,6 km/h (1 Bft)
15.08.2016 19:09 21,3 C 21,3 C 73 % 1017,1 hPa 0,0 mm 0,1 km/h (0 Bft) NO 55 0 min 0,000 mm 0,0 UV-I 40 W/m 16,3 C 1,6 km/h (1 Bft)
15.08.2016 19:10 21,3 C 21,3 C 72 % 1017,1 hPa 0,0 mm 1,1 km/h (1 Bft) NO 55 0 min 0,000 mm 0,0 UV-I 42 W/m 16,0 C 3,2 km/h (1 Bft)
15.08.2016 19:11 21,4 C 21,4 C 72 % 1017,1 hPa 0,0 mm 1,8 km/h (1 Bft) NO 55 0 min 0,000 mm 0,0 UV-I 44 W/m 16,1 C 3,2 km/h (1 Bft)
15.08.2016 19:12 21,4 C 21,4 C 75 % 1017,1 hPa 0,0 mm 1,8 km/h (1 Bft) NO 55 0 min 0,000 mm 0,0 UV-I 44 W/m 16,8 C 3,2 km/h (1 Bft)
15.08.2016 19:13 21,2 C 21,4 C 75 % 1017,0 hPa 0,0 mm 1,2 km/h (1 Bft) NO 55 0 min 0,000 mm 0,0 UV-I 51 W/m 16,6 C 1,6 km/h (1 Bft)
15.08.2016 19:14 21,1 C 21,2 C 74 % 1017,0 hPa 0,0 mm 0,8 km/h (0 Bft) NO 55 0 min 0,000 mm 0,0 UV-I 46 W/m 16,3 C 1,6 km/h (1 Bft)
15.08.2016 19:15 21,1 C 21,2 C 75 % 1017,0 hPa 0,0 mm 2,4 km/h (1 Bft) NO 55 0 min 0,000 mm 0,5 UV-I 58 W/m 16,5 C 3,2 km/h (1 Bft)
15.08.2016 19:16 21,1 C 21,1 C 75 % 1017,0 hPa 0,0 mm 3,0 km/h (1 Bft) NO 51 0 min 0,000 mm 0,5 UV-I 74 W/m 16,5 C 4,8 km/h (1 Bft)
15.08.2016 19:17 21,1 C 21,1 C 74 % 1017,1 hPa 0,0 mm 2,7 km/h (1 Bft) NO 53 0 min 0,000 mm 0,5 UV-I 60 W/m 16,3 C 4,8 km/h (1 Bft)
15.08.2016 19:18 21,1 C 21,1 C 74 % 1017,0 hPa 0,0 mm 1,5 km/h (1 Bft) NO 53 0 min 0,000 mm 0,0 UV-I 53 W/m 16,3 C 3,2 km/h (1 Bft)
15.08.2016 19:19 21,1 C 21,2 C 75 % 1017,0 hPa 0,0 mm 1,0 km/h (0 Bft) NO 53 0 min 0,000 mm 0,5 UV-I 58 W/m 16,5 C 3,2 km/h (1 Bft)
15.08.2016 19:20 21,1 C 21,1 C 77 % 1017,0 hPa 0,0 mm 4,0 km/h (1 Bft) O 96 0 min 0,000 mm 0,0 UV-I 76 W/m 16,9 C 6,4 km/h (2 Bft)
15.08.2016 19:21 21,1 C 21,1 C 75 % 1017,0 hPa 0,0 mm 3,0 km/h (1 Bft) N-NO 33 0 min 0,000 mm 0,0 UV-I 53 W/m 16,5 C 4,8 km/h (1 Bft)
15.08.2016 19:22 21,1 C 21,1 C 74 % 1017,0 hPa 0,0 mm 2,3 km/h (1 Bft) NO 53 0 min 0,000 mm 0,0 UV-I 60 W/m 16,3 C 3,2 km/h (1 Bft)
15.08.2016 19:23 21,2 C 21,2 C 74 % 1017,1 hPa 0,0 mm 2,7 km/h (1 Bft) O-NO 77 0 min 0,000 mm 0,0 UV-I 72 W/m 16,4 C 4,8 km/h (1 Bft)
15.08.2016 19:24 21,2 C 21,2 C 75 % 1017,0 hPa 0,0 mm 0,8 km/h (0 Bft) O-NO 77 0 min 0,000 mm 0,0 UV-I 72 W/m 16,6 C 3,2 km/h (1 Bft)
15.08.2016 19:25 21,2 C 21,3 C 74 % 1017,1 hPa 0,0 mm 3,0 km/h (1 Bft) O-NO 67 0 min 0,000 mm 0,0 UV-I 72 W/m 16,4 C 4,8 km/h (1 Bft)
15.08.2016 19:26 21,3 C 21,3 C 73 % 1017,0 hPa 0,0 mm 1,8 km/h (1 Bft) O 81 0 min 0,000 mm 0,0 UV-I 72 W/m 16,3 C 3,2 km/h (1 Bft)
15.08.2016 19:27 21,3 C 21,3 C 73 % 1017,0 hPa 0,0 mm 1,6 km/h (1 Bft) O 81 0 min 0,000 mm 0,0 UV-I 70 W/m 16,3 C 3,2 km/h (1 Bft)
15.08.2016 19:28 21,3 C 21,3 C 73 % 1017,0 hPa 0,0 mm 1,2 km/h (1 Bft) O 81 0 min 0,000 mm 0,0 UV-I 70 W/m 16,3 C 3,2 km/h (1 Bft)
15.08.2016 19:29 21,3 C 21,3 C 73 % 1017,1 hPa 0,0 mm 2,2 km/h (1 Bft) O 81 0 min 0,000 mm 0,0 UV-I 67 W/m 16,3 C 4,8 km/h (1 Bft)
15.08.2016 19:30 21,3 C 21,3 C 73 % 1017,1 hPa 0,0 mm 3,1 km/h (1 Bft) NO 37 0 min 0,000 mm 0,0 UV-I 65 W/m 16,3 C 4,8 km/h (1 Bft)
15.08.2016 19:31 21,3 C 21,3 C 72 % 1017,0 hPa 0,0 mm 3,0 km/h (1 Bft) O-NO 61 0 min 0,000 mm 0,0 UV-I 65 W/m 16,0 C 4,8 km/h (1 Bft)
15.08.2016 19:32 21,3 C 21,3 C 71 % 1017,0 hPa 0,0 mm 2,5 km/h (1 Bft) NO 51 0 min 0,000 mm 0,0 UV-I 53 W/m 15,8 C 4,8 km/h (1 Bft)
15.08.2016 19:33 21,3 C 21,3 C 71 % 1017,0 hPa 0,0 mm 2,4 km/h (1 Bft) NO 35 0 min 0,000 mm 0,0 UV-I 49 W/m 15,8 C 3,2 km/h (1 Bft)
15.08.2016 19:34 21,4 C 21,4 C 72 % 1017,0 hPa 0,0 mm 4,6 km/h (1 Bft) NO 55 0 min 0,000 mm 0,0 UV-I 46 W/m 16,1 C 9,7 km/h (2 Bft)
15.08.2016 19:35 21,4 C 21,4 C 71 % 1017,0 hPa 0,0 mm 5,2 km/h (1 Bft) O-NO 69 0 min 0,000 mm 0,0 UV-I 42 W/m 15,9 C 8,0 km/h (2 Bft)
15.08.2016 19:36 21,4 C 21,4 C 72 % 1017,1 hPa 0,0 mm 3,6 km/h (1 Bft) NO 49 0 min 0,000 mm 0,0 UV-I 47 W/m 16,1 C 9,7 km/h (2 Bft)
15.08.2016 19:37 21,3 C 21,4 C 73 % 1017,0 hPa 0,0 mm 6,9 km/h (2 Bft) NO 55 0 min 0,000 mm 0,0 UV-I 42 W/m 16,3 C 9,7 km/h (2 Bft)
15.08.2016 19:38 21,3 C 21,3 C 72 % 1017,0 hPa 0,0 mm 4,6 km/h (1 Bft) NO 54 0 min 0,000 mm 0,0 UV-I 42 W/m 16,0 C 6,4 km/h (2 Bft)
15.08.2016 19:39 21,3 C 21,3 C 72 % 1017,0 hPa 0,0 mm 3,8 km/h (1 Bft) O-NO 63 0 min 0,000 mm 0,0 UV-I 46 W/m 16,0 C 6,4 km/h (2 Bft)
15.08.2016 19:40 21,2 C 21,3 C 72 % 1017,0 hPa 0,0 mm 3,4 km/h (1 Bft) O 84 0 min 0,000 mm 0,0 UV-I 47 W/m 15,9 C 6,4 km/h (2 Bft)
15.08.2016 19:41 21,2 C 21,2 C 73 % 1017,0 hPa 0,0 mm 2,6 km/h (1 Bft) O-NO 63 0 min 0,000 mm 0,0 UV-I 47 W/m 16,2 C 3,2 km/h (1 Bft)
15.08.2016 19:42 21,0 C 21,2 C 74 % 1016,9 hPa 0,0 mm 3,0 km/h (1 Bft) O-NO 63 0 min 0,000 mm 0,0 UV-I 46 W/m 16,2 C 4,8 km/h (1 Bft)
15.08.2016 19:43 20,9 C 21,0 C 73 % 1017,0 hPa 0,0 mm 1,5 km/h (1 Bft) O-NO 63 0 min 0,000 mm 0,0 UV-I 44 W/m 15,9 C 3,2 km/h (1 Bft)
15.08.2016 19:44 20,9 C 20,9 C 73 % 1017,0 hPa 0,0 mm 1,4 km/h (1 Bft) O-NO 63 0 min 0,000 mm 0,0 UV-I 42 W/m 15,9 C 3,2 km/h (1 Bft)
15.08.2016 19:45 20,9 C 20,9 C 75 % 1017,0 hPa 0,0 mm 0,5 km/h (0 Bft) O-NO 63 0 min 0,000 mm 0,0 UV-I 37 W/m 16,3 C 1,6 km/h (1 Bft)
15.08.2016 19:46 20,8 C 20,9 C 75 % 1017,0 hPa 0,0 mm 0,6 km/h (0 Bft) O-NO 63 0 min 0,000 mm 0,0 UV-I 35 W/m 16,2 C 1,6 km/h (1 Bft)
15.08.2016 19:47 20,7 C 20,8 C 75 % 1017,0 hPa 0,0 mm 1,9 km/h (1 Bft) O-NO 64 0 min 0,000 mm 0,0 UV-I 35 W/m 16,1 C 3,2 km/h (1 Bft)
15.08.2016 19:48 20,6 C 20,7 C 75 % 1017,0 hPa 0,0 mm 1,0 km/h (0 Bft) O-NO 64 0 min 0,000 mm 0,0 UV-I 35 W/m 16,0 C 1,6 km/h (1 Bft)
15.08.2016 19:49 20,6 C 20,6 C 75 % 1017,0 hPa 0,0 mm 0,8 km/h (0 Bft) O-NO 64 0 min 0,000 mm 0,0 UV-I 37 W/m 16,0 C 1,6 km/h (1 Bft)
15.08.2016 19:50 20,6 C 20,6 C 75 % 1017,0 hPa 0,0 mm 0,4 km/h (0 Bft) O-NO 64 0 min 0,000 mm 0,0 UV-I 37 W/m 16,0 C 1,6 km/h (1 Bft)
15.08.2016 19:51 20,6 C 20,6 C 75 % 1017,0 hPa 0,0 mm 0,1 km/h (0 Bft) O-NO 64 0 min 0,000 mm 0,0 UV-I 39 W/m 16,0 C 1,6 km/h (1 Bft)
15.08.2016 19:52 20,6 C 20,6 C 74 % 1017,1 hPa 0,0 mm 1,8 km/h (1 Bft) O-NO 64 0 min 0,000 mm 0,0 UV-I 39 W/m 15,8 C 3,2 km/h (1 Bft)
15.08.2016 19:53 20,6 C 20,6 C 77 % 1017,0 hPa 0,0 mm 1,7 km/h (1 Bft) O-NO 64 0 min 0,000 mm 0,0 UV-I 39 W/m 16,4 C 3,2 km/h (1 Bft)
15.08.2016 19:54 20,4 C 20,6 C 76 % 1017,0 hPa 0,0 mm 1,5 km/h (1 Bft) O-NO 64 0 min 0,000 mm 0,0 UV-I 37 W/m 16,0 C 3,2 km/h (1 Bft)
15.08.2016 19:55 20,3 C 20,4 C 77 % 1017,1 hPa 0,0 mm 1,5 km/h (1 Bft) O-NO 64 0 min 0,000 mm 0,0 UV-I 35 W/m 16,1 C 3,2 km/h (1 Bft)
15.08.2016 19:56 20,3 C 20,3 C 76 % 1017,0 hPa 0,0 mm 1,3 km/h (1 Bft) O-NO 64 0 min 0,000 mm 0,0 UV-I 33 W/m 15,9 C 3,2 km/h (1 Bft)
15.08.2016 19:57 20,3 C 20,3 C 76 % 1017,1 hPa 0,0 mm 1,0 km/h (0 Bft) O-NO 64 0 min 0,000 mm 0,0 UV-I 32 W/m 15,9 C 1,6 km/h (1 Bft)
15.08.2016 19:58 20,3 C 20,3 C 76 % 1017,0 hPa 0,0 mm 0,1 km/h (0 Bft) O-NO 64 0 min 0,000 mm 0,0 UV-I 32 W/m 15,9 C 1,6 km/h (1 Bft)
15.08.2016 19:59 20,3 C 20,4 C 77 % 1017,0 hPa 0,0 mm 0,9 km/h (0 Bft) O-NO 64 0 min 0,000 mm 0,0 UV-I 30 W/m 16,1 C 1,6 km/h (1 Bft)
15.08.2016 20:00 20,2 C 20,3 C 77 % 1017,1 hPa 0,0 mm 0,7 km/h (0 Bft) O-NO 64 0 min 0,000 mm 0,0 UV-I 28 W/m 16,0 C 1,6 km/h (1 Bft)
15.08.2016 20:01 20,2 C 20,3 C 76 % 1017,0 hPa 0,0 mm 0,6 km/h (0 Bft) O-NO 64 0 min 0,000 mm 0,0 UV-I 26 W/m 15,8 C 1,6 km/h (1 Bft)
15.08.2016 20:02 20,2 C 20,2 C 76 % 1017,1 hPa 0,0 mm 0,6 km/h (0 Bft) O-NO 64 0 min 0,000 mm 0,0 UV-I 26 W/m 15,8 C 1,6 km/h (1 Bft)
15.08.2016 20:03 20,2 C 20,2 C 76 % 1017,1 hPa 0,0 mm 0,3 km/h (0 Bft) O-NO 64 0 min 0,000 mm 0,0 UV-I 25 W/m 15,8 C 1,6 km/h (1 Bft)
15.08.2016 20:04 20,2 C 20,2 C 76 % 1017,1 hPa 0,0 mm 0,7 km/h (0 Bft) O-NO 64 0 min 0,000 mm 0,0 UV-I 21 W/m 15,8 C 1,6 km/h (1 Bft)
15.08.2016 20:05 20,2 C 20,2 C 77 % 1017,2 hPa 0,0 mm 0,5 km/h (0 Bft) O-NO 64 0 min 0,000 mm 0,0 UV-I 19 W/m 16,0 C 1,6 km/h (1 Bft)
15.08.2016 20:06 20,1 C 20,2 C 77 % 1017,1 hPa 0,0 mm 0,0 km/h (0 Bft) O-NO 64 0 min 0,000 mm 0,0 UV-I 18 W/m 15,9 C 0,0 km/h (0 Bft)
15.08.2016 20:07 20,1 C 20,1 C 76 % 1017,2 hPa 0,0 mm 0,0 km/h (0 Bft) O-NO 64 0 min 0,000 mm 0,0 UV-I 14 W/m 15,7 C 0,0 km/h (0 Bft)
15.08.2016 20:08 20,1 C 20,1 C 77 % 1017,2 hPa 0,0 mm 0,1 km/h (0 Bft) O-NO 64 0 min 0,000 mm 0,0 UV-I 12 W/m 15,9 C 1,6 km/h (1 Bft)
15.08.2016 20:09 20,1 C 20,1 C 78 % 1017,2 hPa 0,0 mm 0,1 km/h (0 Bft) O-NO 64 0 min 0,000 mm 0,0 UV-I 12 W/m 16,1 C 1,6 km/h (1 Bft)
15.08.2016 20:10 20,1 C 20,1 C 77 % 1017,2 hPa 0,0 mm 0,2 km/h (0 Bft) O-NO 64 0 min 0,000 mm 0,0 UV-I 12 W/m 15,9 C 1,6 km/h (1 Bft)
15.08.2016 20:11 20,0 C 20,1 C 78 % 1017,2 hPa 0,0 mm 0,0 km/h (0 Bft) O-NO 64 0 min 0,000 mm 0,0 UV-I 11 W/m 16,0 C 0,0 km/h (0 Bft)
15.08.2016 20:12 20,0 C 20,1 C 77 % 1017,3 hPa 0,0 mm 0,0 km/h (0 Bft) O-NO 64 0 min 0,000 mm 0,0 UV-I 11 W/m 15,8 C 0,0 km/h (0 Bft)
15.08.2016 20:13 20,0 C 20,0 C 77 % 1017,3 hPa 0,0 mm 0,3 km/h (0 Bft) O-NO 64 0 min 0,000 mm 0,0 UV-I 11 W/m 15,8 C 1,6 km/h (1 Bft)
15.08.2016 20:14 20,0 C 20,0 C 77 % 1017,3 hPa 0,0 mm 0,1 km/h (0 Bft) O-NO 64 0 min 0,000 mm 0,0 UV-I 11 W/m 15,8 C 1,6 km/h (1 Bft)
15.08.2016 20:15 20,0 C 20,1 C 77 % 1017,3 hPa 0,0 mm 0,2 km/h (0 Bft) O-NO 64 0 min 0,000 mm 0,0 UV-I 11 W/m 15,8 C 1,6 km/h (1 Bft)
15.08.2016 20:16 20,1 C 20,1 C 76 % 1017,3 hPa 0,0 mm 0,0 km/h (0 Bft) O-NO 64 1 min 0,000 mm 0,0 UV-I 11 W/m 15,7 C 0,0 km/h (0 Bft)
15.08.2016 20:17 20,1 C 20,1 C 77 % 1017,3 hPa 0,0 mm 0,0 km/h (0 Bft) O-NO 64 1 min 0,000 mm 0,0 UV-I 11 W/m 15,9 C 0,0 km/h (0 Bft)
15.08.2016 20:18 20,1 C 20,1 C 76 % 1017,4 hPa 0,0 mm 0,1 km/h (0 Bft) O-NO 64 0 min 0,000 mm 0,0 UV-I 9 W/m 15,7 C 1,6 km/h (1 Bft)
15.08.2016 20:19 20,1 C 20,1 C 77 % 1017,4 hPa 0,0 mm 1,3 km/h (1 Bft) O-NO 64 0 min 0,000 mm 0,0 UV-I 9 W/m 15,9 C 1,6 km/h (1 Bft)
15.08.2016 20:20 20,0 C 20,1 C 77 % 1017,4 hPa 0,0 mm 1,1 km/h (1 Bft) O-NO 64 0 min 0,000 mm 0,0 UV-I 9 W/m 15,8 C 1,6 km/h (1 Bft)
15.08.2016 20:21 19,9 C 20,0 C 77 % 1017,4 hPa 0,0 mm 0,5 km/h (0 Bft) O-NO 64 0 min 0,000 mm 0,0 UV-I 7 W/m 15,7 C 1,6 km/h (1 Bft)
15.08.2016 20:22 19,9 C 19,9 C 77 % 1017,4 hPa 0,0 mm 0,5 km/h (0 Bft) O-NO 64 0 min 0,000 mm 0,0 UV-I 7 W/m 15,7 C 1,6 km/h (1 Bft)
15.08.2016 20:23 19,8 C 19,9 C 79 % 1017,4 hPa 0,0 mm 2,0 km/h (1 Bft) O-NO 64 0 min 0,000 mm 0,0 UV-I 7 W/m 16,0 C 3,2 km/h (1 Bft)
15.08.2016 20:24 19,8 C 19,8 C 77 % 1017,4 hPa 0,0 mm 1,3 km/h (1 Bft) O-NO 64 0 min 0,000 mm 0,0 UV-I 7 W/m 15,6 C 1,6 km/h (1 Bft)
15.08.2016 20:25 19,8 C 19,8 C 78 % 1017,4 hPa 0,0 mm 0,3 km/h (0 Bft) O-NO 64 0 min 0,000 mm 0,0 UV-I 5 W/m 15,8 C 1,6 km/h (1 Bft)
15.08.2016 20:26 19,8 C 19,8 C 77 % 1017,4 hPa 0,0 mm 0,9 km/h (0 Bft) O-NO 64 0 min 0,000 mm 0,0 UV-I 5 W/m 15,6 C 1,6 km/h (1 Bft)
15.08.2016 20:27 19,8 C 19,8 C 77 % 1017,4 hPa 0,0 mm 0,8 km/h (0 Bft) O-NO 64 0 min 0,000 mm 0,0 UV-I 5 W/m 15,6 C 1,6 km/h (1 Bft)
15.08.2016 20:28 19,8 C 19,8 C 77 % 1017,4 hPa 0,0 mm 1,0 km/h (0 Bft) O-NO 64 0 min 0,000 mm 0,0 UV-I 5 W/m 15,6 C 1,6 km/h (1 Bft)
15.08.2016 20:29 19,7 C 19,8 C 77 % 1017,5 hPa 0,0 mm 0,0 km/h (0 Bft) O-NO 64 0 min 0,000 mm 0,0 UV-I 5 W/m 15,5 C 0,0 km/h (0 Bft)
15.08.2016 20:30 19,7 C 19,8 C 77 % 1017,4 hPa 0,0 mm 0,0 km/h (0 Bft) O-NO 64 0 min 0,000 mm 0,0 UV-I 0 W/m 15,5 C 0,0 km/h (0 Bft)
15.08.2016 20:31 19,7 C 19,7 C 78 % 1017,4 hPa 0,0 mm 0,5 km/h (0 Bft) O-NO 64 0 min 0,000 mm 0,0 UV-I 0 W/m 15,8 C 1,6 km/h (1 Bft)
15.08.2016 20:32 19,7 C 19,7 C 77 % 1017,5 hPa 0,0 mm 2,0 km/h (1 Bft) O-NO 64 0 min 0,000 mm 0,0 UV-I 0 W/m 15,5 C 3,2 km/h (1 Bft)
15.08.2016 20:33 19,5 C 19,7 C 78 % 1017,5 hPa 0,0 mm 1,4 km/h (1 Bft) O-NO 64 0 min 0,000 mm 0,0 UV-I 0 W/m 15,6 C 3,2 km/h (1 Bft)
15.08.2016 20:34 19,3 C 19,5 C 79 % 1017,4 hPa 0,0 mm 1,1 km/h (1 Bft) O-NO 64 0 min 0,000 mm 0,0 UV-I 0 W/m 15,6 C 1,6 km/h (1 Bft)
15.08.2016 20:35 19,3 C 19,3 C 79 % 1017,5 hPa 0,0 mm 1,5 km/h (1 Bft) O-NO 64 0 min 0,000 mm 0,0 UV-I 0 W/m 15,6 C 1,6 km/h (1 Bft)
15.08.2016 20:36 19,2 C 19,3 C 79 % 1017,3 hPa 0,0 mm 1,3 km/h (1 Bft) O-NO 64 0 min 0,000 mm 0,0 UV-I 0 W/m 15,5 C 1,6 km/h (1 Bft)
15.08.2016 20:37 19,2 C 19,2 C 79 % 1017,4 hPa 0,0 mm 0,9 km/h (0 Bft) O-NO 64 0 min 0,000 mm 0,0 UV-I 0 W/m 15,5 C 1,6 km/h (1 Bft)
15.08.2016 20:38 19,1 C 19,2 C 79 % 1017,4 hPa 0,0 mm 0,1 km/h (0 Bft) O-NO 64 0 min 0,000 mm 0,0 UV-I 0 W/m 15,4 C 1,6 km/h (1 Bft)
15.08.2016 20:39 19,1 C 19,1 C 79 % 1017,5 hPa 0,0 mm 2,1 km/h (1 Bft) O 93 0 min 0,000 mm 0,0 UV-I 0 W/m 15,4 C 3,2 km/h (1 Bft)
15.08.2016 20:40 19,1 C 19,1 C 79 % 1017,5 hPa 0,0 mm 1,3 km/h (1 Bft) O 93 0 min 0,000 mm 0,0 UV-I 0 W/m 15,4 C 1,6 km/h (1 Bft)
15.08.2016 20:41 19,1 C 19,1 C 79 % 1017,5 hPa 0,0 mm 1,3 km/h (1 Bft) O 93 0 min 0,000 mm 0,0 UV-I 0 W/m 15,4 C 3,2 km/h (1 Bft)
15.08.2016 20:42 18,9 C 19,1 C 79 % 1017,5 hPa 0,0 mm 2,2 km/h (1 Bft) O 93 0 min 0,000 mm 0,0 UV-I 0 W/m 15,2 C 3,2 km/h (1 Bft)
15.08.2016 20:43 18,9 C 18,9 C 80 % 1017,5 hPa 0,0 mm 2,2 km/h (1 Bft) O 93 0 min 0,000 mm 0,0 UV-I 0 W/m 15,4 C 3,2 km/h (1 Bft)
15.08.2016 20:44 18,9 C 18,9 C 79 % 1017,5 hPa 0,0 mm 1,4 km/h (1 Bft) O 93 0 min 0,000 mm 0,0 UV-I 0 W/m 15,2 C 3,2 km/h (1 Bft)
15.08.2016 20:45 18,8 C 18,9 C 79 % 1017,5 hPa 0,0 mm 1,4 km/h (1 Bft) O-SO 106 0 min 0,000 mm 0,0 UV-I 0 W/m 15,1 C 3,2 km/h (1 Bft)
15.08.2016 20:46 18,8 C 18,8 C 80 % 1017,5 hPa 0,0 mm 1,9 km/h (1 Bft) O-SO 106 0 min 0,000 mm 0,0 UV-I 0 W/m 15,3 C 3,2 km/h (1 Bft)
15.08.2016 20:47 18,7 C 18,8 C 80 % 1017,6 hPa 0,0 mm 2,1 km/h (1 Bft) O-SO 106 0 min 0,000 mm 0,0 UV-I 0 W/m 15,2 C 3,2 km/h (1 Bft)
15.08.2016 20:48 18,7 C 18,7 C 80 % 1017,5 hPa 0,0 mm 1,2 km/h (1 Bft) O-SO 106 0 min 0,000 mm 0,0 UV-I 0 W/m 15,2 C 3,2 km/h (1 Bft)
15.08.2016 20:49 18,7 C 18,7 C 80 % 1017,5 hPa 0,0 mm 2,2 km/h (1 Bft) SO 138 0 min 0,000 mm 0,0 UV-I 0 W/m 15,2 C 3,2 km/h (1 Bft)
15.08.2016 20:50 18,6 C 18,7 C 80 % 1017,5 hPa 0,0 mm 2,2 km/h (1 Bft) S-SO 154 0 min 0,000 mm 0,0 UV-I 0 W/m 15,1 C 4,8 km/h (1 Bft)
15.08.2016 20:51 18,6 C 18,6 C 80 % 1017,6 hPa 0,0 mm 2,7 km/h (1 Bft) S-SO 154 0 min 0,000 mm 0,0 UV-I 0 W/m 15,1 C 3,2 km/h (1 Bft)
15.08.2016 20:52 18,5 C 18,6 C 81 % 1017,6 hPa 0,0 mm 1,2 km/h (1 Bft) S-SO 154 0 min 0,000 mm 0,0 UV-I 0 W/m 15,2 C 3,2 km/h (1 Bft)
15.08.2016 20:53 18,4 C 18,5 C 81 % 1017,6 hPa 0,0 mm 1,9 km/h (1 Bft) S-SO 153 0 min 0,000 mm 0,0 UV-I 0 W/m 15,1 C 3,2 km/h (1 Bft)
15.08.2016 20:54 18,4 C 18,4 C 81 % 1017,6 hPa 0,0 mm 1,5 km/h (1 Bft) S-SO 154 0 min 0,000 mm 0,0 UV-I 0 W/m 15,1 C 3,2 km/h (1 Bft)
15.08.2016 20:55 18,3 C 18,4 C 81 % 1017,5 hPa 0,0 mm 0,6 km/h (0 Bft) S-SO 154 0 min 0,000 mm 0,0 UV-I 0 W/m 15,0 C 1,6 km/h (1 Bft)
15.08.2016 20:56 18,3 C 18,3 C 81 % 1017,6 hPa 0,0 mm 0,2 km/h (0 Bft) S-SO 154 0 min 0,000 mm 0,0 UV-I 0 W/m 15,0 C 1,6 km/h (1 Bft)
15.08.2016 20:57 18,2 C 18,3 C 82 % 1017,6 hPa 0,0 mm 0,6 km/h (0 Bft) S-SO 154 0 min 0,000 mm 0,0 UV-I 0 W/m 15,1 C 1,6 km/h (1 Bft)
15.08.2016 20:58 18,2 C 18,3 C 82 % 1017,6 hPa 0,0 mm 0,1 km/h (0 Bft) S-SO 154 0 min 0,000 mm 0,0 UV-I 0 W/m 15,1 C 1,6 km/h (1 Bft)
15.08.2016 20:59 18,2 C 18,2 C 82 % 1017,6 hPa 0,0 mm 0,0 km/h (0 Bft) S-SO 154 0 min 0,000 mm 0,0 UV-I 0 W/m 15,1 C 0,0 km/h (0 Bft)
15.08.2016 21:00 18,1 C 18,2 C 82 % 1017,6 hPa 0,0 mm 0,0 km/h (0 Bft) S-SO 154 0 min 0,000 mm 0,0 UV-I 0 W/m 15,0 C 0,0 km/h (0 Bft)
15.08.2016 21:01 17,9 C 18,1 C 82 % 1017,6 hPa 0,0 mm 0,0 km/h (0 Bft) S-SO 154 0 min 0,000 mm 0,0 UV-I 0 W/m 14,8 C 0,0 km/h (0 Bft)
15.08.2016 21:02 17,7 C 17,9 C 82 % 1017,6 hPa 0,0 mm 0,0 km/h (0 Bft) S-SO 154 0 min 0,000 mm 0,0 UV-I 0 W/m 14,6 C 0,0 km/h (0 Bft)
15.08.2016 21:03 17,4 C 17,7 C 83 % 1017,6 hPa 0,0 mm 0,0 km/h (0 Bft) S-SO 154 0 min 0,000 mm 0,0 UV-I 0 W/m 14,5 C 0,0 km/h (0 Bft)
15.08.2016 21:04 17,3 C 17,4 C 85 % 1017,6 hPa 0,0 mm 0,0 km/h (0 Bft) S-SO 154 0 min 0,000 mm 0,0 UV-I 0 W/m 14,8 C 0,0 km/h (0 Bft)
15.08.2016 21:05 17,2 C 17,3 C 85 % 1017,6 hPa 0,0 mm 0,0 km/h (0 Bft) S-SO 154 0 min 0,000 mm 0,0 UV-I 0 W/m 14,7 C 0,0 km/h (0 Bft)
15.08.2016 21:06 17,2 C 17,2 C 85 % 1017,6 hPa 0,0 mm 0,0 km/h (0 Bft) S-SO 153 0 min 0,000 mm 0,0 UV-I 0 W/m 14,7 C 0,0 km/h (0 Bft)
15.08.2016 21:07 17,2 C 17,2 C 86 % 1017,6 hPa 0,0 mm 0,0 km/h (0 Bft) S-SO 154 0 min 0,000 mm 0,0 UV-I 0 W/m 14,8 C 0,0 km/h (0 Bft)
15.08.2016 21:08 17,2 C 17,2 C 86 % 1017,6 hPa 0,0 mm 0,0 km/h (0 Bft) S-SO 154 0 min 0,000 mm 0,0 UV-I 0 W/m 14,8 C 0,0 km/h (0 Bft)
15.08.2016 21:09 17,2 C 17,2 C 86 % 1017,6 hPa 0,0 mm 0,0 km/h (0 Bft) S-SO 154 0 min 0,000 mm 0,0 UV-I 0 W/m 14,8 C 0,0 km/h (0 Bft)
15.08.2016 21:10 17,2 C 17,2 C 86 % 1017,6 hPa 0,0 mm 0,1 km/h (0 Bft) S-SO 154 0 min 0,000 mm 0,0 UV-I 0 W/m 14,8 C 1,6 km/h (1 Bft)
15.08.2016 21:11 17,3 C 17,3 C 86 % 1017,6 hPa 0,0 mm 0,0 km/h (0 Bft) S-SO 154 0 min 0,000 mm 0,0 UV-I 0 W/m 14,9 C 0,0 km/h (0 Bft)
15.08.2016 21:12 17,3 C 17,3 C 86 % 1017,6 hPa 0,0 mm 0,0 km/h (0 Bft) S-SO 153 0 min 0,000 mm 0,0 UV-I 0 W/m 14,9 C 0,0 km/h (0 Bft)
15.08.2016 21:13 17,3 C 17,3 C 85 % 1017,6 hPa 0,0 mm 0,1 km/h (0 Bft) S-SO 154 0 min 0,000 mm 0,0 UV-I 0 W/m 14,8 C 1,6 km/h (1 Bft)
15.08.2016 21:14 17,3 C 17,3 C 86 % 1017,7 hPa 0,0 mm 0,0 km/h (0 Bft) S-SO 154 0 min 0,000 mm 0,0 UV-I 0 W/m 14,9 C 0,0 km/h (0 Bft)
15.08.2016 21:15 17,4 C 17,4 C 85 % 1017,7 hPa 0,0 mm 0,1 km/h (0 Bft) S-SO 153 0 min 0,000 mm 0,0 UV-I 0 W/m 14,8 C 1,6 km/h (1 Bft)
15.08.2016 21:16 17,4 C 17,4 C 86 % 1017,7 hPa 0,0 mm 0,0 km/h (0 Bft) S-SO 154 0 min 0,000 mm 0,0 UV-I 0 W/m 15,0 C 0,0 km/h (0 Bft)
15.08.2016 21:17 17,5 C 17,5 C 85 % 1017,7 hPa 0,0 mm 0,0 km/h (0 Bft) S-SO 154 0 min 0,000 mm 0,0 UV-I 0 W/m 14,9 C 0,0 km/h (0 Bft)
15.08.2016 21:18 17,4 C 17,5 C 85 % 1017,6 hPa 0,0 mm 0,1 km/h (0 Bft) S-SO 153 0 min 0,000 mm 0,0 UV-I 0 W/m 14,8 C 1,6 km/h (1 Bft)
15.08.2016 21:19 17,3 C 17,4 C 85 % 1017,6 hPa 0,0 mm 0,0 km/h (0 Bft) S-SO 153 0 min 0,000 mm 0,0 UV-I 0 W/m 14,8 C 0,0 km/h (0 Bft)
15.08.2016 21:20 17,3 C 17,3 C 85 % 1017,7 hPa 0,0 mm 0,0 km/h (0 Bft) S-SO 153 0 min 0,000 mm 0,0 UV-I 0 W/m 14,8 C 0,0 km/h (0 Bft)
15.08.2016 21:21 17,2 C 17,3 C 86 % 1017,7 hPa 0,0 mm 0,0 km/h (0 Bft) S-SO 153 0 min 0,000 mm 0,0 UV-I 0 W/m 14,8 C 0,0 km/h (0 Bft)
15.08.2016 21:22 17,1 C 17,2 C 86 % 1017,7 hPa 0,0 mm 0,0 km/h (0 Bft) S-SO 154 0 min 0,000 mm 0,0 UV-I 0 W/m 14,7 C 0,0 km/h (0 Bft)
15.08.2016 21:23 17,0 C 17,1 C 86 % 1017,7 hPa 0,0 mm 0,0 km/h (0 Bft) S-SO 153 0 min 0,000 mm 0,0 UV-I 0 W/m 14,6 C 0,0 km/h (0 Bft)
15.08.2016 21:24 16,9 C 17,0 C 87 % 1017,7 hPa 0,0 mm 0,0 km/h (0 Bft) S-SO 154 0 min 0,000 mm 0,0 UV-I 0 W/m 14,7 C 0,0 km/h (0 Bft)
15.08.2016 21:25 16,8 C 16,9 C 87 % 1017,7 hPa 0,0 mm 0,0 km/h (0 Bft) S-SO 154 0 min 0,000 mm 0,0 UV-I 0 W/m 14,6 C 0,0 km/h (0 Bft)
15.08.2016 21:26 16,8 C 16,8 C 87 % 1017,8 hPa 0,0 mm 0,0 km/h (0 Bft) S-SO 154 0 min 0,000 mm 0,0 UV-I 0 W/m 14,6 C 0,0 km/h (0 Bft)
15.08.2016 21:27 16,7 C 16,8 C 88 % 1017,7 hPa 0,0 mm 0,0 km/h (0 Bft) S-SO 154 0 min 0,000 mm 0,0 UV-I 0 W/m 14,7 C 0,0 km/h (0 Bft)
15.08.2016 21:28 16,7 C 16,7 C 88 % 1017,8 hPa 0,0 mm 0,0 km/h (0 Bft) S-SO 154 0 min 0,000 mm 0,0 UV-I 0 W/m 14,7 C 0,0 km/h (0 Bft)
15.08.2016 21:29 16,7 C 16,8 C 88 % 1017,7 hPa 0,0 mm 0,0 km/h (0 Bft) S-SO 154 0 min 0,000 mm 0,0 UV-I 0 W/m 14,7 C 0,0 km/h (0 Bft)
15.08.2016 21:30 16,8 C 16,8 C 88 % 1017,7 hPa 0,0 mm 0,0 km/h (0 Bft) S-SO 153 0 min 0,000 mm 0,0 UV-I 0 W/m 14,8 C 0,0 km/h (0 Bft)
15.08.2016 21:31 16,8 C 16,8 C 88 % 1017,7 hPa 0,0 mm 0,0 km/h (0 Bft) S-SO 154 0 min 0,000 mm 0,0 UV-I 0 W/m 14,8 C 0,0 km/h (0 Bft)
15.08.2016 21:32 16,8 C 16,8 C 87 % 1017,7 hPa 0,0 mm 0,0 km/h (0 Bft) S-SO 154 0 min 0,000 mm 0,0 UV-I 0 W/m 14,6 C 0,0 km/h (0 Bft)
15.08.2016 21:33 16,8 C 16,8 C 88 % 1017,7 hPa 0,0 mm 0,0 km/h (0 Bft) S-SO 154 0 min 0,000 mm 0,0 UV-I 0 W/m 14,8 C 0,0 km/h (0 Bft)
15.08.2016 21:34 16,8 C 16,8 C 88 % 1017,8 hPa 0,0 mm 0,0 km/h (0 Bft) S-SO 154 0 min 0,000 mm 0,0 UV-I 0 W/m 14,8 C 0,0 km/h (0 Bft)
15.08.2016 21:35 16,7 C 16,8 C 87 % 1017,7 hPa 0,0 mm 0,0 km/h (0 Bft) S-SO 154 0 min 0,000 mm 0,0 UV-I 0 W/m 14,5 C 0,0 km/h (0 Bft)
15.08.2016 21:36 16,6 C 16,7 C 87 % 1017,8 hPa 0,0 mm 0,0 km/h (0 Bft) S-SO 153 0 min 0,000 mm 0,0 UV-I 0 W/m 14,4 C 0,0 km/h (0 Bft)
15.08.2016 21:37 16,5 C 16,7 C 87 % 1017,7 hPa 0,0 mm 0,0 km/h (0 Bft) S-SO 154 0 min 0,000 mm 0,0 UV-I 0 W/m 14,3 C 0,0 km/h (0 Bft)
15.08.2016 21:38 16,4 C 16,5 C 89 % 1017,7 hPa 0,0 mm 0,0 km/h (0 Bft) S-SO 154 0 min 0,000 mm 0,0 UV-I 0 W/m 14,6 C 0,0 km/h (0 Bft)
15.08.2016 21:39 16,4 C 16,4 C 89 % 1017,7 hPa 0,0 mm 0,0 km/h (0 Bft) S-SO 153 0 min 0,000 mm 0,0 UV-I 0 W/m 14,6 C 0,0 km/h (0 Bft)
15.08.2016 21:40 16,4 C 16,4 C 89 % 1017,7 hPa 0,0 mm 0,0 km/h (0 Bft) S-SO 154 0 min 0,000 mm 0,0 UV-I 0 W/m 14,6 C 0,0 km/h (0 Bft)
15.08.2016 21:41 16,4 C 16,4 C 89 % 1017,8 hPa 0,0 mm 0,0 km/h (0 Bft) S-SO 154 0 min 0,000 mm 0,0 UV-I 0 W/m 14,6 C 0,0 km/h (0 Bft)
15.08.2016 21:42 16,4 C 16,4 C 89 % 1017,7 hPa 0,0 mm 0,0 km/h (0 Bft) S-SO 154 0 min 0,000 mm 0,0 UV-I 0 W/m 14,6 C 0,0 km/h (0 Bft)
15.08.2016 21:43 16,4 C 16,4 C 89 % 1017,7 hPa 0,0 mm 0,0 km/h (0 Bft) S-SO 153 0 min 0,000 mm 0,0 UV-I 0 W/m 14,6 C 0,0 km/h (0 Bft)
15.08.2016 21:44 16,4 C 16,4 C 89 % 1017,8 hPa 0,0 mm 0,0 km/h (0 Bft) S-SO 153 0 min 0,000 mm 0,0 UV-I 0 W/m 14,6 C 0,0 km/h (0 Bft)
15.08.2016 21:45 16,4 C 16,4 C 89 % 1017,8 hPa 0,0 mm 0,0 km/h (0 Bft) S-SO 154 0 min 0,000 mm 0,0 UV-I 0 W/m 14,6 C 0,0 km/h (0 Bft)
15.08.2016 21:46 16,4 C 16,4 C 89 % 1017,8 hPa 0,0 mm 0,0 km/h (0 Bft) S-SO 154 0 min 0,000 mm 0,0 UV-I 0 W/m 14,6 C 0,0 km/h (0 Bft)
15.08.2016 21:47 16,4 C 16,4 C 89 % 1017,8 hPa 0,0 mm 0,0 km/h (0 Bft) S-SO 154 0 min 0,000 mm 0,0 UV-I 0 W/m 14,6 C 0,0 km/h (0 Bft)
15.08.2016 21:48 16,4 C 16,4 C 89 % 1017,8 hPa 0,0 mm 0,0 km/h (0 Bft) S-SO 153 0 min 0,000 mm 0,0 UV-I 0 W/m 14,6 C 0,0 km/h (0 Bft)
15.08.2016 21:49 16,4 C 16,4 C 89 % 1017,8 hPa 0,0 mm 0,0 km/h (0 Bft) S-SO 154 0 min 0,000 mm 0,0 UV-I 0 W/m 14,6 C 0,0 km/h (0 Bft)
15.08.2016 21:50 16,3 C 16,4 C 89 % 1017,8 hPa 0,0 mm 0,0 km/h (0 Bft) S-SO 154 0 min 0,000 mm 0,0 UV-I 0 W/m 14,5 C 0,0 km/h (0 Bft)
15.08.2016 21:51 16,3 C 16,4 C 88 % 1017,8 hPa 0,0 mm 0,0 km/h (0 Bft) S-SO 154 0 min 0,000 mm 0,0 UV-I 0 W/m 14,3 C 0,0 km/h (0 Bft)
15.08.2016 21:52 16,3 C 16,3 C 89 % 1017,8 hPa 0,0 mm 0,0 km/h (0 Bft) S-SO 154 0 min 0,000 mm 0,0 UV-I 0 W/m 14,5 C 0,0 km/h (0 Bft)
15.08.2016 21:53 16,3 C 16,3 C 89 % 1017,8 hPa 0,0 mm 0,0 km/h (0 Bft) S-SO 154 0 min 0,000 mm 0,0 UV-I 0 W/m 14,5 C 0,0 km/h (0 Bft)
15.08.2016 21:54 16,2 C 16,3 C 89 % 1017,8 hPa 0,0 mm 0,0 km/h (0 Bft) S-SO 154 0 min 0,000 mm 0,0 UV-I 0 W/m 14,4 C 0,0 km/h (0 Bft)
15.08.2016 21:55 16,2 C 16,2 C 90 % 1017,8 hPa 0,0 mm 0,0 km/h (0 Bft) S-SO 154 0 min 0,000 mm 0,0 UV-I 0 W/m 14,6 C 0,0 km/h (0 Bft)
15.08.2016 21:56 16,2 C 16,2 C 90 % 1017,8 hPa 0,0 mm 0,0 km/h (0 Bft) S-SO 154 0 min 0,000 mm 0,0 UV-I 0 W/m 14,6 C 0,0 km/h (0 Bft)
15.08.2016 21:57 16,2 C 16,2 C 89 % 1017,8 hPa 0,0 mm 0,0 km/h (0 Bft) S-SO 154 0 min 0,000 mm 0,0 UV-I 0 W/m 14,4 C 0,0 km/h (0 Bft)
15.08.2016 21:58 16,1 C 16,2 C 90 % 1017,8 hPa 0,0 mm 0,0 km/h (0 Bft) S-SO 153 0 min 0,000 mm 0,0 UV-I 0 W/m 14,5 C 0,0 km/h (0 Bft)
15.08.2016 21:59 16,1 C 16,1 C 89 % 1017,8 hPa 0,0 mm 0,0 km/h (0 Bft) S-SO 154 0 min 0,000 mm 0,0 UV-I 0 W/m 14,3 C 0,0 km/h (0 Bft)
15.08.2016 22:00 16,1 C 16,1 C 89 % 1017,8 hPa 0,0 mm 0,0 km/h (0 Bft) S-SO 154 0 min 0,000 mm 0,0 UV-I 0 W/m 14,3 C 0,0 km/h (0 Bft)
15.08.2016 22:01 16,1 C 16,1 C 90 % 1017,7 hPa 0,0 mm 0,0 km/h (0 Bft) S-SO 153 0 min 0,000 mm 0,0 UV-I 0 W/m 14,5 C 0,0 km/h (0 Bft)
15.08.2016 22:02 16,0 C 16,1 C 90 % 1017,7 hPa 0,0 mm 0,0 km/h (0 Bft) S-SO 154 0 min 0,000 mm 0,0 UV-I 0 W/m 14,4 C 0,0 km/h (0 Bft)
15.08.2016 22:03 16,0 C 16,0 C 90 % 1017,7 hPa 0,0 mm 0,0 km/h (0 Bft) S-SO 154 0 min 0,000 mm 0,0 UV-I 0 W/m 14,4 C 0,0 km/h (0 Bft)
15.08.2016 22:04 15,9 C 16,0 C 90 % 1017,7 hPa 0,0 mm 0,0 km/h (0 Bft) S-SO 154 0 min 0,000 mm 0,0 UV-I 0 W/m 14,3 C 0,0 km/h (0 Bft)
15.08.2016 22:05 15,9 C 16,0 C 90 % 1017,7 hPa 0,0 mm 0,0 km/h (0 Bft) S-SO 153 0 min 0,000 mm 0,0 UV-I 0 W/m 14,3 C 0,0 km/h (0 Bft)
15.08.2016 22:06 15,9 C 16,0 C 90 % 1017,7 hPa 0,0 mm 0,0 km/h (0 Bft) S-SO 154 0 min 0,000 mm 0,0 UV-I 0 W/m 14,3 C 0,0 km/h (0 Bft)
15.08.2016 22:07 15,9 C 15,9 C 90 % 1017,7 hPa 0,0 mm 0,0 km/h (0 Bft) S-SO 153 0 min 0,000 mm 0,0 UV-I 0 W/m 14,3 C 0,0 km/h (0 Bft)
15.08.2016 22:08 16,0 C 16,0 C 91 % 1017,7 hPa 0,0 mm 0,0 km/h (0 Bft) S-SO 154 0 min 0,000 mm 0,0 UV-I 0 W/m 14,5 C 0,0 km/h (0 Bft)
15.08.2016 22:09 16,0 C 16,0 C 91 % 1017,7 hPa 0,0 mm 0,0 km/h (0 Bft) S-SO 154 0 min 0,000 mm 0,0 UV-I 0 W/m 14,5 C 0,0 km/h (0 Bft)
15.08.2016 22:10 16,1 C 16,1 C 91 % 1017,7 hPa 0,0 mm 0,2 km/h (0 Bft) S-SO 154 0 min 0,000 mm 0,0 UV-I 0 W/m 14,6 C 1,6 km/h (1 Bft)
15.08.2016 22:11 16,1 C 16,1 C 90 % 1017,7 hPa 0,0 mm 0,5 km/h (0 Bft) S-SO 154 0 min 0,000 mm 0,0 UV-I 0 W/m 14,5 C 1,6 km/h (1 Bft)
15.08.2016 22:12 16,1 C 16,1 C 90 % 1017,7 hPa 0,0 mm 0,3 km/h (0 Bft) S-SO 153 0 min 0,000 mm 0,0 UV-I 0 W/m 14,5 C 1,6 km/h (1 Bft)
15.08.2016 22:13 16,0 C 16,1 C 90 % 1017,7 hPa 0,0 mm 0,3 km/h (0 Bft) S-SO 153 0 min 0,000 mm 0,0 UV-I 0 W/m 14,4 C 1,6 km/h (1 Bft)
15.08.2016 22:14 15,9 C 16,0 C 90 % 1017,7 hPa 0,0 mm 0,0 km/h (0 Bft) S-SO 153 0 min 0,000 mm 0,0 UV-I 0 W/m 14,3 C 0,0 km/h (0 Bft)
15.08.2016 22:15 15,9 C 15,9 C 90 % 1017,7 hPa 0,0 mm 0,2 km/h (0 Bft) S-SO 153 0 min 0,000 mm 0,0 UV-I 0 W/m 14,3 C 1,6 km/h (1 Bft)
15.08.2016 22:16 15,8 C 15,9 C 90 % 1017,7 hPa 0,0 mm 0,0 km/h (0 Bft) S-SO 153 0 min 0,000 mm 0,0 UV-I 0 W/m 14,2 C 0,0 km/h (0 Bft)
15.08.2016 22:17 15,8 C 15,8 C 90 % 1017,7 hPa 0,0 mm 0,0 km/h (0 Bft) S-SO 153 0 min 0,000 mm 0,0 UV-I 0 W/m 14,2 C 0,0 km/h (0 Bft)
15.08.2016 22:18 15,8 C 15,8 C 91 % 1017,7 hPa 0,0 mm 0,1 km/h (0 Bft) S-SO 153 0 min 0,000 mm 0,0 UV-I 0 W/m 14,3 C 1,6 km/h (1 Bft)
15.08.2016 22:19 15,8 C 15,8 C 91 % 1017,7 hPa 0,0 mm 0,0 km/h (0 Bft) S-SO 153 0 min 0,000 mm 0,0 UV-I 0 W/m 14,3 C 0,0 km/h (0 Bft)
15.08.2016 22:20 15,8 C 15,9 C 90 % 1017,7 hPa 0,0 mm 0,0 km/h (0 Bft) S-SO 153 0 min 0,000 mm 0,0 UV-I 0 W/m 14,2 C 0,0 km/h (0 Bft)
15.08.2016 22:21 15,8 C 15,8 C 90 % 1017,7 hPa 0,0 mm 0,0 km/h (0 Bft) S-SO 153 0 min 0,000 mm 0,0 UV-I 0 W/m 14,2 C 0,0 km/h (0 Bft)
15.08.2016 22:22 15,7 C 15,8 C 90 % 1017,7 hPa 0,0 mm 0,0 km/h (0 Bft) S-SO 153 0 min 0,000 mm 0,0 UV-I 0 W/m 14,1 C 0,0 km/h (0 Bft)
15.08.2016 22:23 15,6 C 15,7 C 91 % 1017,7 hPa 0,0 mm 0,0 km/h (0 Bft) S-SO 153 0 min 0,000 mm 0,0 UV-I 0 W/m 14,1 C 0,0 km/h (0 Bft)
15.08.2016 22:24 15,6 C 15,6 C 91 % 1017,7 hPa 0,0 mm 0,0 km/h (0 Bft) S-SO 153 0 min 0,000 mm 0,0 UV-I 0 W/m 14,1 C 0,0 km/h (0 Bft)
15.08.2016 22:25 15,6 C 15,6 C 91 % 1017,7 hPa 0,0 mm 0,0 km/h (0 Bft) S-SO 154 0 min 0,000 mm 0,0 UV-I 0 W/m 14,1 C 0,0 km/h (0 Bft)
15.08.2016 22:26 15,6 C 15,6 C 91 % 1017,8 hPa 0,0 mm 0,0 km/h (0 Bft) S-SO 153 0 min 0,000 mm 0,0 UV-I 0 W/m 14,1 C 0,0 km/h (0 Bft)
15.08.2016 22:27 15,4 C 15,6 C 91 % 1017,7 hPa 0,0 mm 0,7 km/h (0 Bft) S-SO 153 0 min 0,000 mm 0,0 UV-I 0 W/m 13,9 C 3,2 km/h (1 Bft)
15.08.2016 22:28 15,4 C 15,5 C 90 % 1017,7 hPa 0,0 mm 2,1 km/h (1 Bft) S-SO 153 0 min 0,000 mm 0,0 UV-I 0 W/m 13,8 C 3,2 km/h (1 Bft)
15.08.2016 22:29 15,3 C 15,4 C 90 % 1017,8 hPa 0,0 mm 2,0 km/h (1 Bft) S-SO 153 0 min 0,000 mm 0,0 UV-I 0 W/m 13,7 C 3,2 km/h (1 Bft)
15.08.2016 22:30 15,3 C 15,4 C 90 % 1017,7 hPa 0,0 mm 1,3 km/h (1 Bft) S-SO 154 0 min 0,000 mm 0,0 UV-I 0 W/m 13,7 C 1,6 km/h (1 Bft)
15.08.2016 22:31 15,4 C 15,4 C 91 % 1017,7 hPa 0,0 mm 1,7 km/h (1 Bft) S-SO 154 0 min 0,000 mm 0,0 UV-I 0 W/m 13,9 C 3,2 km/h (1 Bft)
15.08.2016 22:32 15,4 C 15,4 C 90 % 1017,7 hPa 0,0 mm 3,0 km/h (1 Bft) S-SO 153 0 min 0,000 mm 0,0 UV-I 0 W/m 13,8 C 3,2 km/h (1 Bft)
15.08.2016 22:33 15,4 C 15,4 C 91 % 1017,7 hPa 0,0 mm 2,0 km/h (1 Bft) S-SO 153 0 min 0,000 mm 0,0 UV-I 0 W/m 13,9 C 3,2 km/h (1 Bft)
15.08.2016 22:34 15,6 C 15,6 C 91 % 1017,7 hPa 0,0 mm 1,9 km/h (1 Bft) S-SO 154 0 min 0,000 mm 0,0 UV-I 0 W/m 14,1 C 3,2 km/h (1 Bft)
15.08.2016 22:35 15,5 C 15,6 C 90 % 1017,7 hPa 0,0 mm 2,3 km/h (1 Bft) S-SO 154 0 min 0,000 mm 0,0 UV-I 0 W/m 13,9 C 3,2 km/h (1 Bft)
15.08.2016 22:36 15,5 C 15,5 C 90 % 1017,7 hPa 0,0 mm 2,1 km/h (1 Bft) S-SO 154 0 min 0,000 mm 0,0 UV-I 0 W/m 13,9 C 3,2 km/h (1 Bft)
15.08.2016 22:37 15,6 C 15,6 C 91 % 1017,8 hPa 0,0 mm 1,4 km/h (1 Bft) S-SO 154 0 min 0,000 mm 0,0 UV-I 0 W/m 14,1 C 3,2 km/h (1 Bft)
15.08.2016 22:38 15,6 C 15,6 C 91 % 1017,7 hPa 0,0 mm 1,4 km/h (1 Bft) S-SO 153 0 min 0,000 mm 0,0 UV-I 0 W/m 14,1 C 1,6 km/h (1 Bft)
15.08.2016 22:39 15,6 C 15,6 C 90 % 1017,7 hPa 0,0 mm 0,5 km/h (0 Bft) S-SO 153 0 min 0,000 mm 0,0 UV-I 0 W/m 14,0 C 1,6 km/h (1 Bft)
15.08.2016 22:40 15,6 C 15,6 C 91 % 1017,7 hPa 0,0 mm 0,0 km/h (0 Bft) S-SO 153 0 min 0,000 mm 0,0 UV-I 0 W/m 14,1 C 0,0 km/h (0 Bft)
15.08.2016 22:41 15,6 C 15,6 C 91 % 1017,7 hPa 0,0 mm 0,0 km/h (0 Bft) S-SO 153 0 min 0,000 mm 0,0 UV-I 0 W/m 14,1 C 0,0 km/h (0 Bft)
15.08.2016 22:42 15,6 C 15,6 C 91 % 1017,7 hPa 0,0 mm 0,0 km/h (0 Bft) S-SO 154 0 min 0,000 mm 0,0 UV-I 0 W/m 14,1 C 0,0 km/h (0 Bft)
15.08.2016 22:43 15,6 C 15,7 C 90 % 1017,7 hPa 0,0 mm 0,0 km/h (0 Bft) S-SO 153 0 min 0,000 mm 0,0 UV-I 0 W/m 14,0 C 0,0 km/h (0 Bft)
15.08.2016 22:44 15,5 C 15,6 C 90 % 1017,8 hPa 0,0 mm 0,0 km/h (0 Bft) S-SO 153 0 min 0,000 mm 0,0 UV-I 0 W/m 13,9 C 0,0 km/h (0 Bft)
15.08.2016 22:45 15,4 C 15,5 C 90 % 1017,8 hPa 0,0 mm 0,0 km/h (0 Bft) S-SO 153 0 min 0,000 mm 0,0 UV-I 0 W/m 13,8 C 0,0 km/h (0 Bft)
15.08.2016 22:46 15,3 C 15,4 C 90 % 1017,7 hPa 0,0 mm 0,0 km/h (0 Bft) S-SO 154 0 min 0,000 mm 0,0 UV-I 0 W/m 13,7 C 0,0 km/h (0 Bft)
15.08.2016 22:47 15,2 C 15,3 C 90 % 1017,7 hPa 0,0 mm 0,0 km/h (0 Bft) S-SO 153 0 min 0,000 mm 0,0 UV-I 0 W/m 13,6 C 0,0 km/h (0 Bft)
15.08.2016 22:48 15,1 C 15,2 C 90 % 1017,7 hPa 0,0 mm 0,0 km/h (0 Bft) S-SO 153 0 min 0,000 mm 0,0 UV-I 0 W/m 13,5 C 0,0 km/h (0 Bft)
15.08.2016 22:49 15,0 C 15,1 C 91 % 1017,7 hPa 0,0 mm 0,0 km/h (0 Bft) S-SO 153 0 min 0,000 mm 0,0 UV-I 0 W/m 13,5 C 0,0 km/h (0 Bft)
15.08.2016 22:50 14,9 C 15,0 C 91 % 1017,7 hPa 0,0 mm 0,0 km/h (0 Bft) S-SO 153 0 min 0,000 mm 0,0 UV-I 0 W/m 13,4 C 0,0 km/h (0 Bft)
15.08.2016 22:51 14,8 C 14,9 C 91 % 1017,7 hPa 0,0 mm 0,0 km/h (0 Bft) S-SO 153 0 min 0,000 mm 0,0 UV-I 0 W/m 13,3 C 0,0 km/h (0 Bft)
15.08.2016 22:52 14,7 C 14,8 C 91 % 1017,7 hPa 0,0 mm 0,0 km/h (0 Bft) S-SO 153 0 min 0,000 mm 0,0 UV-I 0 W/m 13,2 C 0,0 km/h (0 Bft)
15.08.2016 22:53 14,7 C 14,8 C 91 % 1017,7 hPa 0,0 mm 0,0 km/h (0 Bft) S-SO 154 0 min 0,000 mm 0,0 UV-I 0 W/m 13,2 C 0,0 km/h (0 Bft)
15.08.2016 22:54 14,7 C 14,7 C 92 % 1017,7 hPa 0,0 mm 0,0 km/h (0 Bft) S-SO 153 0 min 0,000 mm 0,0 UV-I 0 W/m 13,4 C 0,0 km/h (0 Bft)
15.08.2016 22:55 14,7 C 14,7 C 92 % 1017,7 hPa 0,0 mm 0,0 km/h (0 Bft) S-SO 153 0 min 0,000 mm 0,0 UV-I 0 W/m 13,4 C 0,0 km/h (0 Bft)
15.08.2016 22:56 14,8 C 14,8 C 93 % 1017,7 hPa 0,0 mm 0,0 km/h (0 Bft) S-SO 153 0 min 0,000 mm 0,0 UV-I 0 W/m 13,7 C 0,0 km/h (0 Bft)
15.08.2016 22:57 14,8 C 14,8 C 93 % 1017,7 hPa 0,0 mm 0,0 km/h (0 Bft) S-SO 153 0 min 0,000 mm 0,0 UV-I 0 W/m 13,7 C 0,0 km/h (0 Bft)
15.08.2016 22:58 14,8 C 14,8 C 93 % 1017,7 hPa 0,0 mm 0,0 km/h (0 Bft) S-SO 153 0 min 0,000 mm 0,0 UV-I 0 W/m 13,7 C 0,0 km/h (0 Bft)
15.08.2016 22:59 14,8 C 14,8 C 93 % 1017,7 hPa 0,0 mm 0,0 km/h (0 Bft) S-SO 153 0 min 0,000 mm 0,0 UV-I 0 W/m 13,7 C 0,0 km/h (0 Bft)
15.08.2016 23:00 14,9 C 14,9 C 93 % 1017,7 hPa 0,0 mm 0,0 km/h (0 Bft) S-SO 153 0 min 0,000 mm 0,0 UV-I 0 W/m 13,8 C 0,0 km/h (0 Bft)
15.08.2016 23:01 15,0 C 15,0 C 93 % 1017,8 hPa 0,0 mm 0,2 km/h (0 Bft) S-SO 153 0 min 0,000 mm 0,0 UV-I 0 W/m 13,9 C 1,6 km/h (1 Bft)
15.08.2016 23:02 15,0 C 15,0 C 92 % 1017,7 hPa 0,0 mm 1,2 km/h (1 Bft) S-SO 154 0 min 0,000 mm 0,0 UV-I 0 W/m 13,7 C 3,2 km/h (1 Bft)
15.08.2016 23:03 15,0 C 15,0 C 92 % 1017,8 hPa 0,0 mm 0,0 km/h (0 Bft) S-SO 153 0 min 0,000 mm 0,0 UV-I 0 W/m 13,7 C 0,0 km/h (0 Bft)
15.08.2016 23:04 14,9 C 15,0 C 92 % 1017,8 hPa 0,0 mm 0,0 km/h (0 Bft) S-SO 153 0 min 0,000 mm 0,0 UV-I 0 W/m 13,6 C 0,0 km/h (0 Bft)
15.08.2016 23:05 14,9 C 14,9 C 91 % 1017,7 hPa 0,0 mm 0,0 km/h (0 Bft) S-SO 153 0 min 0,000 mm 0,0 UV-I 0 W/m 13,4 C 0,0 km/h (0 Bft)
15.08.2016 23:06 14,9 C 14,9 C 92 % 1017,7 hPa 0,0 mm 0,0 km/h (0 Bft) S-SO 153 0 min 0,000 mm 0,0 UV-I 0 W/m 13,6 C 0,0 km/h (0 Bft)
15.08.2016 23:07 14,9 C 14,9 C 92 % 1017,8 hPa 0,0 mm 0,0 km/h (0 Bft) S-SO 154 0 min 0,000 mm 0,0 UV-I 0 W/m 13,6 C 0,0 km/h (0 Bft)
15.08.2016 23:08 14,9 C 14,9 C 92 % 1017,7 hPa 0,0 mm 0,0 km/h (0 Bft) S-SO 154 0 min 0,000 mm 0,0 UV-I 0 W/m 13,6 C 0,0 km/h (0 Bft)
15.08.2016 23:09 14,9 C 14,9 C 92 % 1017,7 hPa 0,0 mm 0,0 km/h (0 Bft) S-SO 154 0 min 0,000 mm 0,0 UV-I 0 W/m 13,6 C 0,0 km/h (0 Bft)
15.08.2016 23:10 15,0 C 15,0 C 92 % 1017,8 hPa 0,0 mm 0,0 km/h (0 Bft) S-SO 153 0 min 0,000 mm 0,0 UV-I 0 W/m 13,7 C 0,0 km/h (0 Bft)
15.08.2016 23:11 15,0 C 15,0 C 93 % 1017,7 hPa 0,0 mm 0,0 km/h (0 Bft) S-SO 154 0 min 0,000 mm 0,0 UV-I 0 W/m 13,9 C 0,0 km/h (0 Bft)
15.08.2016 23:12 15,0 C 15,0 C 92 % 1017,7 hPa 0,0 mm 0,0 km/h (0 Bft) S-SO 153 0 min 0,000 mm 0,0 UV-I 0 W/m 13,7 C 0,0 km/h (0 Bft)
15.08.2016 23:13 15,0 C 15,1 C 92 % 1017,8 hPa 0,0 mm 0,0 km/h (0 Bft) S-SO 153 0 min 0,000 mm 0,0 UV-I 0 W/m 13,7 C 0,0 km/h (0 Bft)
15.08.2016 23:14 15,0 C 15,1 C 93 % 1017,8 hPa 0,0 mm 0,0 km/h (0 Bft) S-SO 153 0 min 0,000 mm 0,0 UV-I 0 W/m 13,9 C 0,0 km/h (0 Bft)
15.08.2016 23:15 15,1 C 15,1 C 92 % 1017,8 hPa 0,0 mm 0,0 km/h (0 Bft) S-SO 153 0 min 0,000 mm 0,0 UV-I 0 W/m 13,8 C 0,0 km/h (0 Bft)
15.08.2016 23:16 15,1 C 15,1 C 93 % 1017,8 hPa 0,0 mm 0,0 km/h (0 Bft) S-SO 153 0 min 0,000 mm 0,0 UV-I 0 W/m 14,0 C 0,0 km/h (0 Bft)
15.08.2016 23:17 15,2 C 15,2 C 92 % 1017,8 hPa 0,0 mm 0,0 km/h (0 Bft) S-SO 153 0 min 0,000 mm 0,0 UV-I 0 W/m 13,9 C 0,0 km/h (0 Bft)
15.08.2016 23:18 15,2 C 15,2 C 92 % 1017,8 hPa 0,0 mm 0,0 km/h (0 Bft) S-SO 154 0 min 0,000 mm 0,0 UV-I 0 W/m 13,9 C 0,0 km/h (0 Bft)
15.08.2016 23:19 15,2 C 15,2 C 91 % 1017,8 hPa 0,0 mm 0,6 km/h (0 Bft) S-SO 153 0 min 0,000 mm 0,0 UV-I 0 W/m 13,7 C 1,6 km/h (1 Bft)
15.08.2016 23:20 15,1 C 15,2 C 91 % 1017,8 hPa 0,0 mm 0,0 km/h (0 Bft) S-SO 153 0 min 0,000 mm 0,0 UV-I 0 W/m 13,6 C 0,0 km/h (0 Bft)
15.08.2016 23:21 15,1 C 15,1 C 90 % 1017,7 hPa 0,0 mm 0,0 km/h (0 Bft) S-SO 154 0 min 0,000 mm 0,0 UV-I 0 W/m 13,5 C 0,0 km/h (0 Bft)
15.08.2016 23:22 15,1 C 15,1 C 91 % 1017,7 hPa 0,0 mm 0,0 km/h (0 Bft) S-SO 153 0 min 0,000 mm 0,0 UV-I 0 W/m 13,6 C 0,0 km/h (0 Bft)
15.08.2016 23:23 15,0 C 15,1 C 91 % 1017,7 hPa 0,0 mm 0,0 km/h (0 Bft) S-SO 153 0 min 0,000 mm 0,0 UV-I 0 W/m 13,5 C 0,0 km/h (0 Bft)
15.08.2016 23:24 15,0 C 15,0 C 92 % 1017,6 hPa 0,0 mm 0,0 km/h (0 Bft) S-SO 154 0 min 0,000 mm 0,0 UV-I 0 W/m 13,7 C 0,0 km/h (0 Bft)
15.08.2016 23:25 15,0 C 15,0 C 92 % 1017,6 hPa 0,0 mm 0,0 km/h (0 Bft) S-SO 153 0 min 0,000 mm 0,0 UV-I 0 W/m 13,7 C 0,0 km/h (0 Bft)
15.08.2016 23:26 15,0 C 15,0 C 92 % 1017,6 hPa 0,0 mm 0,0 km/h (0 Bft) S-SO 154 0 min 0,000 mm 0,0 UV-I 0 W/m 13,7 C 0,0 km/h (0 Bft)
15.08.2016 23:27 15,0 C 15,1 C 92 % 1017,7 hPa 0,0 mm 0,0 km/h (0 Bft) S-SO 154 0 min 0,000 mm 0,0 UV-I 0 W/m 13,7 C 0,0 km/h (0 Bft)
15.08.2016 23:28 14,9 C 15,0 C 92 % 1017,6 hPa 0,0 mm 0,0 km/h (0 Bft) S-SO 153 0 min 0,000 mm 0,0 UV-I 0 W/m 13,6 C 0,0 km/h (0 Bft)
15.08.2016 23:29 14,9 C 14,9 C 92 % 1017,6 hPa 0,0 mm 0,0 km/h (0 Bft) S-SO 154 0 min 0,000 mm 0,0 UV-I 0 W/m 13,6 C 0,0 km/h (0 Bft)
15.08.2016 23:30 14,9 C 14,9 C 92 % 1017,6 hPa 0,0 mm 0,0 km/h (0 Bft) S-SO 154 0 min 0,000 mm 0,0 UV-I 0 W/m 13,6 C 0,0 km/h (0 Bft)
15.08.2016 23:31 14,9 C 14,9 C 92 % 1017,6 hPa 0,0 mm 0,0 km/h (0 Bft) S-SO 153 0 min 0,000 mm 0,0 UV-I 0 W/m 13,6 C 0,0 km/h (0 Bft)
15.08.2016 23:32 14,9 C 14,9 C 92 % 1017,6 hPa 0,0 mm 0,0 km/h (0 Bft) S-SO 153 0 min 0,000 mm 0,0 UV-I 0 W/m 13,6 C 0,0 km/h (0 Bft)
15.08.2016 23:33 14,9 C 14,9 C 92 % 1017,6 hPa 0,0 mm 0,0 km/h (0 Bft) S-SO 153 0 min 0,000 mm 0,0 UV-I 0 W/m 13,6 C 0,0 km/h (0 Bft)
15.08.2016 23:34 14,8 C 14,9 C 92 % 1017,6 hPa 0,0 mm 0,0 km/h (0 Bft) S-SO 153 0 min 0,000 mm 0,0 UV-I 0 W/m 13,5 C 0,0 km/h (0 Bft)
15.08.2016 23:35 14,8 C 14,8 C 91 % 1017,5 hPa 0,0 mm 0,0 km/h (0 Bft) S-SO 153 0 min 0,000 mm 0,0 UV-I 0 W/m 13,3 C 0,0 km/h (0 Bft)
15.08.2016 23:36 14,7 C 14,8 C 91 % 1017,5 hPa 0,0 mm 0,0 km/h (0 Bft) S-SO 153 0 min 0,000 mm 0,0 UV-I 0 W/m 13,2 C 0,0 km/h (0 Bft)
15.08.2016 23:37 14,7 C 14,7 C 92 % 1017,5 hPa 0,0 mm 0,0 km/h (0 Bft) S-SO 153 0 min 0,000 mm 0,0 UV-I 0 W/m 13,4 C 0,0 km/h (0 Bft)
15.08.2016 23:38 14,7 C 14,7 C 92 % 1017,5 hPa 0,0 mm 0,0 km/h (0 Bft) S-SO 153 0 min 0,000 mm 0,0 UV-I 0 W/m 13,4 C 0,0 km/h (0 Bft)
15.08.2016 23:39 14,7 C 14,7 C 93 % 1017,5 hPa 0,0 mm 0,0 km/h (0 Bft) S-SO 153 0 min 0,000 mm 0,0 UV-I 0 W/m 13,6 C 0,0 km/h (0 Bft)
15.08.2016 23:40 14,6 C 14,7 C 92 % 1017,5 hPa 0,0 mm 0,0 km/h (0 Bft) S-SO 153 0 min 0,000 mm 0,0 UV-I 0 W/m 13,3 C 0,0 km/h (0 Bft)
15.08.2016 23:41 14,6 C 14,6 C 92 % 1017,5 hPa 0,0 mm 0,0 km/h (0 Bft) S-SO 153 0 min 0,000 mm 0,0 UV-I 0 W/m 13,3 C 0,0 km/h (0 Bft)
15.08.2016 23:42 14,6 C 14,6 C 92 % 1017,5 hPa 0,0 mm 0,0 km/h (0 Bft) S-SO 153 0 min 0,000 mm 0,0 UV-I 0 W/m 13,3 C 0,0 km/h (0 Bft)
15.08.2016 23:43 14,5 C 14,6 C 92 % 1017,5 hPa 0,0 mm 0,0 km/h (0 Bft) S-SO 154 0 min 0,000 mm 0,0 UV-I 0 W/m 13,2 C 0,0 km/h (0 Bft)
15.08.2016 23:44 14,5 C 14,5 C 93 % 1017,5 hPa 0,0 mm 0,0 km/h (0 Bft) S-SO 154 0 min 0,000 mm 0,0 UV-I 0 W/m 13,4 C 0,0 km/h (0 Bft)
15.08.2016 23:45 14,4 C 14,5 C 93 % 1017,4 hPa 0,0 mm 0,0 km/h (0 Bft) S-SO 154 0 min 0,000 mm 0,0 UV-I 0 W/m 13,3 C 0,0 km/h (0 Bft)
15.08.2016 23:46 14,4 C 14,5 C 93 % 1017,5 hPa 0,0 mm 0,0 km/h (0 Bft) S-SO 153 0 min 0,000 mm 0,0 UV-I 0 W/m 13,3 C 0,0 km/h (0 Bft)
15.08.2016 23:47 14,4 C 14,4 C 93 % 1017,5 hPa 0,0 mm 0,0 km/h (0 Bft) S-SO 153 0 min 0,000 mm 0,0 UV-I 0 W/m 13,3 C 0,0 km/h (0 Bft)
15.08.2016 23:48 14,4 C 14,4 C 93 % 1017,5 hPa 0,0 mm 0,0 km/h (0 Bft) S-SO 153 0 min 0,000 mm 0,0 UV-I 0 W/m 13,3 C 0,0 km/h (0 Bft)
15.08.2016 23:49 14,4 C 14,4 C 93 % 1017,4 hPa 0,0 mm 0,0 km/h (0 Bft) S-SO 153 0 min 0,000 mm 0,0 UV-I 0 W/m 13,3 C 0,0 km/h (0 Bft)
15.08.2016 23:50 14,3 C 14,4 C 93 % 1017,4 hPa 0,0 mm 0,0 km/h (0 Bft) S-SO 153 0 min 0,000 mm 0,0 UV-I 0 W/m 13,2 C 0,0 km/h (0 Bft)
15.08.2016 23:51 14,3 C 14,3 C 93 % 1017,4 hPa 0,0 mm 0,0 km/h (0 Bft) S-SO 154 0 min 0,000 mm 0,0 UV-I 0 W/m 13,2 C 0,0 km/h (0 Bft)
15.08.2016 23:52 14,3 C 14,3 C 93 % 1017,4 hPa 0,0 mm 0,0 km/h (0 Bft) S-SO 154 0 min 0,000 mm 0,0 UV-I 0 W/m 13,2 C 0,0 km/h (0 Bft)
15.08.2016 23:53 14,2 C 14,3 C 93 % 1017,4 hPa 0,0 mm 0,0 km/h (0 Bft) S-SO 154 0 min 0,000 mm 0,0 UV-I 0 W/m 13,1 C 0,0 km/h (0 Bft)
15.08.2016 23:54 14,2 C 14,2 C 93 % 1017,4 hPa 0,0 mm 0,0 km/h (0 Bft) S-SO 153 0 min 0,000 mm 0,0 UV-I 0 W/m 13,1 C 0,0 km/h (0 Bft)
15.08.2016 23:55 14,2 C 14,2 C 93 % 1017,4 hPa 0,0 mm 0,0 km/h (0 Bft) S-SO 154 0 min 0,000 mm 0,0 UV-I 0 W/m 13,1 C 0,0 km/h (0 Bft)
15.08.2016 23:56 14,2 C 14,2 C 93 % 1017,4 hPa 0,0 mm 0,0 km/h (0 Bft) S-SO 153 0 min 0,000 mm 0,0 UV-I 0 W/m 13,1 C 0,0 km/h (0 Bft)
15.08.2016 23:57 14,2 C 14,2 C 93 % 1017,4 hPa 0,0 mm 0,0 km/h (0 Bft) S-SO 153 0 min 0,000 mm 0,0 UV-I 0 W/m 13,1 C 0,0 km/h (0 Bft)
15.08.2016 23:58 14,2 C 14,2 C 93 % 1017,5 hPa 0,0 mm 0,0 km/h (0 Bft) S-SO 153 0 min 0,000 mm 0,0 UV-I 0 W/m 13,1 C 0,0 km/h (0 Bft)
15.08.2016 23:59 14,2 C 14,2 C 94 % 1017,5 hPa 0,0 mm 0,0 km/h (0 Bft) S-SO 153 0 min 0,000 mm 0,0 UV-I 0 W/m 13,2 C 0,0 km/h (0 Bft)
_ Min-Zeit 07:08 07:07 17:08 19:42 - 23:59 - - - - - - 07:07 23:59
Minimum _ 12,2 C 12,2 C 64 % 1016,9 hPa - 0,0 km/h (0 Bft) - - - - - - 11,4 C 0,0 km/h (0 Bft)
_ Max-Zeit 14:49 14:49 07:34 00:45 23:59 17:03 - - 16:18 15:21 13:09 13:12 13:22 14:54
Maximum _ 23,7 C 23,7 C 96 % 1020,4 hPa 0,0 mm 11,3 km/h
N-NO (2 Bft)
- - 2 min 2,007 mm 6,8 UV-I 976 W/m 18,3 C 17,7 km/h
O (3 Bft)
Durchschnitt _ 17,8 C 17,8 C 84 % 1018,6 hPa #0,0 mm 1,9 km/h (1 Bft) NO - #5:19 h #4,013 mm 3,1 UV-I 195 W/m 14,8 C 3,1 km/h (1 Bft)